<?xml version="1.0" encoding="UTF-8" standalone="no" ?>
<gpx xmlns="http://www.topografix.com/GPX/1/1" xmlns:xsi="http://www.w3.org/2001/XMLSchema-instance" xsi:schemaLocation="http://www.topografix.com/GPX/1/1 http://www.topografix.com/GPX/1/1/gpx.xsd" version="1.1" creator="VisuGPX - https://www.visugpx.com">
  <metadata>
    <name>91DJ25 Entre deux fêtes - Reprise rando Gilles en PM par Isabelle IBP 34</name>
    <desc><![CDATA[Reprise d'une rando de Gilles pour le RCY.
effectuée entre les deux fêtes de fin d'année sous un soleil radieux]]></desc>
  </metadata>
  <trk>
    <name><![CDATA[SityTrail - Entre deux fêtes]]></name>
    <desc><![CDATA[Reprise d'une rando de Gilles pour le RCY.
effectuée entre les deux fêtes de fin d'année sous un soleil radieux]]></desc>
    <trkseg>
      <trkpt lat="48.68761" lon="2.46675">
        <ele>89</ele>
        <time>2025-12-29T12:35:42.797Z</time>
      </trkpt>
      <trkpt lat="48.6876" lon="2.46675">
        <ele>89</ele>
        <time>2025-12-29T12:35:43.333Z</time>
      </trkpt>
      <trkpt lat="48.68756" lon="2.46673">
        <ele>89</ele>
        <time>2025-12-29T12:35:47.674Z</time>
      </trkpt>
      <trkpt lat="48.6875" lon="2.46667">
        <ele>89</ele>
        <time>2025-12-29T12:35:52.895Z</time>
      </trkpt>
      <trkpt lat="48.68743" lon="2.46666">
        <ele>89</ele>
        <time>2025-12-29T12:35:57.895Z</time>
      </trkpt>
      <trkpt lat="48.68735" lon="2.46674">
        <ele>90</ele>
        <time>2025-12-29T12:36:10.895Z</time>
      </trkpt>
      <trkpt lat="48.68735" lon="2.46674">
        <ele>90</ele>
        <time>2025-12-29T12:36:15.312Z</time>
      </trkpt>
      <trkpt lat="48.68735" lon="2.4668">
        <ele>90</ele>
        <time>2025-12-29T12:36:19.607Z</time>
      </trkpt>
      <trkpt lat="48.68734" lon="2.4669">
        <ele>90</ele>
        <time>2025-12-29T12:36:24.214Z</time>
      </trkpt>
      <trkpt lat="48.68732" lon="2.46698">
        <ele>90</ele>
        <time>2025-12-29T12:36:28.216Z</time>
      </trkpt>
      <trkpt lat="48.6873" lon="2.46706">
        <ele>90</ele>
        <time>2025-12-29T12:36:32.754Z</time>
      </trkpt>
      <trkpt lat="48.68728" lon="2.46712">
        <ele>91</ele>
        <time>2025-12-29T12:36:36.895Z</time>
      </trkpt>
      <trkpt lat="48.68725" lon="2.46718">
        <ele>91</ele>
        <time>2025-12-29T12:36:41.156Z</time>
      </trkpt>
      <trkpt lat="48.68723" lon="2.46725">
        <ele>91</ele>
        <time>2025-12-29T12:36:45.830Z</time>
      </trkpt>
      <trkpt lat="48.68724" lon="2.46721">
        <ele>91</ele>
        <time>2025-12-29T12:37:49.895Z</time>
      </trkpt>
      <trkpt lat="48.68723" lon="2.4672">
        <ele>91</ele>
        <time>2025-12-29T12:37:53.895Z</time>
      </trkpt>
      <trkpt lat="48.68723" lon="2.4672">
        <ele>91</ele>
        <time>2025-12-29T12:37:57.895Z</time>
      </trkpt>
      <trkpt lat="48.68721" lon="2.46715">
        <ele>91</ele>
        <time>2025-12-29T12:38:02.769Z</time>
      </trkpt>
      <trkpt lat="48.68719" lon="2.46711">
        <ele>91</ele>
        <time>2025-12-29T12:38:06.895Z</time>
      </trkpt>
      <trkpt lat="48.68723" lon="2.46721">
        <ele>91</ele>
        <time>2025-12-29T12:41:33.895Z</time>
      </trkpt>
      <trkpt lat="48.68723" lon="2.46721">
        <ele>91</ele>
        <time>2025-12-29T12:41:38.895Z</time>
      </trkpt>
      <trkpt lat="48.68723" lon="2.46721">
        <ele>91</ele>
        <time>2025-12-29T12:41:42.895Z</time>
      </trkpt>
      <trkpt lat="48.68723" lon="2.46721">
        <ele>91</ele>
        <time>2025-12-29T12:41:47.895Z</time>
      </trkpt>
      <trkpt lat="48.68723" lon="2.46722">
        <ele>91</ele>
        <time>2025-12-29T12:41:51.895Z</time>
      </trkpt>
      <trkpt lat="48.68725" lon="2.46718">
        <ele>91</ele>
        <time>2025-12-29T13:05:33.895Z</time>
      </trkpt>
      <trkpt lat="48.68726" lon="2.46717">
        <ele>91</ele>
        <time>2025-12-29T13:05:41.895Z</time>
      </trkpt>
      <trkpt lat="48.6873" lon="2.46713">
        <ele>91</ele>
        <time>2025-12-29T13:05:46.895Z</time>
      </trkpt>
      <trkpt lat="48.68732" lon="2.46706">
        <ele>90</ele>
        <time>2025-12-29T13:05:51.846Z</time>
      </trkpt>
      <trkpt lat="48.68734" lon="2.467">
        <ele>90</ele>
        <time>2025-12-29T13:05:55.895Z</time>
      </trkpt>
      <trkpt lat="48.68733" lon="2.46695">
        <ele>90</ele>
        <time>2025-12-29T13:05:59.895Z</time>
      </trkpt>
      <trkpt lat="48.68737" lon="2.46686">
        <ele>90</ele>
        <time>2025-12-29T13:06:04.411Z</time>
      </trkpt>
      <trkpt lat="48.68739" lon="2.46682">
        <ele>90</ele>
        <time>2025-12-29T13:06:08.863Z</time>
      </trkpt>
      <trkpt lat="48.68742" lon="2.46674">
        <ele>89</ele>
        <time>2025-12-29T13:06:13.307Z</time>
      </trkpt>
      <trkpt lat="48.68744" lon="2.46668">
        <ele>89</ele>
        <time>2025-12-29T13:06:17.410Z</time>
      </trkpt>
      <trkpt lat="48.68749" lon="2.46665">
        <ele>89</ele>
        <time>2025-12-29T13:06:21.445Z</time>
      </trkpt>
      <trkpt lat="48.68753" lon="2.46666">
        <ele>89</ele>
        <time>2025-12-29T13:06:25.846Z</time>
      </trkpt>
      <trkpt lat="48.68757" lon="2.46669">
        <ele>89</ele>
        <time>2025-12-29T13:06:30.192Z</time>
      </trkpt>
      <trkpt lat="48.68762" lon="2.4667">
        <ele>89</ele>
        <time>2025-12-29T13:06:34.709Z</time>
      </trkpt>
      <trkpt lat="48.68767" lon="2.46672">
        <ele>89</ele>
        <time>2025-12-29T13:06:38.846Z</time>
      </trkpt>
      <trkpt lat="48.68772" lon="2.46674">
        <ele>89</ele>
        <time>2025-12-29T13:06:43.043Z</time>
      </trkpt>
      <trkpt lat="48.68776" lon="2.46676">
        <ele>89</ele>
        <time>2025-12-29T13:06:47.146Z</time>
      </trkpt>
      <trkpt lat="48.6878" lon="2.46679">
        <ele>89</ele>
        <time>2025-12-29T13:06:51.410Z</time>
      </trkpt>
      <trkpt lat="48.68786" lon="2.46681">
        <ele>91</ele>
        <time>2025-12-29T13:06:55.547Z</time>
      </trkpt>
      <trkpt lat="48.6879" lon="2.46682">
        <ele>91</ele>
        <time>2025-12-29T13:06:59.710Z</time>
      </trkpt>
      <trkpt lat="48.68797" lon="2.46684">
        <ele>92</ele>
        <time>2025-12-29T13:07:03.895Z</time>
      </trkpt>
      <trkpt lat="48.68801" lon="2.46684">
        <ele>92</ele>
        <time>2025-12-29T13:07:08.164Z</time>
      </trkpt>
      <trkpt lat="48.68806" lon="2.46687">
        <ele>92</ele>
        <time>2025-12-29T13:07:12.710Z</time>
      </trkpt>
      <trkpt lat="48.68811" lon="2.46689">
        <ele>92</ele>
        <time>2025-12-29T13:07:16.895Z</time>
      </trkpt>
      <trkpt lat="48.68816" lon="2.4669">
        <ele>92</ele>
        <time>2025-12-29T13:07:21.445Z</time>
      </trkpt>
      <trkpt lat="48.68821" lon="2.46695">
        <ele>92</ele>
        <time>2025-12-29T13:07:25.895Z</time>
      </trkpt>
      <trkpt lat="48.68827" lon="2.46694">
        <ele>92</ele>
        <time>2025-12-29T13:07:30.589Z</time>
      </trkpt>
      <trkpt lat="48.68832" lon="2.46694">
        <ele>92</ele>
        <time>2025-12-29T13:07:34.765Z</time>
      </trkpt>
      <trkpt lat="48.68837" lon="2.46696">
        <ele>92</ele>
        <time>2025-12-29T13:07:38.790Z</time>
      </trkpt>
      <trkpt lat="48.68841" lon="2.46701">
        <ele>92</ele>
        <time>2025-12-29T13:07:42.895Z</time>
      </trkpt>
      <trkpt lat="48.68845" lon="2.46706">
        <ele>92</ele>
        <time>2025-12-29T13:07:47.895Z</time>
      </trkpt>
      <trkpt lat="48.68847" lon="2.46708">
        <ele>93</ele>
        <time>2025-12-29T13:07:52.887Z</time>
      </trkpt>
      <trkpt lat="48.6885" lon="2.46702">
        <ele>93</ele>
        <time>2025-12-29T13:07:57.909Z</time>
      </trkpt>
      <trkpt lat="48.68857" lon="2.46699">
        <ele>93</ele>
        <time>2025-12-29T13:08:02.611Z</time>
      </trkpt>
      <trkpt lat="48.68865" lon="2.46702">
        <ele>93</ele>
        <time>2025-12-29T13:08:06.884Z</time>
      </trkpt>
      <trkpt lat="48.68871" lon="2.46709">
        <ele>94</ele>
        <time>2025-12-29T13:08:11.451Z</time>
      </trkpt>
      <trkpt lat="48.68875" lon="2.46714">
        <ele>94</ele>
        <time>2025-12-29T13:08:15.895Z</time>
      </trkpt>
      <trkpt lat="48.6888" lon="2.46717">
        <ele>93</ele>
        <time>2025-12-29T13:08:20.488Z</time>
      </trkpt>
      <trkpt lat="48.68884" lon="2.46721">
        <ele>93</ele>
        <time>2025-12-29T13:08:24.895Z</time>
      </trkpt>
      <trkpt lat="48.6889" lon="2.46725">
        <ele>93</ele>
        <time>2025-12-29T13:08:29.565Z</time>
      </trkpt>
      <trkpt lat="48.68895" lon="2.46728">
        <ele>93</ele>
        <time>2025-12-29T13:08:33.895Z</time>
      </trkpt>
      <trkpt lat="48.689" lon="2.46729">
        <ele>93</ele>
        <time>2025-12-29T13:08:37.895Z</time>
      </trkpt>
      <trkpt lat="48.68906" lon="2.4673">
        <ele>93</ele>
        <time>2025-12-29T13:08:42.235Z</time>
      </trkpt>
      <trkpt lat="48.68912" lon="2.46731">
        <ele>93</ele>
        <time>2025-12-29T13:08:46.895Z</time>
      </trkpt>
      <trkpt lat="48.68917" lon="2.46732">
        <ele>93</ele>
        <time>2025-12-29T13:08:51.447Z</time>
      </trkpt>
      <trkpt lat="48.68922" lon="2.46733">
        <ele>93</ele>
        <time>2025-12-29T13:08:55.645Z</time>
      </trkpt>
      <trkpt lat="48.68927" lon="2.46733">
        <ele>93</ele>
        <time>2025-12-29T13:08:59.670Z</time>
      </trkpt>
      <trkpt lat="48.68933" lon="2.46735">
        <ele>93</ele>
        <time>2025-12-29T13:09:04.189Z</time>
      </trkpt>
      <trkpt lat="48.68939" lon="2.46735">
        <ele>93</ele>
        <time>2025-12-29T13:09:08.924Z</time>
      </trkpt>
      <trkpt lat="48.68944" lon="2.46735">
        <ele>93</ele>
        <time>2025-12-29T13:09:13.395Z</time>
      </trkpt>
      <trkpt lat="48.6895" lon="2.46737">
        <ele>93</ele>
        <time>2025-12-29T13:09:17.529Z</time>
      </trkpt>
      <trkpt lat="48.68952" lon="2.46743">
        <ele>93</ele>
        <time>2025-12-29T13:09:21.895Z</time>
      </trkpt>
      <trkpt lat="48.68955" lon="2.4675">
        <ele>93</ele>
        <time>2025-12-29T13:09:26.006Z</time>
      </trkpt>
      <trkpt lat="48.68957" lon="2.46757">
        <ele>93</ele>
        <time>2025-12-29T13:09:30.350Z</time>
      </trkpt>
      <trkpt lat="48.68962" lon="2.46758">
        <ele>92</ele>
        <time>2025-12-29T13:09:34.443Z</time>
      </trkpt>
      <trkpt lat="48.68968" lon="2.4676">
        <ele>92</ele>
        <time>2025-12-29T13:09:38.895Z</time>
      </trkpt>
      <trkpt lat="48.68974" lon="2.46761">
        <ele>92</ele>
        <time>2025-12-29T13:09:43.109Z</time>
      </trkpt>
      <trkpt lat="48.68979" lon="2.46764">
        <ele>92</ele>
        <time>2025-12-29T13:09:47.895Z</time>
      </trkpt>
      <trkpt lat="48.68986" lon="2.46765">
        <ele>92</ele>
        <time>2025-12-29T13:09:52.269Z</time>
      </trkpt>
      <trkpt lat="48.68992" lon="2.46766">
        <ele>92</ele>
        <time>2025-12-29T13:09:56.895Z</time>
      </trkpt>
      <trkpt lat="48.68994" lon="2.46773">
        <ele>92</ele>
        <time>2025-12-29T13:10:01.429Z</time>
      </trkpt>
      <trkpt lat="48.68997" lon="2.46771">
        <ele>92</ele>
        <time>2025-12-29T13:10:05.895Z</time>
      </trkpt>
      <trkpt lat="48.69002" lon="2.46769">
        <ele>92</ele>
        <time>2025-12-29T13:10:10.342Z</time>
      </trkpt>
      <trkpt lat="48.69008" lon="2.46771">
        <ele>92</ele>
        <time>2025-12-29T13:10:14.828Z</time>
      </trkpt>
      <trkpt lat="48.69015" lon="2.46775">
        <ele>93</ele>
        <time>2025-12-29T13:10:19.306Z</time>
      </trkpt>
      <trkpt lat="48.69021" lon="2.46779">
        <ele>93</ele>
        <time>2025-12-29T13:10:23.813Z</time>
      </trkpt>
      <trkpt lat="48.69027" lon="2.46781">
        <ele>93</ele>
        <time>2025-12-29T13:10:28.287Z</time>
      </trkpt>
      <trkpt lat="48.69033" lon="2.46784">
        <ele>93</ele>
        <time>2025-12-29T13:10:32.749Z</time>
      </trkpt>
      <trkpt lat="48.69039" lon="2.46786">
        <ele>93</ele>
        <time>2025-12-29T13:10:37.167Z</time>
      </trkpt>
      <trkpt lat="48.69045" lon="2.46788">
        <ele>93</ele>
        <time>2025-12-29T13:10:41.567Z</time>
      </trkpt>
      <trkpt lat="48.69049" lon="2.46793">
        <ele>93</ele>
        <time>2025-12-29T13:10:45.895Z</time>
      </trkpt>
      <trkpt lat="48.69055" lon="2.46794">
        <ele>93</ele>
        <time>2025-12-29T13:10:50.466Z</time>
      </trkpt>
      <trkpt lat="48.69061" lon="2.46795">
        <ele>93</ele>
        <time>2025-12-29T13:10:54.646Z</time>
      </trkpt>
      <trkpt lat="48.69066" lon="2.46797">
        <ele>93</ele>
        <time>2025-12-29T13:10:58.895Z</time>
      </trkpt>
      <trkpt lat="48.69074" lon="2.46796">
        <ele>91</ele>
        <time>2025-12-29T13:11:20.895Z</time>
      </trkpt>
      <trkpt lat="48.69075" lon="2.46801">
        <ele>91</ele>
        <time>2025-12-29T13:11:25.708Z</time>
      </trkpt>
      <trkpt lat="48.6908" lon="2.46808">
        <ele>91</ele>
        <time>2025-12-29T13:11:29.784Z</time>
      </trkpt>
      <trkpt lat="48.69083" lon="2.46814">
        <ele>91</ele>
        <time>2025-12-29T13:11:33.895Z</time>
      </trkpt>
      <trkpt lat="48.69084" lon="2.46817">
        <ele>91</ele>
        <time>2025-12-29T13:11:38.206Z</time>
      </trkpt>
      <trkpt lat="48.6909" lon="2.4682">
        <ele>92</ele>
        <time>2025-12-29T13:11:42.724Z</time>
      </trkpt>
      <trkpt lat="48.69091" lon="2.4682">
        <ele>92</ele>
        <time>2025-12-29T13:11:46.749Z</time>
      </trkpt>
      <trkpt lat="48.69077" lon="2.4683">
        <ele>92</ele>
        <time>2025-12-29T13:11:51.244Z</time>
      </trkpt>
      <trkpt lat="48.69072" lon="2.46836">
        <ele>92</ele>
        <time>2025-12-29T13:11:55.287Z</time>
      </trkpt>
      <trkpt lat="48.69066" lon="2.46843">
        <ele>92</ele>
        <time>2025-12-29T13:11:59.884Z</time>
      </trkpt>
      <trkpt lat="48.69062" lon="2.46848">
        <ele>92</ele>
        <time>2025-12-29T13:12:03.895Z</time>
      </trkpt>
      <trkpt lat="48.69057" lon="2.46855">
        <ele>92</ele>
        <time>2025-12-29T13:12:08.525Z</time>
      </trkpt>
      <trkpt lat="48.69053" lon="2.46861">
        <ele>92</ele>
        <time>2025-12-29T13:12:12.524Z</time>
      </trkpt>
      <trkpt lat="48.69051" lon="2.4687">
        <ele>92</ele>
        <time>2025-12-29T13:12:17.102Z</time>
      </trkpt>
      <trkpt lat="48.69049" lon="2.46877">
        <ele>91</ele>
        <time>2025-12-29T13:12:21.128Z</time>
      </trkpt>
      <trkpt lat="48.69048" lon="2.46886">
        <ele>91</ele>
        <time>2025-12-29T13:12:25.683Z</time>
      </trkpt>
      <trkpt lat="48.69052" lon="2.46891">
        <ele>91</ele>
        <time>2025-12-29T13:12:29.657Z</time>
      </trkpt>
      <trkpt lat="48.69055" lon="2.46898">
        <ele>91</ele>
        <time>2025-12-29T13:12:33.827Z</time>
      </trkpt>
      <trkpt lat="48.69056" lon="2.46905">
        <ele>91</ele>
        <time>2025-12-29T13:12:37.895Z</time>
      </trkpt>
      <trkpt lat="48.69055" lon="2.46913">
        <ele>91</ele>
        <time>2025-12-29T13:12:41.939Z</time>
      </trkpt>
      <trkpt lat="48.69054" lon="2.46921">
        <ele>91</ele>
        <time>2025-12-29T13:12:46.143Z</time>
      </trkpt>
      <trkpt lat="48.69054" lon="2.46929">
        <ele>91</ele>
        <time>2025-12-29T13:12:50.245Z</time>
      </trkpt>
      <trkpt lat="48.69055" lon="2.46937">
        <ele>91</ele>
        <time>2025-12-29T13:12:54.449Z</time>
      </trkpt>
      <trkpt lat="48.69054" lon="2.46946">
        <ele>91</ele>
        <time>2025-12-29T13:12:58.895Z</time>
      </trkpt>
      <trkpt lat="48.69053" lon="2.46953">
        <ele>91</ele>
        <time>2025-12-29T13:13:03.073Z</time>
      </trkpt>
      <trkpt lat="48.69053" lon="2.46961">
        <ele>92</ele>
        <time>2025-12-29T13:13:07.234Z</time>
      </trkpt>
      <trkpt lat="48.69052" lon="2.46969">
        <ele>92</ele>
        <time>2025-12-29T13:13:11.895Z</time>
      </trkpt>
      <trkpt lat="48.69055" lon="2.46978">
        <ele>92</ele>
        <time>2025-12-29T13:13:16.590Z</time>
      </trkpt>
      <trkpt lat="48.69056" lon="2.46985">
        <ele>92</ele>
        <time>2025-12-29T13:13:20.590Z</time>
      </trkpt>
      <trkpt lat="48.69058" lon="2.46993">
        <ele>91</ele>
        <time>2025-12-29T13:13:25.187Z</time>
      </trkpt>
      <trkpt lat="48.69058" lon="2.47002">
        <ele>91</ele>
        <time>2025-12-29T13:13:29.895Z</time>
      </trkpt>
      <trkpt lat="48.69056" lon="2.47011">
        <ele>91</ele>
        <time>2025-12-29T13:13:34.526Z</time>
      </trkpt>
      <trkpt lat="48.69055" lon="2.47018">
        <ele>90</ele>
        <time>2025-12-29T13:13:38.585Z</time>
      </trkpt>
      <trkpt lat="48.69056" lon="2.47025">
        <ele>90</ele>
        <time>2025-12-29T13:13:42.909Z</time>
      </trkpt>
      <trkpt lat="48.69057" lon="2.47033">
        <ele>90</ele>
        <time>2025-12-29T13:13:47.285Z</time>
      </trkpt>
      <trkpt lat="48.69055" lon="2.47039">
        <ele>90</ele>
        <time>2025-12-29T13:13:51.309Z</time>
      </trkpt>
      <trkpt lat="48.69055" lon="2.47048">
        <ele>90</ele>
        <time>2025-12-29T13:13:55.895Z</time>
      </trkpt>
      <trkpt lat="48.6906" lon="2.47054">
        <ele>90</ele>
        <time>2025-12-29T13:14:00.563Z</time>
      </trkpt>
      <trkpt lat="48.69065" lon="2.4706">
        <ele>90</ele>
        <time>2025-12-29T13:14:04.654Z</time>
      </trkpt>
      <trkpt lat="48.69069" lon="2.47067">
        <ele>90</ele>
        <time>2025-12-29T13:14:09.185Z</time>
      </trkpt>
      <trkpt lat="48.69073" lon="2.47072">
        <ele>87</ele>
        <time>2025-12-29T13:14:13.895Z</time>
      </trkpt>
      <trkpt lat="48.69077" lon="2.47074">
        <ele>87</ele>
        <time>2025-12-29T13:14:18.766Z</time>
      </trkpt>
      <trkpt lat="48.69083" lon="2.47074">
        <ele>87</ele>
        <time>2025-12-29T13:14:22.895Z</time>
      </trkpt>
      <trkpt lat="48.69088" lon="2.47076">
        <ele>87</ele>
        <time>2025-12-29T13:14:27.895Z</time>
      </trkpt>
      <trkpt lat="48.69092" lon="2.4708">
        <ele>87</ele>
        <time>2025-12-29T13:14:32.349Z</time>
      </trkpt>
      <trkpt lat="48.69096" lon="2.47085">
        <ele>87</ele>
        <time>2025-12-29T13:14:36.443Z</time>
      </trkpt>
      <trkpt lat="48.69099" lon="2.47092">
        <ele>85</ele>
        <time>2025-12-29T13:14:40.662Z</time>
      </trkpt>
      <trkpt lat="48.69103" lon="2.47098">
        <ele>84</ele>
        <time>2025-12-29T13:14:45.048Z</time>
      </trkpt>
      <trkpt lat="48.69108" lon="2.47101">
        <ele>84</ele>
        <time>2025-12-29T13:14:49.850Z</time>
      </trkpt>
      <trkpt lat="48.69113" lon="2.47105">
        <ele>84</ele>
        <time>2025-12-29T13:14:53.866Z</time>
      </trkpt>
      <trkpt lat="48.69119" lon="2.47109">
        <ele>84</ele>
        <time>2025-12-29T13:14:58.895Z</time>
      </trkpt>
      <trkpt lat="48.69123" lon="2.47115">
        <ele>84</ele>
        <time>2025-12-29T13:15:03.150Z</time>
      </trkpt>
      <trkpt lat="48.69124" lon="2.47123">
        <ele>84</ele>
        <time>2025-12-29T13:15:07.209Z</time>
      </trkpt>
      <trkpt lat="48.69123" lon="2.47133">
        <ele>84</ele>
        <time>2025-12-29T13:15:11.746Z</time>
      </trkpt>
      <trkpt lat="48.69121" lon="2.47141">
        <ele>84</ele>
        <time>2025-12-29T13:15:15.833Z</time>
      </trkpt>
      <trkpt lat="48.6912" lon="2.47149">
        <ele>84</ele>
        <time>2025-12-29T13:15:19.895Z</time>
      </trkpt>
      <trkpt lat="48.69122" lon="2.47156">
        <ele>84</ele>
        <time>2025-12-29T13:15:23.895Z</time>
      </trkpt>
      <trkpt lat="48.69124" lon="2.47164">
        <ele>84</ele>
        <time>2025-12-29T13:15:28.685Z</time>
      </trkpt>
      <trkpt lat="48.69127" lon="2.4717">
        <ele>84</ele>
        <time>2025-12-29T13:15:32.895Z</time>
      </trkpt>
      <trkpt lat="48.69127" lon="2.47178">
        <ele>84</ele>
        <time>2025-12-29T13:15:37.147Z</time>
      </trkpt>
      <trkpt lat="48.69127" lon="2.47186">
        <ele>85</ele>
        <time>2025-12-29T13:15:41.625Z</time>
      </trkpt>
      <trkpt lat="48.69127" lon="2.47193">
        <ele>85</ele>
        <time>2025-12-29T13:15:45.807Z</time>
      </trkpt>
      <trkpt lat="48.69127" lon="2.472">
        <ele>85</ele>
        <time>2025-12-29T13:15:49.889Z</time>
      </trkpt>
      <trkpt lat="48.69127" lon="2.47207">
        <ele>85</ele>
        <time>2025-12-29T13:15:53.895Z</time>
      </trkpt>
      <trkpt lat="48.69129" lon="2.47217">
        <ele>88</ele>
        <time>2025-12-29T13:15:58.690Z</time>
      </trkpt>
      <trkpt lat="48.6913" lon="2.47225">
        <ele>88</ele>
        <time>2025-12-29T13:16:03.129Z</time>
      </trkpt>
      <trkpt lat="48.69134" lon="2.47231">
        <ele>88</ele>
        <time>2025-12-29T13:16:07.828Z</time>
      </trkpt>
      <trkpt lat="48.69138" lon="2.47237">
        <ele>89</ele>
        <time>2025-12-29T13:16:12.527Z</time>
      </trkpt>
      <trkpt lat="48.69141" lon="2.47241">
        <ele>89</ele>
        <time>2025-12-29T13:16:16.690Z</time>
      </trkpt>
      <trkpt lat="48.69145" lon="2.47246">
        <ele>89</ele>
        <time>2025-12-29T13:16:20.895Z</time>
      </trkpt>
      <trkpt lat="48.6915" lon="2.47249">
        <ele>89</ele>
        <time>2025-12-29T13:16:25.448Z</time>
      </trkpt>
      <trkpt lat="48.69155" lon="2.47253">
        <ele>90</ele>
        <time>2025-12-29T13:16:29.609Z</time>
      </trkpt>
      <trkpt lat="48.6916" lon="2.47257">
        <ele>90</ele>
        <time>2025-12-29T13:16:33.712Z</time>
      </trkpt>
      <trkpt lat="48.69164" lon="2.47261">
        <ele>90</ele>
        <time>2025-12-29T13:16:37.806Z</time>
      </trkpt>
      <trkpt lat="48.69169" lon="2.47265">
        <ele>90</ele>
        <time>2025-12-29T13:16:42.426Z</time>
      </trkpt>
      <trkpt lat="48.69174" lon="2.47268">
        <ele>90</ele>
        <time>2025-12-29T13:16:46.470Z</time>
      </trkpt>
      <trkpt lat="48.69178" lon="2.47272">
        <ele>90</ele>
        <time>2025-12-29T13:16:50.895Z</time>
      </trkpt>
      <trkpt lat="48.69181" lon="2.47278">
        <ele>92</ele>
        <time>2025-12-29T13:16:55.107Z</time>
      </trkpt>
      <trkpt lat="48.69183" lon="2.47285">
        <ele>92</ele>
        <time>2025-12-29T13:16:59.150Z</time>
      </trkpt>
      <trkpt lat="48.69185" lon="2.47291">
        <ele>92</ele>
        <time>2025-12-29T13:17:03.150Z</time>
      </trkpt>
      <trkpt lat="48.69188" lon="2.47297">
        <ele>92</ele>
        <time>2025-12-29T13:17:07.286Z</time>
      </trkpt>
      <trkpt lat="48.69192" lon="2.47301">
        <ele>92</ele>
        <time>2025-12-29T13:17:11.329Z</time>
      </trkpt>
      <trkpt lat="48.69197" lon="2.47307">
        <ele>92</ele>
        <time>2025-12-29T13:17:15.895Z</time>
      </trkpt>
      <trkpt lat="48.69202" lon="2.47309">
        <ele>92</ele>
        <time>2025-12-29T13:17:19.895Z</time>
      </trkpt>
      <trkpt lat="48.69207" lon="2.47311">
        <ele>92</ele>
        <time>2025-12-29T13:17:24.249Z</time>
      </trkpt>
      <trkpt lat="48.69212" lon="2.47312">
        <ele>94</ele>
        <time>2025-12-29T13:17:28.768Z</time>
      </trkpt>
      <trkpt lat="48.69217" lon="2.47314">
        <ele>94</ele>
        <time>2025-12-29T13:17:32.784Z</time>
      </trkpt>
      <trkpt lat="48.69222" lon="2.47317">
        <ele>94</ele>
        <time>2025-12-29T13:17:37.230Z</time>
      </trkpt>
      <trkpt lat="48.69227" lon="2.47321">
        <ele>94</ele>
        <time>2025-12-29T13:17:41.748Z</time>
      </trkpt>
      <trkpt lat="48.69231" lon="2.47325">
        <ele>94</ele>
        <time>2025-12-29T13:17:45.790Z</time>
      </trkpt>
      <trkpt lat="48.69235" lon="2.47328">
        <ele>94</ele>
        <time>2025-12-29T13:17:49.850Z</time>
      </trkpt>
      <trkpt lat="48.69241" lon="2.4733">
        <ele>94</ele>
        <time>2025-12-29T13:17:54.592Z</time>
      </trkpt>
      <trkpt lat="48.69246" lon="2.47334">
        <ele>94</ele>
        <time>2025-12-29T13:17:58.829Z</time>
      </trkpt>
      <trkpt lat="48.69249" lon="2.47338">
        <ele>94</ele>
        <time>2025-12-29T13:18:02.905Z</time>
      </trkpt>
      <trkpt lat="48.69254" lon="2.47343">
        <ele>94</ele>
        <time>2025-12-29T13:18:07.204Z</time>
      </trkpt>
      <trkpt lat="48.69258" lon="2.47346">
        <ele>94</ele>
        <time>2025-12-29T13:18:11.767Z</time>
      </trkpt>
      <trkpt lat="48.69263" lon="2.47348">
        <ele>94</ele>
        <time>2025-12-29T13:18:16.150Z</time>
      </trkpt>
      <trkpt lat="48.69268" lon="2.47352">
        <ele>94</ele>
        <time>2025-12-29T13:18:20.895Z</time>
      </trkpt>
      <trkpt lat="48.69273" lon="2.47355">
        <ele>94</ele>
        <time>2025-12-29T13:18:25.130Z</time>
      </trkpt>
      <trkpt lat="48.69279" lon="2.47358">
        <ele>94</ele>
        <time>2025-12-29T13:18:29.427Z</time>
      </trkpt>
      <trkpt lat="48.69284" lon="2.47358">
        <ele>94</ele>
        <time>2025-12-29T13:18:33.811Z</time>
      </trkpt>
      <trkpt lat="48.69289" lon="2.47358">
        <ele>94</ele>
        <time>2025-12-29T13:18:38.228Z</time>
      </trkpt>
      <trkpt lat="48.69294" lon="2.47357">
        <ele>96</ele>
        <time>2025-12-29T13:18:42.747Z</time>
      </trkpt>
      <trkpt lat="48.69299" lon="2.47355">
        <ele>96</ele>
        <time>2025-12-29T13:18:47.046Z</time>
      </trkpt>
      <trkpt lat="48.69304" lon="2.47353">
        <ele>96</ele>
        <time>2025-12-29T13:18:51.489Z</time>
      </trkpt>
      <trkpt lat="48.69309" lon="2.4735">
        <ele>96</ele>
        <time>2025-12-29T13:18:55.898Z</time>
      </trkpt>
      <trkpt lat="48.69314" lon="2.47347">
        <ele>95</ele>
        <time>2025-12-29T13:19:00.445Z</time>
      </trkpt>
      <trkpt lat="48.69319" lon="2.47343">
        <ele>95</ele>
        <time>2025-12-29T13:19:04.902Z</time>
      </trkpt>
      <trkpt lat="48.69324" lon="2.4734">
        <ele>95</ele>
        <time>2025-12-29T13:19:09.764Z</time>
      </trkpt>
      <trkpt lat="48.69329" lon="2.47343">
        <ele>95</ele>
        <time>2025-12-29T13:19:13.823Z</time>
      </trkpt>
      <trkpt lat="48.69331" lon="2.47349">
        <ele>96</ele>
        <time>2025-12-29T13:19:17.847Z</time>
      </trkpt>
      <trkpt lat="48.69333" lon="2.47357">
        <ele>96</ele>
        <time>2025-12-29T13:19:21.895Z</time>
      </trkpt>
      <trkpt lat="48.69334" lon="2.47366">
        <ele>96</ele>
        <time>2025-12-29T13:19:26.895Z</time>
      </trkpt>
      <trkpt lat="48.69333" lon="2.47375">
        <ele>96</ele>
        <time>2025-12-29T13:19:31.169Z</time>
      </trkpt>
      <trkpt lat="48.69336" lon="2.47381">
        <ele>95</ele>
        <time>2025-12-29T13:19:35.895Z</time>
      </trkpt>
      <trkpt lat="48.69333" lon="2.47391">
        <ele>95</ele>
        <time>2025-12-29T13:19:40.895Z</time>
      </trkpt>
      <trkpt lat="48.69332" lon="2.47398">
        <ele>95</ele>
        <time>2025-12-29T13:19:45.120Z</time>
      </trkpt>
      <trkpt lat="48.69331" lon="2.47406">
        <ele>94</ele>
        <time>2025-12-29T13:19:49.469Z</time>
      </trkpt>
      <trkpt lat="48.6933" lon="2.47414">
        <ele>94</ele>
        <time>2025-12-29T13:19:53.869Z</time>
      </trkpt>
      <trkpt lat="48.69331" lon="2.47423">
        <ele>94</ele>
        <time>2025-12-29T13:19:58.247Z</time>
      </trkpt>
      <trkpt lat="48.69334" lon="2.47431">
        <ele>94</ele>
        <time>2025-12-29T13:20:02.627Z</time>
      </trkpt>
      <trkpt lat="48.69336" lon="2.47439">
        <ele>94</ele>
        <time>2025-12-29T13:20:06.895Z</time>
      </trkpt>
      <trkpt lat="48.69339" lon="2.47446">
        <ele>94</ele>
        <time>2025-12-29T13:20:11.684Z</time>
      </trkpt>
      <trkpt lat="48.69342" lon="2.47452">
        <ele>94</ele>
        <time>2025-12-29T13:20:15.895Z</time>
      </trkpt>
      <trkpt lat="48.69344" lon="2.47459">
        <ele>94</ele>
        <time>2025-12-29T13:20:20.247Z</time>
      </trkpt>
      <trkpt lat="48.69347" lon="2.47467">
        <ele>94</ele>
        <time>2025-12-29T13:20:24.629Z</time>
      </trkpt>
      <trkpt lat="48.69347" lon="2.47476">
        <ele>94</ele>
        <time>2025-12-29T13:20:29.626Z</time>
      </trkpt>
      <trkpt lat="48.69346" lon="2.47482">
        <ele>94</ele>
        <time>2025-12-29T13:20:33.890Z</time>
      </trkpt>
      <trkpt lat="48.69344" lon="2.47488">
        <ele>94</ele>
        <time>2025-12-29T13:20:38.349Z</time>
      </trkpt>
      <trkpt lat="48.69343" lon="2.47495">
        <ele>94</ele>
        <time>2025-12-29T13:20:42.409Z</time>
      </trkpt>
      <trkpt lat="48.69342" lon="2.47503">
        <ele>94</ele>
        <time>2025-12-29T13:20:46.826Z</time>
      </trkpt>
      <trkpt lat="48.69341" lon="2.4751">
        <ele>94</ele>
        <time>2025-12-29T13:20:50.895Z</time>
      </trkpt>
      <trkpt lat="48.6934" lon="2.47518">
        <ele>93</ele>
        <time>2025-12-29T13:20:54.895Z</time>
      </trkpt>
      <trkpt lat="48.69339" lon="2.47526">
        <ele>93</ele>
        <time>2025-12-29T13:20:59.729Z</time>
      </trkpt>
      <trkpt lat="48.69338" lon="2.47533">
        <ele>93</ele>
        <time>2025-12-29T13:21:03.895Z</time>
      </trkpt>
      <trkpt lat="48.69338" lon="2.4754">
        <ele>93</ele>
        <time>2025-12-29T13:21:08.069Z</time>
      </trkpt>
      <trkpt lat="48.69338" lon="2.47548">
        <ele>92</ele>
        <time>2025-12-29T13:21:12.726Z</time>
      </trkpt>
      <trkpt lat="48.69337" lon="2.47556">
        <ele>92</ele>
        <time>2025-12-29T13:21:16.826Z</time>
      </trkpt>
      <trkpt lat="48.69333" lon="2.47561">
        <ele>92</ele>
        <time>2025-12-29T13:21:20.886Z</time>
      </trkpt>
      <trkpt lat="48.69328" lon="2.47564">
        <ele>92</ele>
        <time>2025-12-29T13:21:24.996Z</time>
      </trkpt>
      <trkpt lat="48.69324" lon="2.47569">
        <ele>92</ele>
        <time>2025-12-29T13:21:29.567Z</time>
      </trkpt>
      <trkpt lat="48.6932" lon="2.47575">
        <ele>92</ele>
        <time>2025-12-29T13:21:33.728Z</time>
      </trkpt>
      <trkpt lat="48.69317" lon="2.47581">
        <ele>91</ele>
        <time>2025-12-29T13:21:38.171Z</time>
      </trkpt>
      <trkpt lat="48.69316" lon="2.47589">
        <ele>91</ele>
        <time>2025-12-29T13:21:42.528Z</time>
      </trkpt>
      <trkpt lat="48.69315" lon="2.47598">
        <ele>91</ele>
        <time>2025-12-29T13:21:46.895Z</time>
      </trkpt>
      <trkpt lat="48.69312" lon="2.47603">
        <ele>91</ele>
        <time>2025-12-29T13:21:51.005Z</time>
      </trkpt>
      <trkpt lat="48.69309" lon="2.47609">
        <ele>91</ele>
        <time>2025-12-29T13:21:55.507Z</time>
      </trkpt>
      <trkpt lat="48.69305" lon="2.47614">
        <ele>91</ele>
        <time>2025-12-29T13:21:59.627Z</time>
      </trkpt>
      <trkpt lat="48.69301" lon="2.47621">
        <ele>91</ele>
        <time>2025-12-29T13:22:04.128Z</time>
      </trkpt>
      <trkpt lat="48.69297" lon="2.47627">
        <ele>92</ele>
        <time>2025-12-29T13:22:08.684Z</time>
      </trkpt>
      <trkpt lat="48.69297" lon="2.47635">
        <ele>92</ele>
        <time>2025-12-29T13:22:12.895Z</time>
      </trkpt>
      <trkpt lat="48.69297" lon="2.47644">
        <ele>92</ele>
        <time>2025-12-29T13:22:17.303Z</time>
      </trkpt>
      <trkpt lat="48.69295" lon="2.47652">
        <ele>92</ele>
        <time>2025-12-29T13:22:21.610Z</time>
      </trkpt>
      <trkpt lat="48.69293" lon="2.47659">
        <ele>92</ele>
        <time>2025-12-29T13:22:25.895Z</time>
      </trkpt>
      <trkpt lat="48.69291" lon="2.47665">
        <ele>92</ele>
        <time>2025-12-29T13:22:29.895Z</time>
      </trkpt>
      <trkpt lat="48.69289" lon="2.47674">
        <ele>92</ele>
        <time>2025-12-29T13:22:34.588Z</time>
      </trkpt>
      <trkpt lat="48.6929" lon="2.47683">
        <ele>92</ele>
        <time>2025-12-29T13:22:39.126Z</time>
      </trkpt>
      <trkpt lat="48.69292" lon="2.47691">
        <ele>92</ele>
        <time>2025-12-29T13:22:43.613Z</time>
      </trkpt>
      <trkpt lat="48.69293" lon="2.47698">
        <ele>92</ele>
        <time>2025-12-29T13:22:47.849Z</time>
      </trkpt>
      <trkpt lat="48.69294" lon="2.47707">
        <ele>92</ele>
        <time>2025-12-29T13:22:52.266Z</time>
      </trkpt>
      <trkpt lat="48.69294" lon="2.47714">
        <ele>91</ele>
        <time>2025-12-29T13:22:56.307Z</time>
      </trkpt>
      <trkpt lat="48.69294" lon="2.47721">
        <ele>91</ele>
        <time>2025-12-29T13:23:00.383Z</time>
      </trkpt>
      <trkpt lat="48.69296" lon="2.47728">
        <ele>91</ele>
        <time>2025-12-29T13:23:04.502Z</time>
      </trkpt>
      <trkpt lat="48.69297" lon="2.47735">
        <ele>91</ele>
        <time>2025-12-29T13:23:08.605Z</time>
      </trkpt>
      <trkpt lat="48.69301" lon="2.47741">
        <ele>90</ele>
        <time>2025-12-29T13:23:12.895Z</time>
      </trkpt>
      <trkpt lat="48.69302" lon="2.47743">
        <ele>90</ele>
        <time>2025-12-29T13:23:30.895Z</time>
      </trkpt>
      <trkpt lat="48.69303" lon="2.47744">
        <ele>90</ele>
        <time>2025-12-29T13:23:35.895Z</time>
      </trkpt>
      <trkpt lat="48.69305" lon="2.47746">
        <ele>90</ele>
        <time>2025-12-29T13:23:40.531Z</time>
      </trkpt>
      <trkpt lat="48.69309" lon="2.47752">
        <ele>90</ele>
        <time>2025-12-29T13:23:44.895Z</time>
      </trkpt>
      <trkpt lat="48.69311" lon="2.47759">
        <ele>90</ele>
        <time>2025-12-29T13:23:49.467Z</time>
      </trkpt>
      <trkpt lat="48.69313" lon="2.47765">
        <ele>88</ele>
        <time>2025-12-29T13:23:53.867Z</time>
      </trkpt>
      <trkpt lat="48.69315" lon="2.47772">
        <ele>88</ele>
        <time>2025-12-29T13:23:58.313Z</time>
      </trkpt>
      <trkpt lat="48.69316" lon="2.4778">
        <ele>88</ele>
        <time>2025-12-29T13:24:02.327Z</time>
      </trkpt>
      <trkpt lat="48.69315" lon="2.47788">
        <ele>88</ele>
        <time>2025-12-29T13:24:06.786Z</time>
      </trkpt>
      <trkpt lat="48.69313" lon="2.47795">
        <ele>87</ele>
        <time>2025-12-29T13:24:10.895Z</time>
      </trkpt>
      <trkpt lat="48.69307" lon="2.478">
        <ele>87</ele>
        <time>2025-12-29T13:24:15.571Z</time>
      </trkpt>
      <trkpt lat="48.69306" lon="2.47809">
        <ele>87</ele>
        <time>2025-12-29T13:24:20.123Z</time>
      </trkpt>
      <trkpt lat="48.69305" lon="2.47817">
        <ele>87</ele>
        <time>2025-12-29T13:24:24.548Z</time>
      </trkpt>
      <trkpt lat="48.69302" lon="2.4783">
        <ele>85</ele>
        <time>2025-12-29T13:24:46.895Z</time>
      </trkpt>
      <trkpt lat="48.69302" lon="2.47831">
        <ele>85</ele>
        <time>2025-12-29T13:24:51.895Z</time>
      </trkpt>
      <trkpt lat="48.69302" lon="2.47832">
        <ele>85</ele>
        <time>2025-12-29T13:24:56.808Z</time>
      </trkpt>
      <trkpt lat="48.69306" lon="2.47838">
        <ele>85</ele>
        <time>2025-12-29T13:25:01.463Z</time>
      </trkpt>
      <trkpt lat="48.69309" lon="2.47841">
        <ele>85</ele>
        <time>2025-12-29T13:25:05.895Z</time>
      </trkpt>
      <trkpt lat="48.6931" lon="2.47841">
        <ele>85</ele>
        <time>2025-12-29T13:25:15.895Z</time>
      </trkpt>
      <trkpt lat="48.6931" lon="2.47841">
        <ele>85</ele>
        <time>2025-12-29T13:25:20.505Z</time>
      </trkpt>
      <trkpt lat="48.69312" lon="2.47842">
        <ele>85</ele>
        <time>2025-12-29T13:25:24.895Z</time>
      </trkpt>
      <trkpt lat="48.69317" lon="2.47838">
        <ele>85</ele>
        <time>2025-12-29T13:25:29.152Z</time>
      </trkpt>
      <trkpt lat="48.69321" lon="2.4784">
        <ele>83</ele>
        <time>2025-12-29T13:25:33.270Z</time>
      </trkpt>
      <trkpt lat="48.69326" lon="2.47846">
        <ele>83</ele>
        <time>2025-12-29T13:25:37.824Z</time>
      </trkpt>
      <trkpt lat="48.6933" lon="2.47853">
        <ele>83</ele>
        <time>2025-12-29T13:25:42.164Z</time>
      </trkpt>
      <trkpt lat="48.69335" lon="2.47859">
        <ele>83</ele>
        <time>2025-12-29T13:25:46.785Z</time>
      </trkpt>
      <trkpt lat="48.69338" lon="2.47866">
        <ele>83</ele>
        <time>2025-12-29T13:25:51.229Z</time>
      </trkpt>
      <trkpt lat="48.6934" lon="2.47873">
        <ele>83</ele>
        <time>2025-12-29T13:25:55.484Z</time>
      </trkpt>
      <trkpt lat="48.69344" lon="2.47876">
        <ele>83</ele>
        <time>2025-12-29T13:25:59.687Z</time>
      </trkpt>
      <trkpt lat="48.69347" lon="2.47885">
        <ele>83</ele>
        <time>2025-12-29T13:26:04.087Z</time>
      </trkpt>
      <trkpt lat="48.6935" lon="2.47891">
        <ele>82</ele>
        <time>2025-12-29T13:26:08.223Z</time>
      </trkpt>
      <trkpt lat="48.69353" lon="2.47897">
        <ele>82</ele>
        <time>2025-12-29T13:26:12.651Z</time>
      </trkpt>
      <trkpt lat="48.69354" lon="2.47904">
        <ele>82</ele>
        <time>2025-12-29T13:26:16.815Z</time>
      </trkpt>
      <trkpt lat="48.69357" lon="2.47911">
        <ele>82</ele>
        <time>2025-12-29T13:26:21.109Z</time>
      </trkpt>
      <trkpt lat="48.69362" lon="2.47917">
        <ele>82</ele>
        <time>2025-12-29T13:26:25.465Z</time>
      </trkpt>
      <trkpt lat="48.69366" lon="2.47924">
        <ele>82</ele>
        <time>2025-12-29T13:26:29.895Z</time>
      </trkpt>
      <trkpt lat="48.69369" lon="2.47932">
        <ele>83</ele>
        <time>2025-12-29T13:26:34.309Z</time>
      </trkpt>
      <trkpt lat="48.69373" lon="2.4794">
        <ele>83</ele>
        <time>2025-12-29T13:26:38.895Z</time>
      </trkpt>
      <trkpt lat="48.69378" lon="2.47946">
        <ele>83</ele>
        <time>2025-12-29T13:26:43.629Z</time>
      </trkpt>
      <trkpt lat="48.69382" lon="2.47952">
        <ele>83</ele>
        <time>2025-12-29T13:26:47.868Z</time>
      </trkpt>
      <trkpt lat="48.69387" lon="2.4796">
        <ele>83</ele>
        <time>2025-12-29T13:26:52.429Z</time>
      </trkpt>
      <trkpt lat="48.6939" lon="2.47965">
        <ele>83</ele>
        <time>2025-12-29T13:26:56.531Z</time>
      </trkpt>
      <trkpt lat="48.69393" lon="2.47969">
        <ele>83</ele>
        <time>2025-12-29T13:27:00.895Z</time>
      </trkpt>
      <trkpt lat="48.69396" lon="2.47977">
        <ele>83</ele>
        <time>2025-12-29T13:27:05.587Z</time>
      </trkpt>
      <trkpt lat="48.69399" lon="2.47983">
        <ele>83</ele>
        <time>2025-12-29T13:27:09.663Z</time>
      </trkpt>
      <trkpt lat="48.69402" lon="2.4799">
        <ele>84</ele>
        <time>2025-12-29T13:27:13.730Z</time>
      </trkpt>
      <trkpt lat="48.69405" lon="2.47997">
        <ele>84</ele>
        <time>2025-12-29T13:27:18.327Z</time>
      </trkpt>
      <trkpt lat="48.69413" lon="2.48013">
        <ele>84</ele>
        <time>2025-12-29T13:27:39.107Z</time>
      </trkpt>
      <trkpt lat="48.69413" lon="2.48019">
        <ele>84</ele>
        <time>2025-12-29T13:27:43.370Z</time>
      </trkpt>
      <trkpt lat="48.69416" lon="2.48025">
        <ele>84</ele>
        <time>2025-12-29T13:27:47.936Z</time>
      </trkpt>
      <trkpt lat="48.69426" lon="2.48023">
        <ele>84</ele>
        <time>2025-12-29T13:27:52.145Z</time>
      </trkpt>
      <trkpt lat="48.69432" lon="2.48028">
        <ele>84</ele>
        <time>2025-12-29T13:27:56.596Z</time>
      </trkpt>
      <trkpt lat="48.69436" lon="2.48033">
        <ele>84</ele>
        <time>2025-12-29T13:28:00.895Z</time>
      </trkpt>
      <trkpt lat="48.69438" lon="2.4804">
        <ele>84</ele>
        <time>2025-12-29T13:28:05.303Z</time>
      </trkpt>
      <trkpt lat="48.6944" lon="2.4805">
        <ele>84</ele>
        <time>2025-12-29T13:28:09.895Z</time>
      </trkpt>
      <trkpt lat="48.69444" lon="2.48058">
        <ele>84</ele>
        <time>2025-12-29T13:28:14.809Z</time>
      </trkpt>
      <trkpt lat="48.69449" lon="2.48067">
        <ele>84</ele>
        <time>2025-12-29T13:28:19.833Z</time>
      </trkpt>
      <trkpt lat="48.69453" lon="2.48074">
        <ele>84</ele>
        <time>2025-12-29T13:28:24.310Z</time>
      </trkpt>
      <trkpt lat="48.69457" lon="2.4808">
        <ele>84</ele>
        <time>2025-12-29T13:28:28.757Z</time>
      </trkpt>
      <trkpt lat="48.69461" lon="2.48087">
        <ele>84</ele>
        <time>2025-12-29T13:28:33.656Z</time>
      </trkpt>
      <trkpt lat="48.69465" lon="2.48094">
        <ele>84</ele>
        <time>2025-12-29T13:28:38.014Z</time>
      </trkpt>
      <trkpt lat="48.69469" lon="2.48101">
        <ele>83</ele>
        <time>2025-12-29T13:28:42.455Z</time>
      </trkpt>
      <trkpt lat="48.69473" lon="2.4811">
        <ele>83</ele>
        <time>2025-12-29T13:28:46.873Z</time>
      </trkpt>
      <trkpt lat="48.69477" lon="2.48117">
        <ele>83</ele>
        <time>2025-12-29T13:28:51.290Z</time>
      </trkpt>
      <trkpt lat="48.69481" lon="2.48122">
        <ele>83</ele>
        <time>2025-12-29T13:28:55.895Z</time>
      </trkpt>
      <trkpt lat="48.69485" lon="2.48128">
        <ele>83</ele>
        <time>2025-12-29T13:29:00.749Z</time>
      </trkpt>
      <trkpt lat="48.69489" lon="2.48135">
        <ele>83</ele>
        <time>2025-12-29T13:29:05.594Z</time>
      </trkpt>
      <trkpt lat="48.69493" lon="2.48133">
        <ele>83</ele>
        <time>2025-12-29T13:29:09.889Z</time>
      </trkpt>
      <trkpt lat="48.69498" lon="2.48137">
        <ele>83</ele>
        <time>2025-12-29T13:29:25.895Z</time>
      </trkpt>
      <trkpt lat="48.69501" lon="2.48149">
        <ele>83</ele>
        <time>2025-12-29T13:29:30.834Z</time>
      </trkpt>
      <trkpt lat="48.69501" lon="2.48159">
        <ele>83</ele>
        <time>2025-12-29T13:29:34.895Z</time>
      </trkpt>
      <trkpt lat="48.69504" lon="2.48166">
        <ele>83</ele>
        <time>2025-12-29T13:29:39.234Z</time>
      </trkpt>
      <trkpt lat="48.69506" lon="2.48173">
        <ele>83</ele>
        <time>2025-12-29T13:29:43.595Z</time>
      </trkpt>
      <trkpt lat="48.69509" lon="2.4818">
        <ele>83</ele>
        <time>2025-12-29T13:29:48.050Z</time>
      </trkpt>
      <trkpt lat="48.69512" lon="2.48185">
        <ele>83</ele>
        <time>2025-12-29T13:29:52.416Z</time>
      </trkpt>
      <trkpt lat="48.69515" lon="2.48191">
        <ele>84</ele>
        <time>2025-12-29T13:29:56.673Z</time>
      </trkpt>
      <trkpt lat="48.69519" lon="2.48196">
        <ele>84</ele>
        <time>2025-12-29T13:30:00.895Z</time>
      </trkpt>
      <trkpt lat="48.69523" lon="2.48203">
        <ele>84</ele>
        <time>2025-12-29T13:30:05.895Z</time>
      </trkpt>
      <trkpt lat="48.69524" lon="2.48203">
        <ele>84</ele>
        <time>2025-12-29T13:30:10.895Z</time>
      </trkpt>
      <trkpt lat="48.69529" lon="2.4821">
        <ele>84</ele>
        <time>2025-12-29T13:30:15.396Z</time>
      </trkpt>
      <trkpt lat="48.69533" lon="2.48218">
        <ele>84</ele>
        <time>2025-12-29T13:30:19.857Z</time>
      </trkpt>
      <trkpt lat="48.69536" lon="2.48228">
        <ele>84</ele>
        <time>2025-12-29T13:30:24.393Z</time>
      </trkpt>
      <trkpt lat="48.69539" lon="2.48234">
        <ele>84</ele>
        <time>2025-12-29T13:30:28.677Z</time>
      </trkpt>
      <trkpt lat="48.69542" lon="2.48241">
        <ele>83</ele>
        <time>2025-12-29T13:30:32.895Z</time>
      </trkpt>
      <trkpt lat="48.69544" lon="2.48248">
        <ele>83</ele>
        <time>2025-12-29T13:30:37.252Z</time>
      </trkpt>
      <trkpt lat="48.69547" lon="2.48254">
        <ele>83</ele>
        <time>2025-12-29T13:30:41.534Z</time>
      </trkpt>
      <trkpt lat="48.69551" lon="2.48259">
        <ele>83</ele>
        <time>2025-12-29T13:30:45.673Z</time>
      </trkpt>
      <trkpt lat="48.69554" lon="2.48266">
        <ele>83</ele>
        <time>2025-12-29T13:30:49.895Z</time>
      </trkpt>
      <trkpt lat="48.69557" lon="2.48271">
        <ele>83</ele>
        <time>2025-12-29T13:30:54.511Z</time>
      </trkpt>
      <trkpt lat="48.6956" lon="2.48277">
        <ele>83</ele>
        <time>2025-12-29T13:30:58.510Z</time>
      </trkpt>
      <trkpt lat="48.69564" lon="2.48283">
        <ele>83</ele>
        <time>2025-12-29T13:31:02.935Z</time>
      </trkpt>
      <trkpt lat="48.69567" lon="2.48289">
        <ele>83</ele>
        <time>2025-12-29T13:31:07.158Z</time>
      </trkpt>
      <trkpt lat="48.6957" lon="2.48296">
        <ele>84</ele>
        <time>2025-12-29T13:31:11.454Z</time>
      </trkpt>
      <trkpt lat="48.69575" lon="2.48302">
        <ele>84</ele>
        <time>2025-12-29T13:31:15.913Z</time>
      </trkpt>
      <trkpt lat="48.69579" lon="2.48307">
        <ele>84</ele>
        <time>2025-12-29T13:31:20.416Z</time>
      </trkpt>
      <trkpt lat="48.69582" lon="2.48313">
        <ele>84</ele>
        <time>2025-12-29T13:31:24.474Z</time>
      </trkpt>
      <trkpt lat="48.69585" lon="2.48318">
        <ele>84</ele>
        <time>2025-12-29T13:31:28.594Z</time>
      </trkpt>
      <trkpt lat="48.69587" lon="2.48324">
        <ele>84</ele>
        <time>2025-12-29T13:31:32.857Z</time>
      </trkpt>
      <trkpt lat="48.6959" lon="2.48332">
        <ele>84</ele>
        <time>2025-12-29T13:31:37.155Z</time>
      </trkpt>
      <trkpt lat="48.69594" lon="2.48337">
        <ele>84</ele>
        <time>2025-12-29T13:31:41.410Z</time>
      </trkpt>
      <trkpt lat="48.69598" lon="2.48343">
        <ele>84</ele>
        <time>2025-12-29T13:31:45.895Z</time>
      </trkpt>
      <trkpt lat="48.69601" lon="2.48348">
        <ele>83</ele>
        <time>2025-12-29T13:31:50.374Z</time>
      </trkpt>
      <trkpt lat="48.69603" lon="2.48353">
        <ele>83</ele>
        <time>2025-12-29T13:31:54.414Z</time>
      </trkpt>
      <trkpt lat="48.69605" lon="2.48359">
        <ele>83</ele>
        <time>2025-12-29T13:31:58.755Z</time>
      </trkpt>
      <trkpt lat="48.69609" lon="2.48366">
        <ele>83</ele>
        <time>2025-12-29T13:32:03.054Z</time>
      </trkpt>
      <trkpt lat="48.69612" lon="2.48374">
        <ele>83</ele>
        <time>2025-12-29T13:32:07.395Z</time>
      </trkpt>
      <trkpt lat="48.69615" lon="2.48381">
        <ele>82</ele>
        <time>2025-12-29T13:32:11.895Z</time>
      </trkpt>
      <trkpt lat="48.69619" lon="2.48387">
        <ele>82</ele>
        <time>2025-12-29T13:32:16.313Z</time>
      </trkpt>
      <trkpt lat="48.69626" lon="2.48387">
        <ele>82</ele>
        <time>2025-12-29T13:32:20.372Z</time>
      </trkpt>
      <trkpt lat="48.69629" lon="2.48385">
        <ele>82</ele>
        <time>2025-12-29T13:32:24.576Z</time>
      </trkpt>
      <trkpt lat="48.69629" lon="2.48384">
        <ele>82</ele>
        <time>2025-12-29T13:32:29.214Z</time>
      </trkpt>
      <trkpt lat="48.69628" lon="2.48391">
        <ele>82</ele>
        <time>2025-12-29T13:32:33.316Z</time>
      </trkpt>
      <trkpt lat="48.69631" lon="2.48402">
        <ele>82</ele>
        <time>2025-12-29T13:32:37.716Z</time>
      </trkpt>
      <trkpt lat="48.69634" lon="2.48411">
        <ele>82</ele>
        <time>2025-12-29T13:32:41.775Z</time>
      </trkpt>
      <trkpt lat="48.69638" lon="2.48418">
        <ele>82</ele>
        <time>2025-12-29T13:32:46.296Z</time>
      </trkpt>
      <trkpt lat="48.69642" lon="2.48425">
        <ele>82</ele>
        <time>2025-12-29T13:32:50.713Z</time>
      </trkpt>
      <trkpt lat="48.69646" lon="2.48431">
        <ele>82</ele>
        <time>2025-12-29T13:32:54.899Z</time>
      </trkpt>
      <trkpt lat="48.69649" lon="2.4844">
        <ele>82</ele>
        <time>2025-12-29T13:32:59.316Z</time>
      </trkpt>
      <trkpt lat="48.69653" lon="2.48448">
        <ele>82</ele>
        <time>2025-12-29T13:33:03.736Z</time>
      </trkpt>
      <trkpt lat="48.69656" lon="2.48453">
        <ele>83</ele>
        <time>2025-12-29T13:33:07.776Z</time>
      </trkpt>
      <trkpt lat="48.6966" lon="2.4846">
        <ele>83</ele>
        <time>2025-12-29T13:33:12.090Z</time>
      </trkpt>
      <trkpt lat="48.69664" lon="2.48468">
        <ele>83</ele>
        <time>2025-12-29T13:33:16.575Z</time>
      </trkpt>
      <trkpt lat="48.69667" lon="2.48475">
        <ele>83</ele>
        <time>2025-12-29T13:33:21.070Z</time>
      </trkpt>
      <trkpt lat="48.69669" lon="2.48482">
        <ele>83</ele>
        <time>2025-12-29T13:33:25.273Z</time>
      </trkpt>
      <trkpt lat="48.69673" lon="2.48489">
        <ele>82</ele>
        <time>2025-12-29T13:33:29.675Z</time>
      </trkpt>
      <trkpt lat="48.69676" lon="2.48493">
        <ele>82</ele>
        <time>2025-12-29T13:33:33.835Z</time>
      </trkpt>
      <trkpt lat="48.69679" lon="2.48499">
        <ele>82</ele>
        <time>2025-12-29T13:33:38.254Z</time>
      </trkpt>
      <trkpt lat="48.69683" lon="2.48506">
        <ele>83</ele>
        <time>2025-12-29T13:33:42.895Z</time>
      </trkpt>
      <trkpt lat="48.69683" lon="2.48511">
        <ele>83</ele>
        <time>2025-12-29T13:33:46.950Z</time>
      </trkpt>
      <trkpt lat="48.69686" lon="2.48516">
        <ele>82</ele>
        <time>2025-12-29T13:33:51.708Z</time>
      </trkpt>
      <trkpt lat="48.69691" lon="2.48522">
        <ele>82</ele>
        <time>2025-12-29T13:33:56.834Z</time>
      </trkpt>
      <trkpt lat="48.69694" lon="2.48529">
        <ele>82</ele>
        <time>2025-12-29T13:34:01.193Z</time>
      </trkpt>
      <trkpt lat="48.69697" lon="2.48537">
        <ele>82</ele>
        <time>2025-12-29T13:34:05.653Z</time>
      </trkpt>
      <trkpt lat="48.69702" lon="2.48543">
        <ele>82</ele>
        <time>2025-12-29T13:34:10.094Z</time>
      </trkpt>
      <trkpt lat="48.69707" lon="2.48547">
        <ele>82</ele>
        <time>2025-12-29T13:34:14.776Z</time>
      </trkpt>
      <trkpt lat="48.6971" lon="2.48554">
        <ele>83</ele>
        <time>2025-12-29T13:34:19.057Z</time>
      </trkpt>
      <trkpt lat="48.69713" lon="2.48561">
        <ele>83</ele>
        <time>2025-12-29T13:34:23.355Z</time>
      </trkpt>
      <trkpt lat="48.69716" lon="2.48568">
        <ele>83</ele>
        <time>2025-12-29T13:34:27.789Z</time>
      </trkpt>
      <trkpt lat="48.6972" lon="2.48576">
        <ele>83</ele>
        <time>2025-12-29T13:34:32.130Z</time>
      </trkpt>
      <trkpt lat="48.69723" lon="2.48584">
        <ele>83</ele>
        <time>2025-12-29T13:34:36.496Z</time>
      </trkpt>
      <trkpt lat="48.69726" lon="2.4859">
        <ele>83</ele>
        <time>2025-12-29T13:34:40.895Z</time>
      </trkpt>
      <trkpt lat="48.69729" lon="2.48598">
        <ele>82</ele>
        <time>2025-12-29T13:34:45.596Z</time>
      </trkpt>
      <trkpt lat="48.69732" lon="2.48604">
        <ele>82</ele>
        <time>2025-12-29T13:34:49.613Z</time>
      </trkpt>
      <trkpt lat="48.69734" lon="2.48611">
        <ele>82</ele>
        <time>2025-12-29T13:34:53.895Z</time>
      </trkpt>
      <trkpt lat="48.6974" lon="2.48614">
        <ele>82</ele>
        <time>2025-12-29T13:34:58.037Z</time>
      </trkpt>
      <trkpt lat="48.69744" lon="2.48612">
        <ele>82</ele>
        <time>2025-12-29T13:35:02.275Z</time>
      </trkpt>
      <trkpt lat="48.69745" lon="2.48611">
        <ele>82</ele>
        <time>2025-12-29T13:35:06.895Z</time>
      </trkpt>
      <trkpt lat="48.69745" lon="2.48612">
        <ele>82</ele>
        <time>2025-12-29T13:35:11.911Z</time>
      </trkpt>
      <trkpt lat="48.69745" lon="2.48621">
        <ele>82</ele>
        <time>2025-12-29T13:35:15.895Z</time>
      </trkpt>
      <trkpt lat="48.69748" lon="2.48627">
        <ele>82</ele>
        <time>2025-12-29T13:35:20.277Z</time>
      </trkpt>
      <trkpt lat="48.69751" lon="2.48631">
        <ele>82</ele>
        <time>2025-12-29T13:35:24.335Z</time>
      </trkpt>
      <trkpt lat="48.69756" lon="2.48632">
        <ele>82</ele>
        <time>2025-12-29T13:35:28.413Z</time>
      </trkpt>
      <trkpt lat="48.69759" lon="2.48635">
        <ele>82</ele>
        <time>2025-12-29T13:35:32.395Z</time>
      </trkpt>
      <trkpt lat="48.69761" lon="2.48643">
        <ele>82</ele>
        <time>2025-12-29T13:35:36.735Z</time>
      </trkpt>
      <trkpt lat="48.69764" lon="2.48642">
        <ele>81</ele>
        <time>2025-12-29T13:35:41.135Z</time>
      </trkpt>
      <trkpt lat="48.69768" lon="2.48641">
        <ele>81</ele>
        <time>2025-12-29T13:35:45.213Z</time>
      </trkpt>
      <trkpt lat="48.69773" lon="2.48641">
        <ele>81</ele>
        <time>2025-12-29T13:35:49.475Z</time>
      </trkpt>
      <trkpt lat="48.69777" lon="2.4864">
        <ele>81</ele>
        <time>2025-12-29T13:35:53.895Z</time>
      </trkpt>
      <trkpt lat="48.69783" lon="2.48644">
        <ele>81</ele>
        <time>2025-12-29T13:35:58.925Z</time>
      </trkpt>
      <trkpt lat="48.69789" lon="2.48645">
        <ele>81</ele>
        <time>2025-12-29T13:36:03.435Z</time>
      </trkpt>
      <trkpt lat="48.69793" lon="2.48646">
        <ele>83</ele>
        <time>2025-12-29T13:36:07.895Z</time>
      </trkpt>
      <trkpt lat="48.69797" lon="2.48649">
        <ele>83</ele>
        <time>2025-12-29T13:36:12.270Z</time>
      </trkpt>
      <trkpt lat="48.69799" lon="2.48654">
        <ele>83</ele>
        <time>2025-12-29T13:36:16.594Z</time>
      </trkpt>
      <trkpt lat="48.69802" lon="2.48653">
        <ele>83</ele>
        <time>2025-12-29T13:36:20.695Z</time>
      </trkpt>
      <trkpt lat="48.69802" lon="2.48662">
        <ele>83</ele>
        <time>2025-12-29T13:36:25.470Z</time>
      </trkpt>
      <trkpt lat="48.69803" lon="2.48671">
        <ele>83</ele>
        <time>2025-12-29T13:36:29.895Z</time>
      </trkpt>
      <trkpt lat="48.69803" lon="2.4868">
        <ele>83</ele>
        <time>2025-12-29T13:36:34.534Z</time>
      </trkpt>
      <trkpt lat="48.69803" lon="2.48687">
        <ele>83</ele>
        <time>2025-12-29T13:36:38.594Z</time>
      </trkpt>
      <trkpt lat="48.69803" lon="2.48694">
        <ele>83</ele>
        <time>2025-12-29T13:36:42.895Z</time>
      </trkpt>
      <trkpt lat="48.69803" lon="2.48704">
        <ele>83</ele>
        <time>2025-12-29T13:36:47.497Z</time>
      </trkpt>
      <trkpt lat="48.69804" lon="2.48713">
        <ele>82</ele>
        <time>2025-12-29T13:36:51.898Z</time>
      </trkpt>
      <trkpt lat="48.69805" lon="2.48722">
        <ele>82</ele>
        <time>2025-12-29T13:36:56.358Z</time>
      </trkpt>
      <trkpt lat="48.69805" lon="2.48731">
        <ele>82</ele>
        <time>2025-12-29T13:37:00.894Z</time>
      </trkpt>
      <trkpt lat="48.69806" lon="2.48738">
        <ele>81</ele>
        <time>2025-12-29T13:37:04.895Z</time>
      </trkpt>
      <trkpt lat="48.69809" lon="2.48742">
        <ele>81</ele>
        <time>2025-12-29T13:37:09.089Z</time>
      </trkpt>
      <trkpt lat="48.69809" lon="2.48749">
        <ele>81</ele>
        <time>2025-12-29T13:37:13.455Z</time>
      </trkpt>
      <trkpt lat="48.69809" lon="2.48755">
        <ele>81</ele>
        <time>2025-12-29T13:37:17.788Z</time>
      </trkpt>
      <trkpt lat="48.6981" lon="2.48765">
        <ele>80</ele>
        <time>2025-12-29T13:37:22.171Z</time>
      </trkpt>
      <trkpt lat="48.69811" lon="2.48775">
        <ele>80</ele>
        <time>2025-12-29T13:37:26.679Z</time>
      </trkpt>
      <trkpt lat="48.69812" lon="2.48783">
        <ele>80</ele>
        <time>2025-12-29T13:37:31.134Z</time>
      </trkpt>
      <trkpt lat="48.69813" lon="2.48792">
        <ele>79</ele>
        <time>2025-12-29T13:37:35.670Z</time>
      </trkpt>
      <trkpt lat="48.69815" lon="2.488">
        <ele>79</ele>
        <time>2025-12-29T13:37:40.174Z</time>
      </trkpt>
      <trkpt lat="48.69816" lon="2.48806">
        <ele>79</ele>
        <time>2025-12-29T13:37:44.294Z</time>
      </trkpt>
      <trkpt lat="48.69817" lon="2.48813">
        <ele>79</ele>
        <time>2025-12-29T13:37:48.454Z</time>
      </trkpt>
      <trkpt lat="48.69818" lon="2.48822">
        <ele>77</ele>
        <time>2025-12-29T13:37:52.914Z</time>
      </trkpt>
      <trkpt lat="48.69819" lon="2.48828">
        <ele>77</ele>
        <time>2025-12-29T13:37:57.555Z</time>
      </trkpt>
      <trkpt lat="48.69822" lon="2.48836">
        <ele>76</ele>
        <time>2025-12-29T13:38:02.149Z</time>
      </trkpt>
      <trkpt lat="48.69823" lon="2.48842">
        <ele>76</ele>
        <time>2025-12-29T13:38:06.277Z</time>
      </trkpt>
      <trkpt lat="48.69825" lon="2.48849">
        <ele>75</ele>
        <time>2025-12-29T13:38:10.355Z</time>
      </trkpt>
      <trkpt lat="48.69827" lon="2.48857">
        <ele>75</ele>
        <time>2025-12-29T13:38:14.414Z</time>
      </trkpt>
      <trkpt lat="48.6983" lon="2.48864">
        <ele>75</ele>
        <time>2025-12-29T13:38:18.895Z</time>
      </trkpt>
      <trkpt lat="48.69832" lon="2.4887">
        <ele>75</ele>
        <time>2025-12-29T13:38:23.009Z</time>
      </trkpt>
      <trkpt lat="48.69834" lon="2.48876">
        <ele>76</ele>
        <time>2025-12-29T13:38:27.376Z</time>
      </trkpt>
      <trkpt lat="48.69836" lon="2.48883">
        <ele>76</ele>
        <time>2025-12-29T13:38:31.599Z</time>
      </trkpt>
      <trkpt lat="48.69838" lon="2.48888">
        <ele>76</ele>
        <time>2025-12-29T13:38:36.090Z</time>
      </trkpt>
      <trkpt lat="48.69839" lon="2.48895">
        <ele>76</ele>
        <time>2025-12-29T13:38:40.774Z</time>
      </trkpt>
      <trkpt lat="48.69841" lon="2.48903">
        <ele>76</ele>
        <time>2025-12-29T13:38:45.293Z</time>
      </trkpt>
      <trkpt lat="48.69843" lon="2.48911">
        <ele>76</ele>
        <time>2025-12-29T13:38:49.816Z</time>
      </trkpt>
      <trkpt lat="48.69845" lon="2.48918">
        <ele>76</ele>
        <time>2025-12-29T13:38:53.898Z</time>
      </trkpt>
      <trkpt lat="48.69847" lon="2.48925">
        <ele>76</ele>
        <time>2025-12-29T13:38:58.275Z</time>
      </trkpt>
      <trkpt lat="48.69849" lon="2.48933">
        <ele>73</ele>
        <time>2025-12-29T13:39:02.537Z</time>
      </trkpt>
      <trkpt lat="48.69851" lon="2.4894">
        <ele>73</ele>
        <time>2025-12-29T13:39:06.895Z</time>
      </trkpt>
      <trkpt lat="48.69853" lon="2.48948">
        <ele>73</ele>
        <time>2025-12-29T13:39:10.895Z</time>
      </trkpt>
      <trkpt lat="48.69856" lon="2.48956">
        <ele>73</ele>
        <time>2025-12-29T13:39:15.474Z</time>
      </trkpt>
      <trkpt lat="48.69859" lon="2.48962">
        <ele>72</ele>
        <time>2025-12-29T13:39:19.814Z</time>
      </trkpt>
      <trkpt lat="48.69861" lon="2.48968">
        <ele>72</ele>
        <time>2025-12-29T13:39:23.895Z</time>
      </trkpt>
      <trkpt lat="48.69863" lon="2.48976">
        <ele>72</ele>
        <time>2025-12-29T13:39:28.036Z</time>
      </trkpt>
      <trkpt lat="48.69865" lon="2.48984">
        <ele>72</ele>
        <time>2025-12-29T13:39:32.113Z</time>
      </trkpt>
      <trkpt lat="48.69868" lon="2.48992">
        <ele>70</ele>
        <time>2025-12-29T13:39:36.213Z</time>
      </trkpt>
      <trkpt lat="48.69871" lon="2.49001">
        <ele>70</ele>
        <time>2025-12-29T13:39:40.717Z</time>
      </trkpt>
      <trkpt lat="48.69873" lon="2.49007">
        <ele>70</ele>
        <time>2025-12-29T13:39:44.835Z</time>
      </trkpt>
      <trkpt lat="48.69875" lon="2.49013">
        <ele>70</ele>
        <time>2025-12-29T13:39:48.895Z</time>
      </trkpt>
      <trkpt lat="48.69877" lon="2.4902">
        <ele>65</ele>
        <time>2025-12-29T13:39:52.954Z</time>
      </trkpt>
      <trkpt lat="48.69878" lon="2.49026">
        <ele>65</ele>
        <time>2025-12-29T13:39:57.073Z</time>
      </trkpt>
      <trkpt lat="48.69887" lon="2.49041">
        <ele>65</ele>
        <time>2025-12-29T13:40:14.756Z</time>
      </trkpt>
      <trkpt lat="48.6989" lon="2.49036">
        <ele>65</ele>
        <time>2025-12-29T13:40:18.895Z</time>
      </trkpt>
      <trkpt lat="48.69891" lon="2.49034">
        <ele>65</ele>
        <time>2025-12-29T13:40:23.895Z</time>
      </trkpt>
      <trkpt lat="48.69891" lon="2.49033">
        <ele>65</ele>
        <time>2025-12-29T13:40:28.895Z</time>
      </trkpt>
      <trkpt lat="48.69892" lon="2.49033">
        <ele>65</ele>
        <time>2025-12-29T13:40:32.895Z</time>
      </trkpt>
      <trkpt lat="48.69894" lon="2.49037">
        <ele>65</ele>
        <time>2025-12-29T13:40:52.455Z</time>
      </trkpt>
      <trkpt lat="48.69898" lon="2.49045">
        <ele>62</ele>
        <time>2025-12-29T13:40:56.534Z</time>
      </trkpt>
      <trkpt lat="48.69897" lon="2.49056">
        <ele>62</ele>
        <time>2025-12-29T13:41:00.534Z</time>
      </trkpt>
      <trkpt lat="48.699" lon="2.49072">
        <ele>59</ele>
        <time>2025-12-29T13:41:05.035Z</time>
      </trkpt>
      <trkpt lat="48.69902" lon="2.49079">
        <ele>59</ele>
        <time>2025-12-29T13:41:09.694Z</time>
      </trkpt>
      <trkpt lat="48.69902" lon="2.49087">
        <ele>59</ele>
        <time>2025-12-29T13:41:14.075Z</time>
      </trkpt>
      <trkpt lat="48.69906" lon="2.49093">
        <ele>57</ele>
        <time>2025-12-29T13:41:18.895Z</time>
      </trkpt>
      <trkpt lat="48.69908" lon="2.49101">
        <ele>54</ele>
        <time>2025-12-29T13:41:22.996Z</time>
      </trkpt>
      <trkpt lat="48.69909" lon="2.49109">
        <ele>54</ele>
        <time>2025-12-29T13:41:27.173Z</time>
      </trkpt>
      <trkpt lat="48.69909" lon="2.49118">
        <ele>54</ele>
        <time>2025-12-29T13:41:31.718Z</time>
      </trkpt>
      <trkpt lat="48.69911" lon="2.49128">
        <ele>53</ele>
        <time>2025-12-29T13:41:35.895Z</time>
      </trkpt>
      <trkpt lat="48.69914" lon="2.49136">
        <ele>53</ele>
        <time>2025-12-29T13:41:40.173Z</time>
      </trkpt>
      <trkpt lat="48.69915" lon="2.49144">
        <ele>53</ele>
        <time>2025-12-29T13:41:44.453Z</time>
      </trkpt>
      <trkpt lat="48.69917" lon="2.49152">
        <ele>53</ele>
        <time>2025-12-29T13:41:48.734Z</time>
      </trkpt>
      <trkpt lat="48.69919" lon="2.49158">
        <ele>51</ele>
        <time>2025-12-29T13:41:52.895Z</time>
      </trkpt>
      <trkpt lat="48.69921" lon="2.49164">
        <ele>51</ele>
        <time>2025-12-29T13:41:57.032Z</time>
      </trkpt>
      <trkpt lat="48.69924" lon="2.49172">
        <ele>51</ele>
        <time>2025-12-29T13:42:01.535Z</time>
      </trkpt>
      <trkpt lat="48.69926" lon="2.49182">
        <ele>51</ele>
        <time>2025-12-29T13:42:05.895Z</time>
      </trkpt>
      <trkpt lat="48.69929" lon="2.49191">
        <ele>51</ele>
        <time>2025-12-29T13:42:10.336Z</time>
      </trkpt>
      <trkpt lat="48.69931" lon="2.492">
        <ele>49</ele>
        <time>2025-12-29T13:42:14.664Z</time>
      </trkpt>
      <trkpt lat="48.69934" lon="2.49209">
        <ele>48</ele>
        <time>2025-12-29T13:42:18.796Z</time>
      </trkpt>
      <trkpt lat="48.69937" lon="2.49218">
        <ele>48</ele>
        <time>2025-12-29T13:42:22.873Z</time>
      </trkpt>
      <trkpt lat="48.69937" lon="2.49225">
        <ele>48</ele>
        <time>2025-12-29T13:42:27.378Z</time>
      </trkpt>
      <trkpt lat="48.69939" lon="2.49232">
        <ele>48</ele>
        <time>2025-12-29T13:42:31.895Z</time>
      </trkpt>
      <trkpt lat="48.69942" lon="2.49238">
        <ele>47</ele>
        <time>2025-12-29T13:42:36.093Z</time>
      </trkpt>
      <trkpt lat="48.69945" lon="2.49246">
        <ele>47</ele>
        <time>2025-12-29T13:42:40.194Z</time>
      </trkpt>
      <trkpt lat="48.69947" lon="2.49255">
        <ele>47</ele>
        <time>2025-12-29T13:42:44.697Z</time>
      </trkpt>
      <trkpt lat="48.69949" lon="2.49262">
        <ele>47</ele>
        <time>2025-12-29T13:42:49.088Z</time>
      </trkpt>
      <trkpt lat="48.69952" lon="2.4927">
        <ele>45</ele>
        <time>2025-12-29T13:42:53.396Z</time>
      </trkpt>
      <trkpt lat="48.69954" lon="2.49277">
        <ele>45</ele>
        <time>2025-12-29T13:42:57.724Z</time>
      </trkpt>
      <trkpt lat="48.69959" lon="2.49283">
        <ele>44</ele>
        <time>2025-12-29T13:43:02.863Z</time>
      </trkpt>
      <trkpt lat="48.69958" lon="2.49291">
        <ele>45</ele>
        <time>2025-12-29T13:43:07.143Z</time>
      </trkpt>
      <trkpt lat="48.6996" lon="2.493">
        <ele>42</ele>
        <time>2025-12-29T13:43:11.818Z</time>
      </trkpt>
      <trkpt lat="48.69961" lon="2.49308">
        <ele>42</ele>
        <time>2025-12-29T13:43:15.998Z</time>
      </trkpt>
      <trkpt lat="48.69964" lon="2.49315">
        <ele>42</ele>
        <time>2025-12-29T13:43:20.261Z</time>
      </trkpt>
      <trkpt lat="48.69966" lon="2.49322">
        <ele>42</ele>
        <time>2025-12-29T13:43:24.619Z</time>
      </trkpt>
      <trkpt lat="48.69969" lon="2.49329">
        <ele>42</ele>
        <time>2025-12-29T13:43:29.079Z</time>
      </trkpt>
      <trkpt lat="48.69971" lon="2.49336">
        <ele>42</ele>
        <time>2025-12-29T13:43:33.482Z</time>
      </trkpt>
      <trkpt lat="48.69972" lon="2.49343">
        <ele>42</ele>
        <time>2025-12-29T13:43:37.855Z</time>
      </trkpt>
      <trkpt lat="48.69975" lon="2.4935">
        <ele>41</ele>
        <time>2025-12-29T13:43:42.153Z</time>
      </trkpt>
      <trkpt lat="48.69977" lon="2.49358">
        <ele>41</ele>
        <time>2025-12-29T13:43:46.520Z</time>
      </trkpt>
      <trkpt lat="48.69983" lon="2.49366">
        <ele>41</ele>
        <time>2025-12-29T13:44:08.642Z</time>
      </trkpt>
      <trkpt lat="48.69976" lon="2.49374">
        <ele>41</ele>
        <time>2025-12-29T13:44:13.897Z</time>
      </trkpt>
      <trkpt lat="48.69969" lon="2.49376">
        <ele>41</ele>
        <time>2025-12-29T13:44:18.579Z</time>
      </trkpt>
      <trkpt lat="48.69964" lon="2.49378">
        <ele>41</ele>
        <time>2025-12-29T13:44:22.895Z</time>
      </trkpt>
      <trkpt lat="48.69958" lon="2.49381">
        <ele>45</ele>
        <time>2025-12-29T13:44:27.695Z</time>
      </trkpt>
      <trkpt lat="48.69951" lon="2.49383">
        <ele>45</ele>
        <time>2025-12-29T13:44:31.839Z</time>
      </trkpt>
      <trkpt lat="48.69947" lon="2.49389">
        <ele>45</ele>
        <time>2025-12-29T13:44:35.895Z</time>
      </trkpt>
      <trkpt lat="48.69947" lon="2.49394">
        <ele>45</ele>
        <time>2025-12-29T13:44:39.895Z</time>
      </trkpt>
      <trkpt lat="48.69947" lon="2.49397">
        <ele>45</ele>
        <time>2025-12-29T13:44:44.600Z</time>
      </trkpt>
      <trkpt lat="48.69947" lon="2.49404">
        <ele>43</ele>
        <time>2025-12-29T13:44:48.898Z</time>
      </trkpt>
      <trkpt lat="48.69945" lon="2.49411">
        <ele>43</ele>
        <time>2025-12-29T13:44:53.895Z</time>
      </trkpt>
      <trkpt lat="48.69942" lon="2.49416">
        <ele>43</ele>
        <time>2025-12-29T13:44:58.895Z</time>
      </trkpt>
      <trkpt lat="48.69939" lon="2.49425">
        <ele>43</ele>
        <time>2025-12-29T13:45:03.895Z</time>
      </trkpt>
      <trkpt lat="48.69936" lon="2.49431">
        <ele>43</ele>
        <time>2025-12-29T13:45:08.701Z</time>
      </trkpt>
      <trkpt lat="48.69933" lon="2.49437">
        <ele>44</ele>
        <time>2025-12-29T13:45:13.059Z</time>
      </trkpt>
      <trkpt lat="48.69931" lon="2.49447">
        <ele>44</ele>
        <time>2025-12-29T13:45:17.895Z</time>
      </trkpt>
      <trkpt lat="48.6993" lon="2.49457">
        <ele>43</ele>
        <time>2025-12-29T13:45:22.900Z</time>
      </trkpt>
      <trkpt lat="48.69928" lon="2.49463">
        <ele>43</ele>
        <time>2025-12-29T13:45:27.895Z</time>
      </trkpt>
      <trkpt lat="48.69927" lon="2.49469">
        <ele>43</ele>
        <time>2025-12-29T13:45:30.895Z</time>
      </trkpt>
      <trkpt lat="48.69924" lon="2.49483">
        <ele>43</ele>
        <time>2025-12-29T13:45:39.883Z</time>
      </trkpt>
      <trkpt lat="48.69923" lon="2.49493">
        <ele>43</ele>
        <time>2025-12-29T13:45:44.255Z</time>
      </trkpt>
      <trkpt lat="48.69923" lon="2.495">
        <ele>43</ele>
        <time>2025-12-29T13:45:48.520Z</time>
      </trkpt>
      <trkpt lat="48.69921" lon="2.49507">
        <ele>43</ele>
        <time>2025-12-29T13:45:53.040Z</time>
      </trkpt>
      <trkpt lat="48.69915" lon="2.49512">
        <ele>43</ele>
        <time>2025-12-29T13:45:57.134Z</time>
      </trkpt>
      <trkpt lat="48.69908" lon="2.49515">
        <ele>42</ele>
        <time>2025-12-29T13:46:01.681Z</time>
      </trkpt>
      <trkpt lat="48.69902" lon="2.49518">
        <ele>40</ele>
        <time>2025-12-29T13:46:05.895Z</time>
      </trkpt>
      <trkpt lat="48.69897" lon="2.49522">
        <ele>40</ele>
        <time>2025-12-29T13:46:10.678Z</time>
      </trkpt>
      <trkpt lat="48.69892" lon="2.4953">
        <ele>40</ele>
        <time>2025-12-29T13:46:14.739Z</time>
      </trkpt>
      <trkpt lat="48.69888" lon="2.49535">
        <ele>40</ele>
        <time>2025-12-29T13:46:18.895Z</time>
      </trkpt>
      <trkpt lat="48.69885" lon="2.49541">
        <ele>40</ele>
        <time>2025-12-29T13:46:23.250Z</time>
      </trkpt>
      <trkpt lat="48.6988" lon="2.49548">
        <ele>39</ele>
        <time>2025-12-29T13:46:27.895Z</time>
      </trkpt>
      <trkpt lat="48.69877" lon="2.49556">
        <ele>39</ele>
        <time>2025-12-29T13:46:32.468Z</time>
      </trkpt>
      <trkpt lat="48.69874" lon="2.49563">
        <ele>40</ele>
        <time>2025-12-29T13:46:36.469Z</time>
      </trkpt>
      <trkpt lat="48.6987" lon="2.4957">
        <ele>39</ele>
        <time>2025-12-29T13:46:40.512Z</time>
      </trkpt>
      <trkpt lat="48.69867" lon="2.49577">
        <ele>39</ele>
        <time>2025-12-29T13:46:44.895Z</time>
      </trkpt>
      <trkpt lat="48.69868" lon="2.49587">
        <ele>39</ele>
        <time>2025-12-29T13:46:49.509Z</time>
      </trkpt>
      <trkpt lat="48.69871" lon="2.49596">
        <ele>39</ele>
        <time>2025-12-29T13:46:53.909Z</time>
      </trkpt>
      <trkpt lat="48.69873" lon="2.49603">
        <ele>40</ele>
        <time>2025-12-29T13:46:57.895Z</time>
      </trkpt>
      <trkpt lat="48.69878" lon="2.4961">
        <ele>40</ele>
        <time>2025-12-29T13:47:02.431Z</time>
      </trkpt>
      <trkpt lat="48.69883" lon="2.49616">
        <ele>40</ele>
        <time>2025-12-29T13:47:06.656Z</time>
      </trkpt>
      <trkpt lat="48.69887" lon="2.49622">
        <ele>40</ele>
        <time>2025-12-29T13:47:10.895Z</time>
      </trkpt>
      <trkpt lat="48.69893" lon="2.49626">
        <ele>40</ele>
        <time>2025-12-29T13:47:15.830Z</time>
      </trkpt>
      <trkpt lat="48.69899" lon="2.49631">
        <ele>40</ele>
        <time>2025-12-29T13:47:20.913Z</time>
      </trkpt>
      <trkpt lat="48.69904" lon="2.49634">
        <ele>42</ele>
        <time>2025-12-29T13:47:25.287Z</time>
      </trkpt>
      <trkpt lat="48.69909" lon="2.49638">
        <ele>42</ele>
        <time>2025-12-29T13:47:29.494Z</time>
      </trkpt>
      <trkpt lat="48.69913" lon="2.49643">
        <ele>42</ele>
        <time>2025-12-29T13:47:33.895Z</time>
      </trkpt>
      <trkpt lat="48.69918" lon="2.49647">
        <ele>42</ele>
        <time>2025-12-29T13:47:38.107Z</time>
      </trkpt>
      <trkpt lat="48.69921" lon="2.49654">
        <ele>41</ele>
        <time>2025-12-29T13:47:42.668Z</time>
      </trkpt>
      <trkpt lat="48.69924" lon="2.49658">
        <ele>41</ele>
        <time>2025-12-29T13:47:45.895Z</time>
      </trkpt>
      <trkpt lat="48.69932" lon="2.49664">
        <ele>42</ele>
        <time>2025-12-29T13:47:55.232Z</time>
      </trkpt>
      <trkpt lat="48.69935" lon="2.49671">
        <ele>42</ele>
        <time>2025-12-29T13:47:59.895Z</time>
      </trkpt>
      <trkpt lat="48.6993" lon="2.49679">
        <ele>41</ele>
        <time>2025-12-29T13:48:04.453Z</time>
      </trkpt>
      <trkpt lat="48.69921" lon="2.49679">
        <ele>41</ele>
        <time>2025-12-29T13:48:08.895Z</time>
      </trkpt>
      <trkpt lat="48.69917" lon="2.49678">
        <ele>41</ele>
        <time>2025-12-29T13:48:12.565Z</time>
      </trkpt>
      <trkpt lat="48.6991" lon="2.4968">
        <ele>41</ele>
        <time>2025-12-29T13:48:18.895Z</time>
      </trkpt>
      <trkpt lat="48.69905" lon="2.49683">
        <ele>41</ele>
        <time>2025-12-29T13:48:23.247Z</time>
      </trkpt>
      <trkpt lat="48.69901" lon="2.49688">
        <ele>40</ele>
        <time>2025-12-29T13:48:27.895Z</time>
      </trkpt>
      <trkpt lat="48.69896" lon="2.49694">
        <ele>40</ele>
        <time>2025-12-29T13:48:32.733Z</time>
      </trkpt>
      <trkpt lat="48.69892" lon="2.49701">
        <ele>40</ele>
        <time>2025-12-29T13:48:36.895Z</time>
      </trkpt>
      <trkpt lat="48.69888" lon="2.49706">
        <ele>40</ele>
        <time>2025-12-29T13:48:41.168Z</time>
      </trkpt>
      <trkpt lat="48.69885" lon="2.49713">
        <ele>41</ele>
        <time>2025-12-29T13:48:45.765Z</time>
      </trkpt>
      <trkpt lat="48.69881" lon="2.4972">
        <ele>41</ele>
        <time>2025-12-29T13:48:50.285Z</time>
      </trkpt>
      <trkpt lat="48.69877" lon="2.49727">
        <ele>41</ele>
        <time>2025-12-29T13:48:53.895Z</time>
      </trkpt>
      <trkpt lat="48.69868" lon="2.49736">
        <ele>42</ele>
        <time>2025-12-29T13:49:02.867Z</time>
      </trkpt>
      <trkpt lat="48.69865" lon="2.49743">
        <ele>43</ele>
        <time>2025-12-29T13:49:07.413Z</time>
      </trkpt>
      <trkpt lat="48.69864" lon="2.49746">
        <ele>43</ele>
        <time>2025-12-29T13:49:09.101Z</time>
      </trkpt>
      <trkpt lat="48.69856" lon="2.49763">
        <ele>43</ele>
        <time>2025-12-29T13:49:18.896Z</time>
      </trkpt>
      <trkpt lat="48.69851" lon="2.49769">
        <ele>44</ele>
        <time>2025-12-29T13:49:23.769Z</time>
      </trkpt>
      <trkpt lat="48.69848" lon="2.49774">
        <ele>44</ele>
        <time>2025-12-29T13:49:27.895Z</time>
      </trkpt>
      <trkpt lat="48.69844" lon="2.49779">
        <ele>43</ele>
        <time>2025-12-29T13:49:32.901Z</time>
      </trkpt>
      <trkpt lat="48.6984" lon="2.49786">
        <ele>43</ele>
        <time>2025-12-29T13:49:37.895Z</time>
      </trkpt>
      <trkpt lat="48.69836" lon="2.49792">
        <ele>43</ele>
        <time>2025-12-29T13:49:42.869Z</time>
      </trkpt>
      <trkpt lat="48.69833" lon="2.49798">
        <ele>43</ele>
        <time>2025-12-29T13:49:46.895Z</time>
      </trkpt>
      <trkpt lat="48.69829" lon="2.49805">
        <ele>43</ele>
        <time>2025-12-29T13:49:51.595Z</time>
      </trkpt>
      <trkpt lat="48.69825" lon="2.49812">
        <ele>43</ele>
        <time>2025-12-29T13:49:55.873Z</time>
      </trkpt>
      <trkpt lat="48.69822" lon="2.4982">
        <ele>42</ele>
        <time>2025-12-29T13:50:00.437Z</time>
      </trkpt>
      <trkpt lat="48.69818" lon="2.49827">
        <ele>41</ele>
        <time>2025-12-29T13:50:04.787Z</time>
      </trkpt>
      <trkpt lat="48.69816" lon="2.49834">
        <ele>41</ele>
        <time>2025-12-29T13:50:08.895Z</time>
      </trkpt>
      <trkpt lat="48.69812" lon="2.49838">
        <ele>41</ele>
        <time>2025-12-29T13:50:13.148Z</time>
      </trkpt>
      <trkpt lat="48.69807" lon="2.49843">
        <ele>41</ele>
        <time>2025-12-29T13:50:17.329Z</time>
      </trkpt>
      <trkpt lat="48.69802" lon="2.49843">
        <ele>41</ele>
        <time>2025-12-29T13:50:21.714Z</time>
      </trkpt>
      <trkpt lat="48.69796" lon="2.49846">
        <ele>41</ele>
        <time>2025-12-29T13:50:26.694Z</time>
      </trkpt>
      <trkpt lat="48.69794" lon="2.49854">
        <ele>42</ele>
        <time>2025-12-29T13:50:30.895Z</time>
      </trkpt>
      <trkpt lat="48.6979" lon="2.49863">
        <ele>39</ele>
        <time>2025-12-29T13:50:35.815Z</time>
      </trkpt>
      <trkpt lat="48.69787" lon="2.49868">
        <ele>39</ele>
        <time>2025-12-29T13:50:39.895Z</time>
      </trkpt>
      <trkpt lat="48.69784" lon="2.49875">
        <ele>39</ele>
        <time>2025-12-29T13:50:44.412Z</time>
      </trkpt>
      <trkpt lat="48.69781" lon="2.4988">
        <ele>40</ele>
        <time>2025-12-29T13:50:48.547Z</time>
      </trkpt>
      <trkpt lat="48.69777" lon="2.49887">
        <ele>40</ele>
        <time>2025-12-29T13:50:52.895Z</time>
      </trkpt>
      <trkpt lat="48.69774" lon="2.49893">
        <ele>40</ele>
        <time>2025-12-29T13:50:57.009Z</time>
      </trkpt>
      <trkpt lat="48.69771" lon="2.49898">
        <ele>40</ele>
        <time>2025-12-29T13:51:01.349Z</time>
      </trkpt>
      <trkpt lat="48.69768" lon="2.49905">
        <ele>42</ele>
        <time>2025-12-29T13:51:05.895Z</time>
      </trkpt>
      <trkpt lat="48.69767" lon="2.49911">
        <ele>42</ele>
        <time>2025-12-29T13:51:09.895Z</time>
      </trkpt>
      <trkpt lat="48.69762" lon="2.49917">
        <ele>40</ele>
        <time>2025-12-29T13:51:14.636Z</time>
      </trkpt>
      <trkpt lat="48.69758" lon="2.49923">
        <ele>40</ele>
        <time>2025-12-29T13:51:19.174Z</time>
      </trkpt>
      <trkpt lat="48.69754" lon="2.49929">
        <ele>40</ele>
        <time>2025-12-29T13:51:23.895Z</time>
      </trkpt>
      <trkpt lat="48.69751" lon="2.49935">
        <ele>43</ele>
        <time>2025-12-29T13:51:28.133Z</time>
      </trkpt>
      <trkpt lat="48.69748" lon="2.49943">
        <ele>43</ele>
        <time>2025-12-29T13:51:32.913Z</time>
      </trkpt>
      <trkpt lat="48.69742" lon="2.4995">
        <ele>43</ele>
        <time>2025-12-29T13:51:37.509Z</time>
      </trkpt>
      <trkpt lat="48.69738" lon="2.49956">
        <ele>43</ele>
        <time>2025-12-29T13:51:41.774Z</time>
      </trkpt>
      <trkpt lat="48.69734" lon="2.49962">
        <ele>44</ele>
        <time>2025-12-29T13:51:45.895Z</time>
      </trkpt>
      <trkpt lat="48.6973" lon="2.49969">
        <ele>44</ele>
        <time>2025-12-29T13:51:50.330Z</time>
      </trkpt>
      <trkpt lat="48.69727" lon="2.49975">
        <ele>44</ele>
        <time>2025-12-29T13:51:54.895Z</time>
      </trkpt>
      <trkpt lat="48.69723" lon="2.49981">
        <ele>44</ele>
        <time>2025-12-29T13:51:58.895Z</time>
      </trkpt>
      <trkpt lat="48.69719" lon="2.49988">
        <ele>44</ele>
        <time>2025-12-29T13:52:03.907Z</time>
      </trkpt>
      <trkpt lat="48.69714" lon="2.49994">
        <ele>44</ele>
        <time>2025-12-29T13:52:08.569Z</time>
      </trkpt>
      <trkpt lat="48.69711" lon="2.49999">
        <ele>44</ele>
        <time>2025-12-29T13:52:12.858Z</time>
      </trkpt>
      <trkpt lat="48.69707" lon="2.50004">
        <ele>44</ele>
        <time>2025-12-29T13:52:17.392Z</time>
      </trkpt>
      <trkpt lat="48.69703" lon="2.50007">
        <ele>44</ele>
        <time>2025-12-29T13:52:21.895Z</time>
      </trkpt>
      <trkpt lat="48.69699" lon="2.50012">
        <ele>44</ele>
        <time>2025-12-29T13:52:26.285Z</time>
      </trkpt>
      <trkpt lat="48.69696" lon="2.50018">
        <ele>45</ele>
        <time>2025-12-29T13:52:30.806Z</time>
      </trkpt>
      <trkpt lat="48.69691" lon="2.50024">
        <ele>45</ele>
        <time>2025-12-29T13:52:35.774Z</time>
      </trkpt>
      <trkpt lat="48.69689" lon="2.5003">
        <ele>45</ele>
        <time>2025-12-29T13:52:39.895Z</time>
      </trkpt>
      <trkpt lat="48.69686" lon="2.50039">
        <ele>45</ele>
        <time>2025-12-29T13:52:44.895Z</time>
      </trkpt>
      <trkpt lat="48.69684" lon="2.50049">
        <ele>45</ele>
        <time>2025-12-29T13:53:23.895Z</time>
      </trkpt>
      <trkpt lat="48.69681" lon="2.50042">
        <ele>45</ele>
        <time>2025-12-29T13:53:28.268Z</time>
      </trkpt>
      <trkpt lat="48.69678" lon="2.50038">
        <ele>45</ele>
        <time>2025-12-29T13:53:32.866Z</time>
      </trkpt>
      <trkpt lat="48.6968" lon="2.50032">
        <ele>45</ele>
        <time>2025-12-29T13:53:36.895Z</time>
      </trkpt>
      <trkpt lat="48.69678" lon="2.50024">
        <ele>45</ele>
        <time>2025-12-29T13:53:41.745Z</time>
      </trkpt>
      <trkpt lat="48.69677" lon="2.50019">
        <ele>45</ele>
        <time>2025-12-29T13:53:45.895Z</time>
      </trkpt>
      <trkpt lat="48.69675" lon="2.50012">
        <ele>45</ele>
        <time>2025-12-29T13:53:50.473Z</time>
      </trkpt>
      <trkpt lat="48.69675" lon="2.5001">
        <ele>45</ele>
        <time>2025-12-29T13:53:54.895Z</time>
      </trkpt>
      <trkpt lat="48.69676" lon="2.50003">
        <ele>45</ele>
        <time>2025-12-29T13:53:59.589Z</time>
      </trkpt>
      <trkpt lat="48.69674" lon="2.50008">
        <ele>45</ele>
        <time>2025-12-29T13:54:55.895Z</time>
      </trkpt>
      <trkpt lat="48.69675" lon="2.50008">
        <ele>45</ele>
        <time>2025-12-29T13:55:00.895Z</time>
      </trkpt>
      <trkpt lat="48.69676" lon="2.50009">
        <ele>45</ele>
        <time>2025-12-29T13:55:05.610Z</time>
      </trkpt>
      <trkpt lat="48.69677" lon="2.50015">
        <ele>45</ele>
        <time>2025-12-29T13:55:10.430Z</time>
      </trkpt>
      <trkpt lat="48.6968" lon="2.50019">
        <ele>45</ele>
        <time>2025-12-29T13:55:14.430Z</time>
      </trkpt>
      <trkpt lat="48.69684" lon="2.50026">
        <ele>45</ele>
        <time>2025-12-29T13:55:18.895Z</time>
      </trkpt>
      <trkpt lat="48.69684" lon="2.50033">
        <ele>45</ele>
        <time>2025-12-29T13:55:23.445Z</time>
      </trkpt>
      <trkpt lat="48.69686" lon="2.50038">
        <ele>45</ele>
        <time>2025-12-29T13:55:27.624Z</time>
      </trkpt>
      <trkpt lat="48.69687" lon="2.50043">
        <ele>45</ele>
        <time>2025-12-29T13:55:31.895Z</time>
      </trkpt>
      <trkpt lat="48.69681" lon="2.50048">
        <ele>45</ele>
        <time>2025-12-29T13:56:10.895Z</time>
      </trkpt>
      <trkpt lat="48.6968" lon="2.50051">
        <ele>45</ele>
        <time>2025-12-29T13:56:15.494Z</time>
      </trkpt>
      <trkpt lat="48.69675" lon="2.50054">
        <ele>45</ele>
        <time>2025-12-29T13:56:19.895Z</time>
      </trkpt>
      <trkpt lat="48.6967" lon="2.50055">
        <ele>45</ele>
        <time>2025-12-29T13:56:24.372Z</time>
      </trkpt>
      <trkpt lat="48.69669" lon="2.50056">
        <ele>45</ele>
        <time>2025-12-29T13:56:28.895Z</time>
      </trkpt>
      <trkpt lat="48.69664" lon="2.50063">
        <ele>45</ele>
        <time>2025-12-29T13:56:53.895Z</time>
      </trkpt>
      <trkpt lat="48.69663" lon="2.50064">
        <ele>45</ele>
        <time>2025-12-29T13:56:57.895Z</time>
      </trkpt>
      <trkpt lat="48.69662" lon="2.50064">
        <ele>45</ele>
        <time>2025-12-29T13:57:02.895Z</time>
      </trkpt>
      <trkpt lat="48.69662" lon="2.50065">
        <ele>45</ele>
        <time>2025-12-29T13:57:07.895Z</time>
      </trkpt>
      <trkpt lat="48.69661" lon="2.50065">
        <ele>45</ele>
        <time>2025-12-29T13:57:13.895Z</time>
      </trkpt>
      <trkpt lat="48.6966" lon="2.50064">
        <ele>45</ele>
        <time>2025-12-29T13:57:47.807Z</time>
      </trkpt>
      <trkpt lat="48.69661" lon="2.50063">
        <ele>45</ele>
        <time>2025-12-29T13:57:51.895Z</time>
      </trkpt>
      <trkpt lat="48.69656" lon="2.50064">
        <ele>45</ele>
        <time>2025-12-29T13:57:56.194Z</time>
      </trkpt>
      <trkpt lat="48.69652" lon="2.5007">
        <ele>45</ele>
        <time>2025-12-29T13:58:00.619Z</time>
      </trkpt>
      <trkpt lat="48.69649" lon="2.50076">
        <ele>45</ele>
        <time>2025-12-29T13:58:04.799Z</time>
      </trkpt>
      <trkpt lat="48.69646" lon="2.50084">
        <ele>45</ele>
        <time>2025-12-29T13:58:09.439Z</time>
      </trkpt>
      <trkpt lat="48.69645" lon="2.50092">
        <ele>45</ele>
        <time>2025-12-29T13:58:13.526Z</time>
      </trkpt>
      <trkpt lat="48.69643" lon="2.50099">
        <ele>46</ele>
        <time>2025-12-29T13:58:17.895Z</time>
      </trkpt>
      <trkpt lat="48.69641" lon="2.50105">
        <ele>46</ele>
        <time>2025-12-29T13:58:22.687Z</time>
      </trkpt>
      <trkpt lat="48.69639" lon="2.50111">
        <ele>46</ele>
        <time>2025-12-29T13:58:26.895Z</time>
      </trkpt>
      <trkpt lat="48.69637" lon="2.5012">
        <ele>46</ele>
        <time>2025-12-29T13:58:31.361Z</time>
      </trkpt>
      <trkpt lat="48.69637" lon="2.50121">
        <ele>46</ele>
        <time>2025-12-29T13:58:31.895Z</time>
      </trkpt>
      <trkpt lat="48.6963" lon="2.50135">
        <ele>45</ele>
        <time>2025-12-29T13:58:41.383Z</time>
      </trkpt>
      <trkpt lat="48.69627" lon="2.50142">
        <ele>45</ele>
        <time>2025-12-29T13:58:45.581Z</time>
      </trkpt>
      <trkpt lat="48.69626" lon="2.5015">
        <ele>45</ele>
        <time>2025-12-29T13:58:49.895Z</time>
      </trkpt>
      <trkpt lat="48.69624" lon="2.50155">
        <ele>42</ele>
        <time>2025-12-29T13:58:53.895Z</time>
      </trkpt>
      <trkpt lat="48.69619" lon="2.5016">
        <ele>42</ele>
        <time>2025-12-29T13:58:58.144Z</time>
      </trkpt>
      <trkpt lat="48.69613" lon="2.50158">
        <ele>42</ele>
        <time>2025-12-29T13:59:02.581Z</time>
      </trkpt>
      <trkpt lat="48.69607" lon="2.50161">
        <ele>42</ele>
        <time>2025-12-29T13:59:06.895Z</time>
      </trkpt>
      <trkpt lat="48.69603" lon="2.50164">
        <ele>42</ele>
        <time>2025-12-29T13:59:11.831Z</time>
      </trkpt>
      <trkpt lat="48.69598" lon="2.50165">
        <ele>42</ele>
        <time>2025-12-29T13:59:15.844Z</time>
      </trkpt>
      <trkpt lat="48.69593" lon="2.50164">
        <ele>45</ele>
        <time>2025-12-29T13:59:19.895Z</time>
      </trkpt>
      <trkpt lat="48.69588" lon="2.50167">
        <ele>45</ele>
        <time>2025-12-29T13:59:24.522Z</time>
      </trkpt>
      <trkpt lat="48.69583" lon="2.50169">
        <ele>45</ele>
        <time>2025-12-29T13:59:29.065Z</time>
      </trkpt>
      <trkpt lat="48.69581" lon="2.50176">
        <ele>45</ele>
        <time>2025-12-29T13:59:33.160Z</time>
      </trkpt>
      <trkpt lat="48.6958" lon="2.50185">
        <ele>44</ele>
        <time>2025-12-29T13:59:37.895Z</time>
      </trkpt>
      <trkpt lat="48.69578" lon="2.50192">
        <ele>44</ele>
        <time>2025-12-29T13:59:42.895Z</time>
      </trkpt>
      <trkpt lat="48.69573" lon="2.50196">
        <ele>44</ele>
        <time>2025-12-29T13:59:47.707Z</time>
      </trkpt>
      <trkpt lat="48.69567" lon="2.50193">
        <ele>46</ele>
        <time>2025-12-29T13:59:52.748Z</time>
      </trkpt>
      <trkpt lat="48.69564" lon="2.50191">
        <ele>46</ele>
        <time>2025-12-29T13:59:54.567Z</time>
      </trkpt>
      <trkpt lat="48.69559" lon="2.5018">
        <ele>45</ele>
        <time>2025-12-29T14:00:03.647Z</time>
      </trkpt>
      <trkpt lat="48.69553" lon="2.50184">
        <ele>46</ele>
        <time>2025-12-29T14:00:07.764Z</time>
      </trkpt>
      <trkpt lat="48.69547" lon="2.5019">
        <ele>46</ele>
        <time>2025-12-29T14:00:12.285Z</time>
      </trkpt>
      <trkpt lat="48.69542" lon="2.50192">
        <ele>46</ele>
        <time>2025-12-29T14:00:16.767Z</time>
      </trkpt>
      <trkpt lat="48.69537" lon="2.50194">
        <ele>44</ele>
        <time>2025-12-29T14:00:20.895Z</time>
      </trkpt>
      <trkpt lat="48.69531" lon="2.50197">
        <ele>44</ele>
        <time>2025-12-29T14:00:25.882Z</time>
      </trkpt>
      <trkpt lat="48.69526" lon="2.502">
        <ele>44</ele>
        <time>2025-12-29T14:00:30.326Z</time>
      </trkpt>
      <trkpt lat="48.69521" lon="2.50202">
        <ele>44</ele>
        <time>2025-12-29T14:00:34.684Z</time>
      </trkpt>
      <trkpt lat="48.69517" lon="2.50205">
        <ele>44</ele>
        <time>2025-12-29T14:00:38.895Z</time>
      </trkpt>
      <trkpt lat="48.69514" lon="2.50211">
        <ele>43</ele>
        <time>2025-12-29T14:00:43.658Z</time>
      </trkpt>
      <trkpt lat="48.69515" lon="2.5022">
        <ele>46</ele>
        <time>2025-12-29T14:00:47.895Z</time>
      </trkpt>
      <trkpt lat="48.69505" lon="2.5024">
        <ele>44</ele>
        <time>2025-12-29T14:01:24.561Z</time>
      </trkpt>
      <trkpt lat="48.69505" lon="2.50245">
        <ele>44</ele>
        <time>2025-12-29T14:01:29.111Z</time>
      </trkpt>
      <trkpt lat="48.69504" lon="2.50249">
        <ele>44</ele>
        <time>2025-12-29T14:01:33.895Z</time>
      </trkpt>
      <trkpt lat="48.69503" lon="2.50256">
        <ele>44</ele>
        <time>2025-12-29T14:01:38.263Z</time>
      </trkpt>
      <trkpt lat="48.695" lon="2.50264">
        <ele>44</ele>
        <time>2025-12-29T14:01:42.686Z</time>
      </trkpt>
      <trkpt lat="48.69495" lon="2.50267">
        <ele>45</ele>
        <time>2025-12-29T14:01:47.491Z</time>
      </trkpt>
      <trkpt lat="48.6949" lon="2.50269">
        <ele>45</ele>
        <time>2025-12-29T14:01:51.700Z</time>
      </trkpt>
      <trkpt lat="48.69485" lon="2.50274">
        <ele>45</ele>
        <time>2025-12-29T14:01:55.895Z</time>
      </trkpt>
      <trkpt lat="48.6948" lon="2.50274">
        <ele>45</ele>
        <time>2025-12-29T14:02:00.507Z</time>
      </trkpt>
      <trkpt lat="48.69476" lon="2.50268">
        <ele>45</ele>
        <time>2025-12-29T14:02:04.895Z</time>
      </trkpt>
      <trkpt lat="48.69468" lon="2.50266">
        <ele>45</ele>
        <time>2025-12-29T14:02:09.484Z</time>
      </trkpt>
      <trkpt lat="48.69465" lon="2.50262">
        <ele>43</ele>
        <time>2025-12-29T14:02:13.662Z</time>
      </trkpt>
      <trkpt lat="48.6946" lon="2.50262">
        <ele>43</ele>
        <time>2025-12-29T14:02:17.930Z</time>
      </trkpt>
      <trkpt lat="48.69456" lon="2.50255">
        <ele>44</ele>
        <time>2025-12-29T14:02:22.542Z</time>
      </trkpt>
      <trkpt lat="48.69449" lon="2.50251">
        <ele>44</ele>
        <time>2025-12-29T14:02:26.895Z</time>
      </trkpt>
      <trkpt lat="48.69442" lon="2.5025">
        <ele>44</ele>
        <time>2025-12-29T14:02:31.480Z</time>
      </trkpt>
      <trkpt lat="48.69437" lon="2.50249">
        <ele>44</ele>
        <time>2025-12-29T14:02:35.642Z</time>
      </trkpt>
      <trkpt lat="48.69431" lon="2.50248">
        <ele>44</ele>
        <time>2025-12-29T14:02:39.820Z</time>
      </trkpt>
      <trkpt lat="48.69423" lon="2.50246">
        <ele>47</ele>
        <time>2025-12-29T14:02:43.895Z</time>
      </trkpt>
      <trkpt lat="48.69418" lon="2.50244">
        <ele>47</ele>
        <time>2025-12-29T14:02:48.462Z</time>
      </trkpt>
      <trkpt lat="48.69412" lon="2.50241">
        <ele>47</ele>
        <time>2025-12-29T14:02:52.623Z</time>
      </trkpt>
      <trkpt lat="48.69406" lon="2.50239">
        <ele>47</ele>
        <time>2025-12-29T14:02:56.928Z</time>
      </trkpt>
      <trkpt lat="48.69399" lon="2.50238">
        <ele>49</ele>
        <time>2025-12-29T14:03:01.706Z</time>
      </trkpt>
      <trkpt lat="48.69395" lon="2.50245">
        <ele>49</ele>
        <time>2025-12-29T14:03:06.807Z</time>
      </trkpt>
      <trkpt lat="48.69389" lon="2.50246">
        <ele>49</ele>
        <time>2025-12-29T14:03:10.895Z</time>
      </trkpt>
      <trkpt lat="48.69384" lon="2.50247">
        <ele>49</ele>
        <time>2025-12-29T14:03:15.166Z</time>
      </trkpt>
      <trkpt lat="48.69377" lon="2.5025">
        <ele>49</ele>
        <time>2025-12-29T14:03:19.895Z</time>
      </trkpt>
      <trkpt lat="48.69371" lon="2.50249">
        <ele>52</ele>
        <time>2025-12-29T14:03:24.786Z</time>
      </trkpt>
      <trkpt lat="48.69369" lon="2.50251">
        <ele>52</ele>
        <time>2025-12-29T14:03:28.846Z</time>
      </trkpt>
      <trkpt lat="48.69363" lon="2.50254">
        <ele>52</ele>
        <time>2025-12-29T14:03:32.895Z</time>
      </trkpt>
      <trkpt lat="48.69358" lon="2.50258">
        <ele>52</ele>
        <time>2025-12-29T14:03:37.654Z</time>
      </trkpt>
      <trkpt lat="48.69353" lon="2.50259">
        <ele>52</ele>
        <time>2025-12-29T14:03:41.742Z</time>
      </trkpt>
      <trkpt lat="48.69347" lon="2.50263">
        <ele>54</ele>
        <time>2025-12-29T14:03:45.785Z</time>
      </trkpt>
      <trkpt lat="48.69344" lon="2.50268">
        <ele>53</ele>
        <time>2025-12-29T14:03:50.143Z</time>
      </trkpt>
      <trkpt lat="48.6934" lon="2.50273">
        <ele>53</ele>
        <time>2025-12-29T14:03:54.676Z</time>
      </trkpt>
      <trkpt lat="48.69333" lon="2.50272">
        <ele>53</ele>
        <time>2025-12-29T14:03:58.895Z</time>
      </trkpt>
      <trkpt lat="48.69328" lon="2.50272">
        <ele>53</ele>
        <time>2025-12-29T14:04:03.721Z</time>
      </trkpt>
      <trkpt lat="48.69322" lon="2.50272">
        <ele>53</ele>
        <time>2025-12-29T14:04:08.165Z</time>
      </trkpt>
      <trkpt lat="48.69316" lon="2.50274">
        <ele>56</ele>
        <time>2025-12-29T14:04:12.685Z</time>
      </trkpt>
      <trkpt lat="48.69311" lon="2.50275">
        <ele>56</ele>
        <time>2025-12-29T14:04:16.895Z</time>
      </trkpt>
      <trkpt lat="48.69305" lon="2.50275">
        <ele>56</ele>
        <time>2025-12-29T14:04:21.606Z</time>
      </trkpt>
      <trkpt lat="48.69295" lon="2.50268">
        <ele>56</ele>
        <time>2025-12-29T14:04:38.706Z</time>
      </trkpt>
      <trkpt lat="48.69292" lon="2.5027">
        <ele>56</ele>
        <time>2025-12-29T14:04:42.895Z</time>
      </trkpt>
      <trkpt lat="48.69282" lon="2.50268">
        <ele>59</ele>
        <time>2025-12-29T14:04:47.499Z</time>
      </trkpt>
      <trkpt lat="48.69275" lon="2.50266">
        <ele>59</ele>
        <time>2025-12-29T14:04:51.895Z</time>
      </trkpt>
      <trkpt lat="48.69271" lon="2.50275">
        <ele>59</ele>
        <time>2025-12-29T14:04:56.386Z</time>
      </trkpt>
      <trkpt lat="48.6927" lon="2.50284">
        <ele>59</ele>
        <time>2025-12-29T14:05:00.749Z</time>
      </trkpt>
      <trkpt lat="48.6927" lon="2.50293">
        <ele>59</ele>
        <time>2025-12-29T14:05:04.895Z</time>
      </trkpt>
      <trkpt lat="48.6927" lon="2.50302">
        <ele>59</ele>
        <time>2025-12-29T14:05:09.260Z</time>
      </trkpt>
      <trkpt lat="48.6927" lon="2.50313">
        <ele>59</ele>
        <time>2025-12-29T14:05:13.895Z</time>
      </trkpt>
      <trkpt lat="48.69269" lon="2.50323">
        <ele>59</ele>
        <time>2025-12-29T14:05:18.420Z</time>
      </trkpt>
      <trkpt lat="48.69269" lon="2.50331">
        <ele>59</ele>
        <time>2025-12-29T14:05:22.624Z</time>
      </trkpt>
      <trkpt lat="48.69267" lon="2.50338">
        <ele>59</ele>
        <time>2025-12-29T14:05:26.926Z</time>
      </trkpt>
      <trkpt lat="48.69266" lon="2.50346">
        <ele>59</ele>
        <time>2025-12-29T14:05:30.895Z</time>
      </trkpt>
      <trkpt lat="48.69266" lon="2.50356">
        <ele>58</ele>
        <time>2025-12-29T14:05:35.426Z</time>
      </trkpt>
      <trkpt lat="48.69264" lon="2.50365">
        <ele>58</ele>
        <time>2025-12-29T14:05:39.783Z</time>
      </trkpt>
      <trkpt lat="48.69264" lon="2.50373">
        <ele>64</ele>
        <time>2025-12-29T14:05:43.895Z</time>
      </trkpt>
      <trkpt lat="48.69263" lon="2.50382">
        <ele>64</ele>
        <time>2025-12-29T14:05:47.895Z</time>
      </trkpt>
      <trkpt lat="48.69262" lon="2.50389">
        <ele>64</ele>
        <time>2025-12-29T14:05:51.895Z</time>
      </trkpt>
      <trkpt lat="48.69259" lon="2.50396">
        <ele>64</ele>
        <time>2025-12-29T14:05:56.765Z</time>
      </trkpt>
      <trkpt lat="48.69254" lon="2.504">
        <ele>64</ele>
        <time>2025-12-29T14:06:00.901Z</time>
      </trkpt>
      <trkpt lat="48.69251" lon="2.50405">
        <ele>65</ele>
        <time>2025-12-29T14:06:05.199Z</time>
      </trkpt>
      <trkpt lat="48.69251" lon="2.50414">
        <ele>65</ele>
        <time>2025-12-29T14:06:09.582Z</time>
      </trkpt>
      <trkpt lat="48.6925" lon="2.50421">
        <ele>65</ele>
        <time>2025-12-29T14:06:13.847Z</time>
      </trkpt>
      <trkpt lat="48.69249" lon="2.5043">
        <ele>65</ele>
        <time>2025-12-29T14:06:17.895Z</time>
      </trkpt>
      <trkpt lat="48.69247" lon="2.50437">
        <ele>66</ele>
        <time>2025-12-29T14:06:21.895Z</time>
      </trkpt>
      <trkpt lat="48.69244" lon="2.50453">
        <ele>66</ele>
        <time>2025-12-29T14:06:34.895Z</time>
      </trkpt>
      <trkpt lat="48.69245" lon="2.50454">
        <ele>66</ele>
        <time>2025-12-29T14:06:39.526Z</time>
      </trkpt>
      <trkpt lat="48.69246" lon="2.50454">
        <ele>66</ele>
        <time>2025-12-29T14:06:43.895Z</time>
      </trkpt>
      <trkpt lat="48.69247" lon="2.50454">
        <ele>66</ele>
        <time>2025-12-29T14:06:48.900Z</time>
      </trkpt>
      <trkpt lat="48.69253" lon="2.50455">
        <ele>66</ele>
        <time>2025-12-29T14:06:53.419Z</time>
      </trkpt>
      <trkpt lat="48.69256" lon="2.50468">
        <ele>66</ele>
        <time>2025-12-29T14:06:57.785Z</time>
      </trkpt>
      <trkpt lat="48.69259" lon="2.50475">
        <ele>66</ele>
        <time>2025-12-29T14:07:02.200Z</time>
      </trkpt>
      <trkpt lat="48.69263" lon="2.50478">
        <ele>66</ele>
        <time>2025-12-29T14:07:06.822Z</time>
      </trkpt>
      <trkpt lat="48.69268" lon="2.50483">
        <ele>61</ele>
        <time>2025-12-29T14:07:10.895Z</time>
      </trkpt>
      <trkpt lat="48.69273" lon="2.50493">
        <ele>60</ele>
        <time>2025-12-29T14:07:15.895Z</time>
      </trkpt>
      <trkpt lat="48.69275" lon="2.50498">
        <ele>60</ele>
        <time>2025-12-29T14:07:20.382Z</time>
      </trkpt>
      <trkpt lat="48.69275" lon="2.50505">
        <ele>60</ele>
        <time>2025-12-29T14:07:24.550Z</time>
      </trkpt>
      <trkpt lat="48.69275" lon="2.50515">
        <ele>59</ele>
        <time>2025-12-29T14:07:28.782Z</time>
      </trkpt>
      <trkpt lat="48.69274" lon="2.50523">
        <ele>59</ele>
        <time>2025-12-29T14:07:32.514Z</time>
      </trkpt>
      <trkpt lat="48.69273" lon="2.50541">
        <ele>59</ele>
        <time>2025-12-29T14:07:41.895Z</time>
      </trkpt>
      <trkpt lat="48.69273" lon="2.50549">
        <ele>59</ele>
        <time>2025-12-29T14:07:45.895Z</time>
      </trkpt>
      <trkpt lat="48.69273" lon="2.50558">
        <ele>59</ele>
        <time>2025-12-29T14:07:50.624Z</time>
      </trkpt>
      <trkpt lat="48.69273" lon="2.50567">
        <ele>59</ele>
        <time>2025-12-29T14:07:54.896Z</time>
      </trkpt>
      <trkpt lat="48.69272" lon="2.50579">
        <ele>61</ele>
        <time>2025-12-29T14:07:59.825Z</time>
      </trkpt>
      <trkpt lat="48.69272" lon="2.50588">
        <ele>61</ele>
        <time>2025-12-29T14:08:03.902Z</time>
      </trkpt>
      <trkpt lat="48.69272" lon="2.50598">
        <ele>63</ele>
        <time>2025-12-29T14:08:08.379Z</time>
      </trkpt>
      <trkpt lat="48.69272" lon="2.50606">
        <ele>63</ele>
        <time>2025-12-29T14:08:12.686Z</time>
      </trkpt>
      <trkpt lat="48.69272" lon="2.50614">
        <ele>63</ele>
        <time>2025-12-29T14:08:16.899Z</time>
      </trkpt>
      <trkpt lat="48.69272" lon="2.50624">
        <ele>63</ele>
        <time>2025-12-29T14:08:21.895Z</time>
      </trkpt>
      <trkpt lat="48.69273" lon="2.50634">
        <ele>62</ele>
        <time>2025-12-29T14:08:26.783Z</time>
      </trkpt>
      <trkpt lat="48.69273" lon="2.50642">
        <ele>62</ele>
        <time>2025-12-29T14:08:30.895Z</time>
      </trkpt>
      <trkpt lat="48.69274" lon="2.50651">
        <ele>62</ele>
        <time>2025-12-29T14:08:35.380Z</time>
      </trkpt>
      <trkpt lat="48.69274" lon="2.5066">
        <ele>59</ele>
        <time>2025-12-29T14:08:39.703Z</time>
      </trkpt>
      <trkpt lat="48.69273" lon="2.50672">
        <ele>59</ele>
        <time>2025-12-29T14:08:44.540Z</time>
      </trkpt>
      <trkpt lat="48.69273" lon="2.50679">
        <ele>59</ele>
        <time>2025-12-29T14:08:48.895Z</time>
      </trkpt>
      <trkpt lat="48.69272" lon="2.50688">
        <ele>58</ele>
        <time>2025-12-29T14:08:53.768Z</time>
      </trkpt>
      <trkpt lat="48.6927" lon="2.507">
        <ele>58</ele>
        <time>2025-12-29T14:08:58.901Z</time>
      </trkpt>
      <trkpt lat="48.69271" lon="2.50706">
        <ele>58</ele>
        <time>2025-12-29T14:09:02.895Z</time>
      </trkpt>
      <trkpt lat="48.69271" lon="2.50715">
        <ele>59</ele>
        <time>2025-12-29T14:09:07.483Z</time>
      </trkpt>
      <trkpt lat="48.69269" lon="2.50725">
        <ele>59</ele>
        <time>2025-12-29T14:09:11.863Z</time>
      </trkpt>
      <trkpt lat="48.69269" lon="2.50733">
        <ele>59</ele>
        <time>2025-12-29T14:09:15.895Z</time>
      </trkpt>
      <trkpt lat="48.69268" lon="2.50741">
        <ele>60</ele>
        <time>2025-12-29T14:09:20.324Z</time>
      </trkpt>
      <trkpt lat="48.69269" lon="2.50749">
        <ele>60</ele>
        <time>2025-12-29T14:09:24.801Z</time>
      </trkpt>
      <trkpt lat="48.69267" lon="2.50757">
        <ele>60</ele>
        <time>2025-12-29T14:09:28.949Z</time>
      </trkpt>
      <trkpt lat="48.69267" lon="2.50766">
        <ele>60</ele>
        <time>2025-12-29T14:09:33.895Z</time>
      </trkpt>
      <trkpt lat="48.69264" lon="2.50777">
        <ele>60</ele>
        <time>2025-12-29T14:09:38.895Z</time>
      </trkpt>
      <trkpt lat="48.69262" lon="2.50784">
        <ele>60</ele>
        <time>2025-12-29T14:09:43.668Z</time>
      </trkpt>
      <trkpt lat="48.6926" lon="2.50792">
        <ele>60</ele>
        <time>2025-12-29T14:09:47.923Z</time>
      </trkpt>
      <trkpt lat="48.69257" lon="2.50801">
        <ele>60</ele>
        <time>2025-12-29T14:09:51.895Z</time>
      </trkpt>
      <trkpt lat="48.69254" lon="2.5081">
        <ele>60</ele>
        <time>2025-12-29T14:09:56.542Z</time>
      </trkpt>
      <trkpt lat="48.69251" lon="2.50817">
        <ele>60</ele>
        <time>2025-12-29T14:10:00.895Z</time>
      </trkpt>
      <trkpt lat="48.69248" lon="2.50825">
        <ele>63</ele>
        <time>2025-12-29T14:10:05.384Z</time>
      </trkpt>
      <trkpt lat="48.69245" lon="2.50833">
        <ele>63</ele>
        <time>2025-12-29T14:10:09.821Z</time>
      </trkpt>
      <trkpt lat="48.69242" lon="2.50841">
        <ele>63</ele>
        <time>2025-12-29T14:10:13.905Z</time>
      </trkpt>
      <trkpt lat="48.6924" lon="2.50847">
        <ele>63</ele>
        <time>2025-12-29T14:10:17.896Z</time>
      </trkpt>
      <trkpt lat="48.69239" lon="2.50855">
        <ele>66</ele>
        <time>2025-12-29T14:10:22.895Z</time>
      </trkpt>
      <trkpt lat="48.69237" lon="2.50864">
        <ele>66</ele>
        <time>2025-12-29T14:10:27.422Z</time>
      </trkpt>
      <trkpt lat="48.69237" lon="2.50872">
        <ele>66</ele>
        <time>2025-12-29T14:10:31.487Z</time>
      </trkpt>
      <trkpt lat="48.69238" lon="2.5088">
        <ele>66</ele>
        <time>2025-12-29T14:10:35.860Z</time>
      </trkpt>
      <trkpt lat="48.69239" lon="2.50888">
        <ele>66</ele>
        <time>2025-12-29T14:10:39.895Z</time>
      </trkpt>
      <trkpt lat="48.69239" lon="2.50898">
        <ele>66</ele>
        <time>2025-12-29T14:10:43.895Z</time>
      </trkpt>
      <trkpt lat="48.69239" lon="2.50908">
        <ele>64</ele>
        <time>2025-12-29T14:10:48.895Z</time>
      </trkpt>
      <trkpt lat="48.69241" lon="2.50917">
        <ele>64</ele>
        <time>2025-12-29T14:10:53.359Z</time>
      </trkpt>
      <trkpt lat="48.69242" lon="2.50925">
        <ele>64</ele>
        <time>2025-12-29T14:10:57.725Z</time>
      </trkpt>
      <trkpt lat="48.69243" lon="2.50933">
        <ele>62</ele>
        <time>2025-12-29T14:11:01.903Z</time>
      </trkpt>
      <trkpt lat="48.69243" lon="2.50941">
        <ele>62</ele>
        <time>2025-12-29T14:11:05.895Z</time>
      </trkpt>
      <trkpt lat="48.69243" lon="2.50951">
        <ele>62</ele>
        <time>2025-12-29T14:11:10.588Z</time>
      </trkpt>
      <trkpt lat="48.69241" lon="2.50959">
        <ele>62</ele>
        <time>2025-12-29T14:11:14.895Z</time>
      </trkpt>
      <trkpt lat="48.69233" lon="2.50963">
        <ele>64</ele>
        <time>2025-12-29T14:11:19.550Z</time>
      </trkpt>
      <trkpt lat="48.69226" lon="2.50962">
        <ele>64</ele>
        <time>2025-12-29T14:11:23.863Z</time>
      </trkpt>
      <trkpt lat="48.69221" lon="2.50962">
        <ele>64</ele>
        <time>2025-12-29T14:11:27.895Z</time>
      </trkpt>
      <trkpt lat="48.69215" lon="2.50958">
        <ele>64</ele>
        <time>2025-12-29T14:11:32.246Z</time>
      </trkpt>
      <trkpt lat="48.69208" lon="2.50955">
        <ele>67</ele>
        <time>2025-12-29T14:11:36.902Z</time>
      </trkpt>
      <trkpt lat="48.69201" lon="2.50953">
        <ele>67</ele>
        <time>2025-12-29T14:11:41.745Z</time>
      </trkpt>
      <trkpt lat="48.69194" lon="2.50952">
        <ele>67</ele>
        <time>2025-12-29T14:11:45.908Z</time>
      </trkpt>
      <trkpt lat="48.6919" lon="2.5095">
        <ele>67</ele>
        <time>2025-12-29T14:11:50.001Z</time>
      </trkpt>
      <trkpt lat="48.69183" lon="2.5095">
        <ele>67</ele>
        <time>2025-12-29T14:11:54.446Z</time>
      </trkpt>
      <trkpt lat="48.69179" lon="2.50948">
        <ele>71</ele>
        <time>2025-12-29T14:11:58.828Z</time>
      </trkpt>
      <trkpt lat="48.69174" lon="2.50946">
        <ele>71</ele>
        <time>2025-12-29T14:12:03.824Z</time>
      </trkpt>
      <trkpt lat="48.6917" lon="2.50946">
        <ele>71</ele>
        <time>2025-12-29T14:12:08.182Z</time>
      </trkpt>
      <trkpt lat="48.69164" lon="2.50945">
        <ele>71</ele>
        <time>2025-12-29T14:12:12.625Z</time>
      </trkpt>
      <trkpt lat="48.69159" lon="2.50946">
        <ele>71</ele>
        <time>2025-12-29T14:12:16.895Z</time>
      </trkpt>
      <trkpt lat="48.69154" lon="2.5095">
        <ele>71</ele>
        <time>2025-12-29T14:12:20.895Z</time>
      </trkpt>
      <trkpt lat="48.6915" lon="2.50951">
        <ele>74</ele>
        <time>2025-12-29T14:12:25.486Z</time>
      </trkpt>
      <trkpt lat="48.69144" lon="2.50955">
        <ele>74</ele>
        <time>2025-12-29T14:12:29.741Z</time>
      </trkpt>
      <trkpt lat="48.69135" lon="2.50955">
        <ele>74</ele>
        <time>2025-12-29T14:12:34.286Z</time>
      </trkpt>
      <trkpt lat="48.6913" lon="2.50956">
        <ele>74</ele>
        <time>2025-12-29T14:12:38.703Z</time>
      </trkpt>
      <trkpt lat="48.69124" lon="2.50957">
        <ele>76</ele>
        <time>2025-12-29T14:12:42.895Z</time>
      </trkpt>
      <trkpt lat="48.69118" lon="2.50959">
        <ele>74</ele>
        <time>2025-12-29T14:12:47.762Z</time>
      </trkpt>
      <trkpt lat="48.69113" lon="2.50961">
        <ele>74</ele>
        <time>2025-12-29T14:12:51.895Z</time>
      </trkpt>
      <trkpt lat="48.69107" lon="2.50963">
        <ele>74</ele>
        <time>2025-12-29T14:12:56.799Z</time>
      </trkpt>
      <trkpt lat="48.69102" lon="2.50965">
        <ele>74</ele>
        <time>2025-12-29T14:13:00.895Z</time>
      </trkpt>
      <trkpt lat="48.69097" lon="2.50968">
        <ele>75</ele>
        <time>2025-12-29T14:13:05.805Z</time>
      </trkpt>
      <trkpt lat="48.69092" lon="2.5097">
        <ele>75</ele>
        <time>2025-12-29T14:13:09.895Z</time>
      </trkpt>
      <trkpt lat="48.69088" lon="2.50973">
        <ele>75</ele>
        <time>2025-12-29T14:13:14.775Z</time>
      </trkpt>
      <trkpt lat="48.69081" lon="2.50976">
        <ele>75</ele>
        <time>2025-12-29T14:13:19.295Z</time>
      </trkpt>
      <trkpt lat="48.69076" lon="2.50979">
        <ele>75</ele>
        <time>2025-12-29T14:13:23.754Z</time>
      </trkpt>
      <trkpt lat="48.6907" lon="2.50982">
        <ele>75</ele>
        <time>2025-12-29T14:13:28.276Z</time>
      </trkpt>
      <trkpt lat="48.69064" lon="2.50986">
        <ele>77</ele>
        <time>2025-12-29T14:13:57.895Z</time>
      </trkpt>
      <trkpt lat="48.69062" lon="2.50987">
        <ele>77</ele>
        <time>2025-12-29T14:14:02.895Z</time>
      </trkpt>
      <trkpt lat="48.69056" lon="2.50986">
        <ele>77</ele>
        <time>2025-12-29T14:14:07.895Z</time>
      </trkpt>
      <trkpt lat="48.69052" lon="2.50988">
        <ele>77</ele>
        <time>2025-12-29T14:14:12.352Z</time>
      </trkpt>
      <trkpt lat="48.69048" lon="2.50982">
        <ele>76</ele>
        <time>2025-12-29T14:14:16.873Z</time>
      </trkpt>
      <trkpt lat="48.69046" lon="2.50977">
        <ele>76</ele>
        <time>2025-12-29T14:14:20.919Z</time>
      </trkpt>
      <trkpt lat="48.69042" lon="2.50972">
        <ele>76</ele>
        <time>2025-12-29T14:14:25.895Z</time>
      </trkpt>
      <trkpt lat="48.69038" lon="2.50968">
        <ele>78</ele>
        <time>2025-12-29T14:14:30.074Z</time>
      </trkpt>
      <trkpt lat="48.69035" lon="2.50965">
        <ele>78</ele>
        <time>2025-12-29T14:14:34.535Z</time>
      </trkpt>
      <trkpt lat="48.6903" lon="2.50959">
        <ele>78</ele>
        <time>2025-12-29T14:14:39.895Z</time>
      </trkpt>
      <trkpt lat="48.69029" lon="2.50956">
        <ele>79</ele>
        <time>2025-12-29T14:14:44.616Z</time>
      </trkpt>
      <trkpt lat="48.69025" lon="2.50953">
        <ele>79</ele>
        <time>2025-12-29T14:14:49.491Z</time>
      </trkpt>
      <trkpt lat="48.69022" lon="2.50948">
        <ele>79</ele>
        <time>2025-12-29T14:14:53.754Z</time>
      </trkpt>
      <trkpt lat="48.69021" lon="2.50944">
        <ele>79</ele>
        <time>2025-12-29T14:14:57.895Z</time>
      </trkpt>
      <trkpt lat="48.69021" lon="2.50944">
        <ele>79</ele>
        <time>2025-12-29T14:15:01.895Z</time>
      </trkpt>
      <trkpt lat="48.69019" lon="2.50938">
        <ele>79</ele>
        <time>2025-12-29T14:15:06.413Z</time>
      </trkpt>
      <trkpt lat="48.69015" lon="2.50932">
        <ele>79</ele>
        <time>2025-12-29T14:15:10.895Z</time>
      </trkpt>
      <trkpt lat="48.69011" lon="2.5093">
        <ele>84</ele>
        <time>2025-12-29T14:15:14.895Z</time>
      </trkpt>
      <trkpt lat="48.69007" lon="2.50928">
        <ele>84</ele>
        <time>2025-12-29T14:15:18.895Z</time>
      </trkpt>
      <trkpt lat="48.69004" lon="2.50922">
        <ele>84</ele>
        <time>2025-12-29T14:15:23.895Z</time>
      </trkpt>
      <trkpt lat="48.69" lon="2.50919">
        <ele>84</ele>
        <time>2025-12-29T14:15:28.449Z</time>
      </trkpt>
      <trkpt lat="48.68996" lon="2.50918">
        <ele>84</ele>
        <time>2025-12-29T14:15:32.696Z</time>
      </trkpt>
      <trkpt lat="48.68992" lon="2.50917">
        <ele>84</ele>
        <time>2025-12-29T14:15:36.874Z</time>
      </trkpt>
      <trkpt lat="48.68987" lon="2.50912">
        <ele>84</ele>
        <time>2025-12-29T14:15:40.890Z</time>
      </trkpt>
      <trkpt lat="48.6898" lon="2.50907">
        <ele>85</ele>
        <time>2025-12-29T14:15:45.771Z</time>
      </trkpt>
      <trkpt lat="48.68976" lon="2.50901">
        <ele>84</ele>
        <time>2025-12-29T14:15:49.895Z</time>
      </trkpt>
      <trkpt lat="48.6897" lon="2.509">
        <ele>84</ele>
        <time>2025-12-29T14:15:54.313Z</time>
      </trkpt>
      <trkpt lat="48.68966" lon="2.50898">
        <ele>84</ele>
        <time>2025-12-29T14:15:58.731Z</time>
      </trkpt>
      <trkpt lat="48.68962" lon="2.50899">
        <ele>84</ele>
        <time>2025-12-29T14:16:02.908Z</time>
      </trkpt>
      <trkpt lat="48.68958" lon="2.50901">
        <ele>85</ele>
        <time>2025-12-29T14:16:06.895Z</time>
      </trkpt>
      <trkpt lat="48.68953" lon="2.509">
        <ele>85</ele>
        <time>2025-12-29T14:16:11.640Z</time>
      </trkpt>
      <trkpt lat="48.68947" lon="2.50898">
        <ele>85</ele>
        <time>2025-12-29T14:16:15.800Z</time>
      </trkpt>
      <trkpt lat="48.68942" lon="2.50891">
        <ele>85</ele>
        <time>2025-12-29T14:16:19.895Z</time>
      </trkpt>
      <trkpt lat="48.68938" lon="2.50883">
        <ele>85</ele>
        <time>2025-12-29T14:16:24.914Z</time>
      </trkpt>
      <trkpt lat="48.68934" lon="2.50876">
        <ele>85</ele>
        <time>2025-12-29T14:16:29.554Z</time>
      </trkpt>
      <trkpt lat="48.68927" lon="2.50875">
        <ele>86</ele>
        <time>2025-12-29T14:16:33.655Z</time>
      </trkpt>
      <trkpt lat="48.68922" lon="2.5087">
        <ele>86</ele>
        <time>2025-12-29T14:16:37.894Z</time>
      </trkpt>
      <trkpt lat="48.68918" lon="2.50865">
        <ele>86</ele>
        <time>2025-12-29T14:16:42.074Z</time>
      </trkpt>
      <trkpt lat="48.68913" lon="2.5086">
        <ele>86</ele>
        <time>2025-12-29T14:16:46.830Z</time>
      </trkpt>
      <trkpt lat="48.68908" lon="2.50863">
        <ele>86</ele>
        <time>2025-12-29T14:16:50.895Z</time>
      </trkpt>
      <trkpt lat="48.68902" lon="2.50864">
        <ele>87</ele>
        <time>2025-12-29T14:16:55.153Z</time>
      </trkpt>
      <trkpt lat="48.68897" lon="2.50863">
        <ele>87</ele>
        <time>2025-12-29T14:16:59.374Z</time>
      </trkpt>
      <trkpt lat="48.68892" lon="2.50859">
        <ele>87</ele>
        <time>2025-12-29T14:17:03.416Z</time>
      </trkpt>
      <trkpt lat="48.68888" lon="2.50854">
        <ele>87</ele>
        <time>2025-12-29T14:17:07.851Z</time>
      </trkpt>
      <trkpt lat="48.68883" lon="2.50851">
        <ele>87</ele>
        <time>2025-12-29T14:17:12.234Z</time>
      </trkpt>
      <trkpt lat="48.68878" lon="2.50848">
        <ele>87</ele>
        <time>2025-12-29T14:17:16.895Z</time>
      </trkpt>
      <trkpt lat="48.68876" lon="2.50846">
        <ele>87</ele>
        <time>2025-12-29T14:17:19.088Z</time>
      </trkpt>
      <trkpt lat="48.68869" lon="2.50842">
        <ele>88</ele>
        <time>2025-12-29T14:17:25.467Z</time>
      </trkpt>
      <trkpt lat="48.68865" lon="2.50838">
        <ele>88</ele>
        <time>2025-12-29T14:17:29.895Z</time>
      </trkpt>
      <trkpt lat="48.68861" lon="2.50832">
        <ele>88</ele>
        <time>2025-12-29T14:17:34.115Z</time>
      </trkpt>
      <trkpt lat="48.68857" lon="2.50827">
        <ele>88</ele>
        <time>2025-12-29T14:17:38.895Z</time>
      </trkpt>
      <trkpt lat="48.68852" lon="2.50823">
        <ele>88</ele>
        <time>2025-12-29T14:17:43.897Z</time>
      </trkpt>
      <trkpt lat="48.68848" lon="2.50817">
        <ele>89</ele>
        <time>2025-12-29T14:17:48.673Z</time>
      </trkpt>
      <trkpt lat="48.68844" lon="2.50814">
        <ele>87</ele>
        <time>2025-12-29T14:17:52.895Z</time>
      </trkpt>
      <trkpt lat="48.68839" lon="2.50809">
        <ele>87</ele>
        <time>2025-12-29T14:17:57.895Z</time>
      </trkpt>
      <trkpt lat="48.68835" lon="2.50805">
        <ele>87</ele>
        <time>2025-12-29T14:18:02.153Z</time>
      </trkpt>
      <trkpt lat="48.68829" lon="2.50803">
        <ele>87</ele>
        <time>2025-12-29T14:18:06.451Z</time>
      </trkpt>
      <trkpt lat="48.68825" lon="2.50803">
        <ele>87</ele>
        <time>2025-12-29T14:18:10.570Z</time>
      </trkpt>
      <trkpt lat="48.68821" lon="2.50799">
        <ele>87</ele>
        <time>2025-12-29T14:18:14.895Z</time>
      </trkpt>
      <trkpt lat="48.68817" lon="2.50796">
        <ele>86</ele>
        <time>2025-12-29T14:18:18.895Z</time>
      </trkpt>
      <trkpt lat="48.68811" lon="2.50793">
        <ele>86</ele>
        <time>2025-12-29T14:18:23.309Z</time>
      </trkpt>
      <trkpt lat="48.68805" lon="2.50789">
        <ele>87</ele>
        <time>2025-12-29T14:18:27.895Z</time>
      </trkpt>
      <trkpt lat="48.688" lon="2.50784">
        <ele>87</ele>
        <time>2025-12-29T14:18:32.511Z</time>
      </trkpt>
      <trkpt lat="48.68795" lon="2.50779">
        <ele>87</ele>
        <time>2025-12-29T14:18:36.809Z</time>
      </trkpt>
      <trkpt lat="48.68791" lon="2.50777">
        <ele>87</ele>
        <time>2025-12-29T14:18:40.895Z</time>
      </trkpt>
      <trkpt lat="48.68786" lon="2.50781">
        <ele>87</ele>
        <time>2025-12-29T14:18:45.895Z</time>
      </trkpt>
      <trkpt lat="48.68782" lon="2.50785">
        <ele>87</ele>
        <time>2025-12-29T14:18:49.895Z</time>
      </trkpt>
      <trkpt lat="48.68777" lon="2.50788">
        <ele>87</ele>
        <time>2025-12-29T14:18:54.437Z</time>
      </trkpt>
      <trkpt lat="48.68773" lon="2.50788">
        <ele>87</ele>
        <time>2025-12-29T14:18:58.571Z</time>
      </trkpt>
      <trkpt lat="48.68768" lon="2.50786">
        <ele>87</ele>
        <time>2025-12-29T14:19:02.895Z</time>
      </trkpt>
      <trkpt lat="48.68763" lon="2.50785">
        <ele>89</ele>
        <time>2025-12-29T14:19:07.209Z</time>
      </trkpt>
      <trkpt lat="48.68757" lon="2.50786">
        <ele>89</ele>
        <time>2025-12-29T14:19:11.895Z</time>
      </trkpt>
      <trkpt lat="48.68752" lon="2.50789">
        <ele>89</ele>
        <time>2025-12-29T14:19:16.676Z</time>
      </trkpt>
      <trkpt lat="48.68747" lon="2.50793">
        <ele>90</ele>
        <time>2025-12-29T14:19:20.913Z</time>
      </trkpt>
      <trkpt lat="48.68743" lon="2.50795">
        <ele>90</ele>
        <time>2025-12-29T14:19:25.493Z</time>
      </trkpt>
      <trkpt lat="48.68738" lon="2.50803">
        <ele>90</ele>
        <time>2025-12-29T14:19:29.895Z</time>
      </trkpt>
      <trkpt lat="48.68735" lon="2.50806">
        <ele>92</ele>
        <time>2025-12-29T14:19:34.334Z</time>
      </trkpt>
      <trkpt lat="48.68728" lon="2.50798">
        <ele>92</ele>
        <time>2025-12-29T14:19:42.675Z</time>
      </trkpt>
      <trkpt lat="48.68728" lon="2.50797">
        <ele>92</ele>
        <time>2025-12-29T14:19:47.476Z</time>
      </trkpt>
      <trkpt lat="48.68726" lon="2.50796">
        <ele>92</ele>
        <time>2025-12-29T14:19:51.895Z</time>
      </trkpt>
      <trkpt lat="48.68725" lon="2.50796">
        <ele>92</ele>
        <time>2025-12-29T14:19:55.895Z</time>
      </trkpt>
      <trkpt lat="48.68723" lon="2.50796">
        <ele>92</ele>
        <time>2025-12-29T14:20:00.898Z</time>
      </trkpt>
      <trkpt lat="48.68722" lon="2.50788">
        <ele>92</ele>
        <time>2025-12-29T14:20:57.154Z</time>
      </trkpt>
      <trkpt lat="48.68718" lon="2.50782">
        <ele>92</ele>
        <time>2025-12-29T14:21:01.895Z</time>
      </trkpt>
      <trkpt lat="48.68712" lon="2.50783">
        <ele>92</ele>
        <time>2025-12-29T14:21:06.895Z</time>
      </trkpt>
      <trkpt lat="48.68707" lon="2.50784">
        <ele>92</ele>
        <time>2025-12-29T14:21:11.215Z</time>
      </trkpt>
      <trkpt lat="48.68701" lon="2.5079">
        <ele>92</ele>
        <time>2025-12-29T14:21:15.896Z</time>
      </trkpt>
      <trkpt lat="48.68698" lon="2.50792">
        <ele>92</ele>
        <time>2025-12-29T14:21:20.275Z</time>
      </trkpt>
      <trkpt lat="48.68691" lon="2.50793">
        <ele>92</ele>
        <time>2025-12-29T14:21:24.376Z</time>
      </trkpt>
      <trkpt lat="48.68686" lon="2.50795">
        <ele>92</ele>
        <time>2025-12-29T14:21:28.393Z</time>
      </trkpt>
      <trkpt lat="48.68683" lon="2.50801">
        <ele>92</ele>
        <time>2025-12-29T14:21:32.675Z</time>
      </trkpt>
      <trkpt lat="48.6868" lon="2.50801">
        <ele>93</ele>
        <time>2025-12-29T14:21:36.607Z</time>
      </trkpt>
      <trkpt lat="48.68674" lon="2.50799">
        <ele>93</ele>
        <time>2025-12-29T14:21:40.809Z</time>
      </trkpt>
      <trkpt lat="48.68672" lon="2.50801">
        <ele>93</ele>
        <time>2025-12-29T14:21:44.895Z</time>
      </trkpt>
      <trkpt lat="48.68668" lon="2.50805">
        <ele>93</ele>
        <time>2025-12-29T14:21:49.275Z</time>
      </trkpt>
      <trkpt lat="48.68662" lon="2.50808">
        <ele>93</ele>
        <time>2025-12-29T14:21:53.590Z</time>
      </trkpt>
      <trkpt lat="48.68657" lon="2.50809">
        <ele>93</ele>
        <time>2025-12-29T14:21:57.589Z</time>
      </trkpt>
      <trkpt lat="48.68651" lon="2.50808">
        <ele>94</ele>
        <time>2025-12-29T14:22:01.734Z</time>
      </trkpt>
      <trkpt lat="48.68645" lon="2.50807">
        <ele>94</ele>
        <time>2025-12-29T14:22:06.169Z</time>
      </trkpt>
      <trkpt lat="48.68641" lon="2.50806">
        <ele>94</ele>
        <time>2025-12-29T14:22:10.411Z</time>
      </trkpt>
      <trkpt lat="48.68635" lon="2.50809">
        <ele>94</ele>
        <time>2025-12-29T14:22:14.611Z</time>
      </trkpt>
      <trkpt lat="48.68629" lon="2.50812">
        <ele>94</ele>
        <time>2025-12-29T14:22:18.895Z</time>
      </trkpt>
      <trkpt lat="48.68625" lon="2.50813">
        <ele>94</ele>
        <time>2025-12-29T14:22:22.895Z</time>
      </trkpt>
      <trkpt lat="48.6862" lon="2.50812">
        <ele>94</ele>
        <time>2025-12-29T14:22:27.470Z</time>
      </trkpt>
      <trkpt lat="48.68615" lon="2.50811">
        <ele>94</ele>
        <time>2025-12-29T14:22:31.895Z</time>
      </trkpt>
      <trkpt lat="48.68609" lon="2.50811">
        <ele>94</ele>
        <time>2025-12-29T14:22:36.594Z</time>
      </trkpt>
      <trkpt lat="48.68602" lon="2.50809">
        <ele>94</ele>
        <time>2025-12-29T14:22:41.096Z</time>
      </trkpt>
      <trkpt lat="48.68596" lon="2.50813">
        <ele>93</ele>
        <time>2025-12-29T14:22:45.753Z</time>
      </trkpt>
      <trkpt lat="48.68592" lon="2.50818">
        <ele>93</ele>
        <time>2025-12-29T14:22:49.895Z</time>
      </trkpt>
      <trkpt lat="48.68588" lon="2.50818">
        <ele>93</ele>
        <time>2025-12-29T14:22:54.570Z</time>
      </trkpt>
      <trkpt lat="48.68584" lon="2.50818">
        <ele>93</ele>
        <time>2025-12-29T14:22:58.688Z</time>
      </trkpt>
      <trkpt lat="48.68581" lon="2.50819">
        <ele>92</ele>
        <time>2025-12-29T14:23:02.968Z</time>
      </trkpt>
      <trkpt lat="48.68577" lon="2.50821">
        <ele>92</ele>
        <time>2025-12-29T14:23:07.471Z</time>
      </trkpt>
      <trkpt lat="48.68575" lon="2.50821">
        <ele>92</ele>
        <time>2025-12-29T14:23:11.615Z</time>
      </trkpt>
      <trkpt lat="48.68571" lon="2.50822">
        <ele>92</ele>
        <time>2025-12-29T14:23:15.895Z</time>
      </trkpt>
      <trkpt lat="48.68567" lon="2.50822">
        <ele>91</ele>
        <time>2025-12-29T14:23:20.390Z</time>
      </trkpt>
      <trkpt lat="48.68563" lon="2.50822">
        <ele>91</ele>
        <time>2025-12-29T14:23:24.533Z</time>
      </trkpt>
      <trkpt lat="48.6856" lon="2.50822">
        <ele>91</ele>
        <time>2025-12-29T14:23:28.895Z</time>
      </trkpt>
      <trkpt lat="48.68555" lon="2.50822">
        <ele>91</ele>
        <time>2025-12-29T14:23:33.895Z</time>
      </trkpt>
      <trkpt lat="48.68548" lon="2.50822">
        <ele>91</ele>
        <time>2025-12-29T14:23:51.895Z</time>
      </trkpt>
      <trkpt lat="48.68544" lon="2.50822">
        <ele>91</ele>
        <time>2025-12-29T14:23:55.895Z</time>
      </trkpt>
      <trkpt lat="48.68539" lon="2.50828">
        <ele>91</ele>
        <time>2025-12-29T14:23:59.895Z</time>
      </trkpt>
      <trkpt lat="48.68533" lon="2.50832">
        <ele>91</ele>
        <time>2025-12-29T14:24:04.895Z</time>
      </trkpt>
      <trkpt lat="48.68528" lon="2.50833">
        <ele>91</ele>
        <time>2025-12-29T14:24:09.150Z</time>
      </trkpt>
      <trkpt lat="48.68522" lon="2.50836">
        <ele>91</ele>
        <time>2025-12-29T14:24:13.899Z</time>
      </trkpt>
      <trkpt lat="48.68518" lon="2.50836">
        <ele>91</ele>
        <time>2025-12-29T14:24:17.895Z</time>
      </trkpt>
      <trkpt lat="48.68512" lon="2.50836">
        <ele>92</ele>
        <time>2025-12-29T14:24:22.452Z</time>
      </trkpt>
      <trkpt lat="48.68509" lon="2.50836">
        <ele>92</ele>
        <time>2025-12-29T14:24:26.619Z</time>
      </trkpt>
      <trkpt lat="48.68507" lon="2.5084">
        <ele>92</ele>
        <time>2025-12-29T14:24:35.455Z</time>
      </trkpt>
      <trkpt lat="48.68508" lon="2.50841">
        <ele>92</ele>
        <time>2025-12-29T14:24:39.612Z</time>
      </trkpt>
      <trkpt lat="48.68504" lon="2.50841">
        <ele>92</ele>
        <time>2025-12-29T14:24:43.895Z</time>
      </trkpt>
      <trkpt lat="48.68502" lon="2.50842">
        <ele>92</ele>
        <time>2025-12-29T14:24:48.511Z</time>
      </trkpt>
      <trkpt lat="48.68496" lon="2.5084">
        <ele>92</ele>
        <time>2025-12-29T14:24:52.630Z</time>
      </trkpt>
      <trkpt lat="48.68491" lon="2.50839">
        <ele>92</ele>
        <time>2025-12-29T14:24:56.936Z</time>
      </trkpt>
      <trkpt lat="48.68485" lon="2.50835">
        <ele>93</ele>
        <time>2025-12-29T14:25:01.370Z</time>
      </trkpt>
      <trkpt lat="48.68478" lon="2.50838">
        <ele>93</ele>
        <time>2025-12-29T14:25:05.895Z</time>
      </trkpt>
      <trkpt lat="48.68471" lon="2.50842">
        <ele>93</ele>
        <time>2025-12-29T14:25:10.895Z</time>
      </trkpt>
      <trkpt lat="48.68466" lon="2.50843">
        <ele>93</ele>
        <time>2025-12-29T14:25:15.534Z</time>
      </trkpt>
      <trkpt lat="48.68464" lon="2.50846">
        <ele>93</ele>
        <time>2025-12-29T14:25:19.730Z</time>
      </trkpt>
      <trkpt lat="48.68462" lon="2.50856">
        <ele>93</ele>
        <time>2025-12-29T14:25:24.770Z</time>
      </trkpt>
      <trkpt lat="48.68456" lon="2.50862">
        <ele>93</ele>
        <time>2025-12-29T14:25:29.408Z</time>
      </trkpt>
      <trkpt lat="48.68452" lon="2.50867">
        <ele>93</ele>
        <time>2025-12-29T14:25:33.594Z</time>
      </trkpt>
      <trkpt lat="48.68448" lon="2.50869">
        <ele>93</ele>
        <time>2025-12-29T14:25:37.895Z</time>
      </trkpt>
      <trkpt lat="48.68444" lon="2.50873">
        <ele>93</ele>
        <time>2025-12-29T14:25:42.665Z</time>
      </trkpt>
      <trkpt lat="48.6844" lon="2.50877">
        <ele>94</ele>
        <time>2025-12-29T14:25:47.495Z</time>
      </trkpt>
      <trkpt lat="48.68438" lon="2.50883">
        <ele>94</ele>
        <time>2025-12-29T14:25:51.677Z</time>
      </trkpt>
      <trkpt lat="48.68435" lon="2.50888">
        <ele>94</ele>
        <time>2025-12-29T14:25:55.869Z</time>
      </trkpt>
      <trkpt lat="48.68429" lon="2.50893">
        <ele>93</ele>
        <time>2025-12-29T14:26:00.895Z</time>
      </trkpt>
      <trkpt lat="48.68425" lon="2.509">
        <ele>93</ele>
        <time>2025-12-29T14:26:05.410Z</time>
      </trkpt>
      <trkpt lat="48.68421" lon="2.50906">
        <ele>93</ele>
        <time>2025-12-29T14:26:09.734Z</time>
      </trkpt>
      <trkpt lat="48.68418" lon="2.50913">
        <ele>93</ele>
        <time>2025-12-29T14:26:13.810Z</time>
      </trkpt>
      <trkpt lat="48.68414" lon="2.5092">
        <ele>93</ele>
        <time>2025-12-29T14:26:18.330Z</time>
      </trkpt>
      <trkpt lat="48.68408" lon="2.50922">
        <ele>93</ele>
        <time>2025-12-29T14:26:22.857Z</time>
      </trkpt>
      <trkpt lat="48.68402" lon="2.50924">
        <ele>94</ele>
        <time>2025-12-29T14:26:26.994Z</time>
      </trkpt>
      <trkpt lat="48.68397" lon="2.50926">
        <ele>94</ele>
        <time>2025-12-29T14:26:31.496Z</time>
      </trkpt>
      <trkpt lat="48.68392" lon="2.50926">
        <ele>94</ele>
        <time>2025-12-29T14:26:35.673Z</time>
      </trkpt>
      <trkpt lat="48.68386" lon="2.50926">
        <ele>94</ele>
        <time>2025-12-29T14:26:40.895Z</time>
      </trkpt>
      <trkpt lat="48.68381" lon="2.50924">
        <ele>94</ele>
        <time>2025-12-29T14:26:45.471Z</time>
      </trkpt>
      <trkpt lat="48.68377" lon="2.50923">
        <ele>94</ele>
        <time>2025-12-29T14:26:49.574Z</time>
      </trkpt>
      <trkpt lat="48.68372" lon="2.5092">
        <ele>96</ele>
        <time>2025-12-29T14:26:53.914Z</time>
      </trkpt>
      <trkpt lat="48.6837" lon="2.50919">
        <ele>96</ele>
        <time>2025-12-29T14:26:57.895Z</time>
      </trkpt>
      <trkpt lat="48.68365" lon="2.50917">
        <ele>96</ele>
        <time>2025-12-29T14:27:02.551Z</time>
      </trkpt>
      <trkpt lat="48.6836" lon="2.50915">
        <ele>96</ele>
        <time>2025-12-29T14:27:06.895Z</time>
      </trkpt>
      <trkpt lat="48.68355" lon="2.50913">
        <ele>96</ele>
        <time>2025-12-29T14:27:11.895Z</time>
      </trkpt>
      <trkpt lat="48.6835" lon="2.50912">
        <ele>96</ele>
        <time>2025-12-29T14:27:16.895Z</time>
      </trkpt>
      <trkpt lat="48.68345" lon="2.50911">
        <ele>94</ele>
        <time>2025-12-29T14:27:21.788Z</time>
      </trkpt>
      <trkpt lat="48.6834" lon="2.50907">
        <ele>94</ele>
        <time>2025-12-29T14:27:26.854Z</time>
      </trkpt>
      <trkpt lat="48.68335" lon="2.50905">
        <ele>94</ele>
        <time>2025-12-29T14:27:31.108Z</time>
      </trkpt>
      <trkpt lat="48.68332" lon="2.50897">
        <ele>95</ele>
        <time>2025-12-29T14:27:35.895Z</time>
      </trkpt>
      <trkpt lat="48.68329" lon="2.5089">
        <ele>95</ele>
        <time>2025-12-29T14:27:40.454Z</time>
      </trkpt>
      <trkpt lat="48.68326" lon="2.50884">
        <ele>95</ele>
        <time>2025-12-29T14:27:44.895Z</time>
      </trkpt>
      <trkpt lat="48.68321" lon="2.50879">
        <ele>95</ele>
        <time>2025-12-29T14:27:49.835Z</time>
      </trkpt>
      <trkpt lat="48.68319" lon="2.50868">
        <ele>94</ele>
        <time>2025-12-29T14:27:54.895Z</time>
      </trkpt>
      <trkpt lat="48.68318" lon="2.5086">
        <ele>94</ele>
        <time>2025-12-29T14:27:59.411Z</time>
      </trkpt>
      <trkpt lat="48.68317" lon="2.50853">
        <ele>94</ele>
        <time>2025-12-29T14:28:03.589Z</time>
      </trkpt>
      <trkpt lat="48.68316" lon="2.50845">
        <ele>94</ele>
        <time>2025-12-29T14:28:07.887Z</time>
      </trkpt>
      <trkpt lat="48.68315" lon="2.50838">
        <ele>94</ele>
        <time>2025-12-29T14:28:12.090Z</time>
      </trkpt>
      <trkpt lat="48.68314" lon="2.50831">
        <ele>94</ele>
        <time>2025-12-29T14:28:16.167Z</time>
      </trkpt>
      <trkpt lat="48.68313" lon="2.50822">
        <ele>94</ele>
        <time>2025-12-29T14:28:20.895Z</time>
      </trkpt>
      <trkpt lat="48.68312" lon="2.50815">
        <ele>93</ele>
        <time>2025-12-29T14:28:25.350Z</time>
      </trkpt>
      <trkpt lat="48.68312" lon="2.50808">
        <ele>93</ele>
        <time>2025-12-29T14:28:29.690Z</time>
      </trkpt>
      <trkpt lat="48.68312" lon="2.508">
        <ele>93</ele>
        <time>2025-12-29T14:28:33.895Z</time>
      </trkpt>
      <trkpt lat="48.68313" lon="2.50792">
        <ele>93</ele>
        <time>2025-12-29T14:28:38.431Z</time>
      </trkpt>
      <trkpt lat="48.68313" lon="2.50785">
        <ele>91</ele>
        <time>2025-12-29T14:28:42.594Z</time>
      </trkpt>
      <trkpt lat="48.68312" lon="2.50775">
        <ele>91</ele>
        <time>2025-12-29T14:28:47.693Z</time>
      </trkpt>
      <trkpt lat="48.6831" lon="2.50767">
        <ele>91</ele>
        <time>2025-12-29T14:28:51.895Z</time>
      </trkpt>
      <trkpt lat="48.68309" lon="2.50759">
        <ele>90</ele>
        <time>2025-12-29T14:28:55.895Z</time>
      </trkpt>
      <trkpt lat="48.68308" lon="2.5075">
        <ele>90</ele>
        <time>2025-12-29T14:29:00.865Z</time>
      </trkpt>
      <trkpt lat="48.68309" lon="2.50741">
        <ele>90</ele>
        <time>2025-12-29T14:29:05.873Z</time>
      </trkpt>
      <trkpt lat="48.68307" lon="2.50733">
        <ele>90</ele>
        <time>2025-12-29T14:29:09.895Z</time>
      </trkpt>
      <trkpt lat="48.68304" lon="2.50727">
        <ele>90</ele>
        <time>2025-12-29T14:29:14.109Z</time>
      </trkpt>
      <trkpt lat="48.68301" lon="2.50719">
        <ele>90</ele>
        <time>2025-12-29T14:29:18.595Z</time>
      </trkpt>
      <trkpt lat="48.68299" lon="2.50712">
        <ele>90</ele>
        <time>2025-12-29T14:29:22.895Z</time>
      </trkpt>
      <trkpt lat="48.68296" lon="2.50706">
        <ele>91</ele>
        <time>2025-12-29T14:29:27.146Z</time>
      </trkpt>
      <trkpt lat="48.68297" lon="2.507">
        <ele>91</ele>
        <time>2025-12-29T14:29:31.394Z</time>
      </trkpt>
      <trkpt lat="48.68297" lon="2.50691">
        <ele>91</ele>
        <time>2025-12-29T14:29:35.425Z</time>
      </trkpt>
      <trkpt lat="48.68293" lon="2.50685">
        <ele>91</ele>
        <time>2025-12-29T14:29:39.895Z</time>
      </trkpt>
      <trkpt lat="48.68293" lon="2.50675">
        <ele>92</ele>
        <time>2025-12-29T14:41:17.895Z</time>
      </trkpt>
      <trkpt lat="48.68293" lon="2.50675">
        <ele>92</ele>
        <time>2025-12-29T14:41:22.895Z</time>
      </trkpt>
      <trkpt lat="48.68292" lon="2.50674">
        <ele>92</ele>
        <time>2025-12-29T14:41:27.895Z</time>
      </trkpt>
      <trkpt lat="48.68291" lon="2.50672">
        <ele>89</ele>
        <time>2025-12-29T14:41:32.895Z</time>
      </trkpt>
      <trkpt lat="48.68289" lon="2.5067">
        <ele>89</ele>
        <time>2025-12-29T14:41:36.895Z</time>
      </trkpt>
      <trkpt lat="48.68288" lon="2.50666">
        <ele>89</ele>
        <time>2025-12-29T14:41:40.895Z</time>
      </trkpt>
      <trkpt lat="48.68286" lon="2.50661">
        <ele>89</ele>
        <time>2025-12-29T14:41:45.895Z</time>
      </trkpt>
      <trkpt lat="48.68285" lon="2.50661">
        <ele>89</ele>
        <time>2025-12-29T14:41:49.895Z</time>
      </trkpt>
      <trkpt lat="48.68284" lon="2.50661">
        <ele>89</ele>
        <time>2025-12-29T14:41:54.542Z</time>
      </trkpt>
      <trkpt lat="48.68278" lon="2.5066">
        <ele>89</ele>
        <time>2025-12-29T14:41:58.895Z</time>
      </trkpt>
      <trkpt lat="48.68275" lon="2.50656">
        <ele>89</ele>
        <time>2025-12-29T14:42:03.721Z</time>
      </trkpt>
      <trkpt lat="48.68273" lon="2.50648">
        <ele>90</ele>
        <time>2025-12-29T14:42:07.895Z</time>
      </trkpt>
      <trkpt lat="48.6827" lon="2.50642">
        <ele>90</ele>
        <time>2025-12-29T14:42:12.261Z</time>
      </trkpt>
      <trkpt lat="48.68267" lon="2.50636">
        <ele>90</ele>
        <time>2025-12-29T14:42:16.262Z</time>
      </trkpt>
      <trkpt lat="48.68266" lon="2.5063">
        <ele>90</ele>
        <time>2025-12-29T14:42:20.483Z</time>
      </trkpt>
      <trkpt lat="48.68265" lon="2.50622">
        <ele>91</ele>
        <time>2025-12-29T14:42:25.657Z</time>
      </trkpt>
      <trkpt lat="48.68262" lon="2.50618">
        <ele>88</ele>
        <time>2025-12-29T14:42:29.779Z</time>
      </trkpt>
      <trkpt lat="48.68258" lon="2.50614">
        <ele>88</ele>
        <time>2025-12-29T14:42:33.895Z</time>
      </trkpt>
      <trkpt lat="48.68255" lon="2.50608">
        <ele>88</ele>
        <time>2025-12-29T14:42:38.895Z</time>
      </trkpt>
      <trkpt lat="48.68254" lon="2.50601">
        <ele>88</ele>
        <time>2025-12-29T14:42:43.521Z</time>
      </trkpt>
      <trkpt lat="48.6825" lon="2.50597">
        <ele>90</ele>
        <time>2025-12-29T14:42:47.682Z</time>
      </trkpt>
      <trkpt lat="48.68246" lon="2.50594">
        <ele>90</ele>
        <time>2025-12-29T14:42:51.895Z</time>
      </trkpt>
      <trkpt lat="48.68242" lon="2.50591">
        <ele>90</ele>
        <time>2025-12-29T14:42:56.798Z</time>
      </trkpt>
      <trkpt lat="48.68237" lon="2.50587">
        <ele>90</ele>
        <time>2025-12-29T14:43:00.895Z</time>
      </trkpt>
      <trkpt lat="48.68234" lon="2.50582">
        <ele>86</ele>
        <time>2025-12-29T14:43:05.321Z</time>
      </trkpt>
      <trkpt lat="48.68232" lon="2.50575">
        <ele>86</ele>
        <time>2025-12-29T14:43:09.531Z</time>
      </trkpt>
      <trkpt lat="48.6823" lon="2.50568">
        <ele>86</ele>
        <time>2025-12-29T14:43:13.803Z</time>
      </trkpt>
      <trkpt lat="48.68226" lon="2.50561">
        <ele>86</ele>
        <time>2025-12-29T14:43:18.170Z</time>
      </trkpt>
      <trkpt lat="48.68222" lon="2.50555">
        <ele>86</ele>
        <time>2025-12-29T14:43:22.444Z</time>
      </trkpt>
      <trkpt lat="48.6822" lon="2.50549">
        <ele>86</ele>
        <time>2025-12-29T14:43:26.895Z</time>
      </trkpt>
      <trkpt lat="48.68216" lon="2.50545">
        <ele>86</ele>
        <time>2025-12-29T14:43:31.364Z</time>
      </trkpt>
      <trkpt lat="48.68212" lon="2.5054">
        <ele>89</ele>
        <time>2025-12-29T14:43:35.895Z</time>
      </trkpt>
      <trkpt lat="48.68208" lon="2.50535">
        <ele>87</ele>
        <time>2025-12-29T14:43:40.251Z</time>
      </trkpt>
      <trkpt lat="48.68206" lon="2.50529">
        <ele>87</ele>
        <time>2025-12-29T14:43:44.523Z</time>
      </trkpt>
      <trkpt lat="48.68201" lon="2.5052">
        <ele>87</ele>
        <time>2025-12-29T14:43:49.032Z</time>
      </trkpt>
      <trkpt lat="48.68197" lon="2.50513">
        <ele>89</ele>
        <time>2025-12-29T14:43:53.895Z</time>
      </trkpt>
      <trkpt lat="48.68192" lon="2.50508">
        <ele>89</ele>
        <time>2025-12-29T14:43:58.389Z</time>
      </trkpt>
      <trkpt lat="48.68189" lon="2.50502">
        <ele>89</ele>
        <time>2025-12-29T14:44:02.628Z</time>
      </trkpt>
      <trkpt lat="48.68185" lon="2.50497">
        <ele>89</ele>
        <time>2025-12-29T14:44:06.748Z</time>
      </trkpt>
      <trkpt lat="48.68182" lon="2.50491">
        <ele>89</ele>
        <time>2025-12-29T14:44:10.909Z</time>
      </trkpt>
      <trkpt lat="48.68179" lon="2.50486">
        <ele>91</ele>
        <time>2025-12-29T14:44:14.895Z</time>
      </trkpt>
      <trkpt lat="48.68175" lon="2.50481">
        <ele>91</ele>
        <time>2025-12-29T14:44:19.908Z</time>
      </trkpt>
      <trkpt lat="48.68169" lon="2.50477">
        <ele>91</ele>
        <time>2025-12-29T14:44:24.846Z</time>
      </trkpt>
      <trkpt lat="48.68165" lon="2.50471">
        <ele>91</ele>
        <time>2025-12-29T14:44:29.288Z</time>
      </trkpt>
      <trkpt lat="48.68162" lon="2.50466">
        <ele>91</ele>
        <time>2025-12-29T14:44:33.323Z</time>
      </trkpt>
      <trkpt lat="48.68159" lon="2.50459">
        <ele>91</ele>
        <time>2025-12-29T14:44:37.569Z</time>
      </trkpt>
      <trkpt lat="48.68157" lon="2.50453">
        <ele>92</ele>
        <time>2025-12-29T14:44:41.705Z</time>
      </trkpt>
      <trkpt lat="48.68153" lon="2.50449">
        <ele>92</ele>
        <time>2025-12-29T14:44:45.902Z</time>
      </trkpt>
      <trkpt lat="48.68148" lon="2.50446">
        <ele>92</ele>
        <time>2025-12-29T14:44:50.432Z</time>
      </trkpt>
      <trkpt lat="48.68144" lon="2.50442">
        <ele>92</ele>
        <time>2025-12-29T14:44:54.627Z</time>
      </trkpt>
      <trkpt lat="48.6814" lon="2.5044">
        <ele>92</ele>
        <time>2025-12-29T14:44:58.830Z</time>
      </trkpt>
      <trkpt lat="48.68135" lon="2.50437">
        <ele>92</ele>
        <time>2025-12-29T14:45:03.205Z</time>
      </trkpt>
      <trkpt lat="48.68132" lon="2.50433">
        <ele>92</ele>
        <time>2025-12-29T14:45:07.188Z</time>
      </trkpt>
      <trkpt lat="48.68127" lon="2.50426">
        <ele>92</ele>
        <time>2025-12-29T14:45:11.750Z</time>
      </trkpt>
      <trkpt lat="48.68122" lon="2.50422">
        <ele>92</ele>
        <time>2025-12-29T14:45:15.766Z</time>
      </trkpt>
      <trkpt lat="48.68118" lon="2.50417">
        <ele>92</ele>
        <time>2025-12-29T14:45:19.886Z</time>
      </trkpt>
      <trkpt lat="48.68113" lon="2.50413">
        <ele>92</ele>
        <time>2025-12-29T14:45:24.363Z</time>
      </trkpt>
      <trkpt lat="48.68108" lon="2.50408">
        <ele>92</ele>
        <time>2025-12-29T14:45:28.730Z</time>
      </trkpt>
      <trkpt lat="48.68104" lon="2.50405">
        <ele>92</ele>
        <time>2025-12-29T14:45:32.764Z</time>
      </trkpt>
      <trkpt lat="48.68101" lon="2.50401">
        <ele>93</ele>
        <time>2025-12-29T14:45:36.895Z</time>
      </trkpt>
      <trkpt lat="48.68096" lon="2.50397">
        <ele>92</ele>
        <time>2025-12-29T14:45:41.265Z</time>
      </trkpt>
      <trkpt lat="48.68092" lon="2.50395">
        <ele>92</ele>
        <time>2025-12-29T14:45:45.325Z</time>
      </trkpt>
      <trkpt lat="48.68086" lon="2.50394">
        <ele>92</ele>
        <time>2025-12-29T14:45:49.895Z</time>
      </trkpt>
      <trkpt lat="48.6808" lon="2.50392">
        <ele>92</ele>
        <time>2025-12-29T14:45:54.608Z</time>
      </trkpt>
      <trkpt lat="48.68073" lon="2.50391">
        <ele>92</ele>
        <time>2025-12-29T14:45:59.247Z</time>
      </trkpt>
      <trkpt lat="48.68068" lon="2.50392">
        <ele>93</ele>
        <time>2025-12-29T14:46:03.655Z</time>
      </trkpt>
      <trkpt lat="48.68062" lon="2.50396">
        <ele>93</ele>
        <time>2025-12-29T14:46:08.183Z</time>
      </trkpt>
      <trkpt lat="48.68057" lon="2.50398">
        <ele>93</ele>
        <time>2025-12-29T14:46:12.895Z</time>
      </trkpt>
      <trkpt lat="48.68051" lon="2.50398">
        <ele>93</ele>
        <time>2025-12-29T14:46:17.165Z</time>
      </trkpt>
      <trkpt lat="48.68047" lon="2.50397">
        <ele>93</ele>
        <time>2025-12-29T14:46:21.463Z</time>
      </trkpt>
      <trkpt lat="48.68042" lon="2.50396">
        <ele>93</ele>
        <time>2025-12-29T14:46:25.827Z</time>
      </trkpt>
      <trkpt lat="48.68037" lon="2.50392">
        <ele>92</ele>
        <time>2025-12-29T14:46:29.895Z</time>
      </trkpt>
      <trkpt lat="48.68031" lon="2.5039">
        <ele>92</ele>
        <time>2025-12-29T14:46:34.108Z</time>
      </trkpt>
      <trkpt lat="48.68027" lon="2.5039">
        <ele>92</ele>
        <time>2025-12-29T14:46:38.485Z</time>
      </trkpt>
      <trkpt lat="48.68022" lon="2.50389">
        <ele>92</ele>
        <time>2025-12-29T14:46:42.808Z</time>
      </trkpt>
      <trkpt lat="48.68018" lon="2.50386">
        <ele>92</ele>
        <time>2025-12-29T14:46:46.895Z</time>
      </trkpt>
      <trkpt lat="48.68013" lon="2.50382">
        <ele>92</ele>
        <time>2025-12-29T14:46:51.807Z</time>
      </trkpt>
      <trkpt lat="48.68011" lon="2.50376">
        <ele>92</ele>
        <time>2025-12-29T14:46:55.895Z</time>
      </trkpt>
      <trkpt lat="48.68009" lon="2.5037">
        <ele>92</ele>
        <time>2025-12-29T14:47:00.229Z</time>
      </trkpt>
      <trkpt lat="48.6801" lon="2.50364">
        <ele>92</ele>
        <time>2025-12-29T14:47:04.895Z</time>
      </trkpt>
      <trkpt lat="48.68011" lon="2.50357">
        <ele>92</ele>
        <time>2025-12-29T14:47:09.329Z</time>
      </trkpt>
      <trkpt lat="48.68012" lon="2.5035">
        <ele>92</ele>
        <time>2025-12-29T14:47:13.895Z</time>
      </trkpt>
      <trkpt lat="48.68013" lon="2.50344">
        <ele>93</ele>
        <time>2025-12-29T14:47:18.164Z</time>
      </trkpt>
      <trkpt lat="48.68013" lon="2.50337">
        <ele>93</ele>
        <time>2025-12-29T14:47:22.895Z</time>
      </trkpt>
      <trkpt lat="48.68012" lon="2.50329">
        <ele>93</ele>
        <time>2025-12-29T14:47:27.843Z</time>
      </trkpt>
      <trkpt lat="48.68012" lon="2.5032">
        <ele>93</ele>
        <time>2025-12-29T14:47:32.900Z</time>
      </trkpt>
      <trkpt lat="48.68012" lon="2.50314">
        <ele>94</ele>
        <time>2025-12-29T14:47:37.827Z</time>
      </trkpt>
      <trkpt lat="48.68011" lon="2.50307">
        <ele>94</ele>
        <time>2025-12-29T14:47:41.922Z</time>
      </trkpt>
      <trkpt lat="48.68009" lon="2.50301">
        <ele>94</ele>
        <time>2025-12-29T14:47:46.485Z</time>
      </trkpt>
      <trkpt lat="48.68006" lon="2.50294">
        <ele>94</ele>
        <time>2025-12-29T14:47:50.851Z</time>
      </trkpt>
      <trkpt lat="48.68005" lon="2.5029">
        <ele>94</ele>
        <time>2025-12-29T14:47:54.895Z</time>
      </trkpt>
      <trkpt lat="48.68004" lon="2.50288">
        <ele>94</ele>
        <time>2025-12-29T14:47:59.895Z</time>
      </trkpt>
      <trkpt lat="48.68006" lon="2.50283">
        <ele>94</ele>
        <time>2025-12-29T14:48:04.630Z</time>
      </trkpt>
      <trkpt lat="48.68008" lon="2.50276">
        <ele>94</ele>
        <time>2025-12-29T14:48:09.346Z</time>
      </trkpt>
      <trkpt lat="48.68013" lon="2.50273">
        <ele>94</ele>
        <time>2025-12-29T14:48:13.449Z</time>
      </trkpt>
      <trkpt lat="48.68018" lon="2.5027">
        <ele>93</ele>
        <time>2025-12-29T14:48:17.431Z</time>
      </trkpt>
      <trkpt lat="48.68021" lon="2.50265">
        <ele>93</ele>
        <time>2025-12-29T14:48:22.138Z</time>
      </trkpt>
      <trkpt lat="48.68026" lon="2.50259">
        <ele>95</ele>
        <time>2025-12-29T14:48:26.590Z</time>
      </trkpt>
      <trkpt lat="48.68029" lon="2.50253">
        <ele>95</ele>
        <time>2025-12-29T14:48:30.785Z</time>
      </trkpt>
      <trkpt lat="48.68033" lon="2.50247">
        <ele>95</ele>
        <time>2025-12-29T14:48:35.365Z</time>
      </trkpt>
      <trkpt lat="48.68036" lon="2.50241">
        <ele>95</ele>
        <time>2025-12-29T14:48:39.895Z</time>
      </trkpt>
      <trkpt lat="48.68041" lon="2.50235">
        <ele>96</ele>
        <time>2025-12-29T14:48:44.446Z</time>
      </trkpt>
      <trkpt lat="48.68045" lon="2.5023">
        <ele>96</ele>
        <time>2025-12-29T14:48:48.895Z</time>
      </trkpt>
      <trkpt lat="48.6805" lon="2.50224">
        <ele>96</ele>
        <time>2025-12-29T14:48:53.587Z</time>
      </trkpt>
      <trkpt lat="48.68054" lon="2.50221">
        <ele>96</ele>
        <time>2025-12-29T14:48:57.895Z</time>
      </trkpt>
      <trkpt lat="48.68057" lon="2.50216">
        <ele>96</ele>
        <time>2025-12-29T14:49:02.047Z</time>
      </trkpt>
      <trkpt lat="48.68062" lon="2.5021">
        <ele>96</ele>
        <time>2025-12-29T14:49:06.610Z</time>
      </trkpt>
      <trkpt lat="48.68066" lon="2.50204">
        <ele>95</ele>
        <time>2025-12-29T14:49:10.703Z</time>
      </trkpt>
      <trkpt lat="48.6807" lon="2.50199">
        <ele>96</ele>
        <time>2025-12-29T14:49:15.206Z</time>
      </trkpt>
      <trkpt lat="48.68074" lon="2.50193">
        <ele>96</ele>
        <time>2025-12-29T14:49:19.895Z</time>
      </trkpt>
      <trkpt lat="48.68078" lon="2.50188">
        <ele>96</ele>
        <time>2025-12-29T14:49:24.406Z</time>
      </trkpt>
      <trkpt lat="48.68082" lon="2.50182">
        <ele>96</ele>
        <time>2025-12-29T14:49:28.895Z</time>
      </trkpt>
      <trkpt lat="48.68087" lon="2.50177">
        <ele>96</ele>
        <time>2025-12-29T14:49:33.895Z</time>
      </trkpt>
      <trkpt lat="48.68091" lon="2.50171">
        <ele>96</ele>
        <time>2025-12-29T14:49:38.084Z</time>
      </trkpt>
      <trkpt lat="48.68094" lon="2.50165">
        <ele>96</ele>
        <time>2025-12-29T14:49:42.296Z</time>
      </trkpt>
      <trkpt lat="48.68097" lon="2.50159">
        <ele>96</ele>
        <time>2025-12-29T14:49:46.782Z</time>
      </trkpt>
      <trkpt lat="48.68101" lon="2.50155">
        <ele>97</ele>
        <time>2025-12-29T14:49:50.895Z</time>
      </trkpt>
      <trkpt lat="48.68106" lon="2.5015">
        <ele>97</ele>
        <time>2025-12-29T14:49:55.667Z</time>
      </trkpt>
      <trkpt lat="48.68108" lon="2.50148">
        <ele>97</ele>
        <time>2025-12-29T14:49:59.710Z</time>
      </trkpt>
      <trkpt lat="48.68113" lon="2.50147">
        <ele>97</ele>
        <time>2025-12-29T14:50:03.834Z</time>
      </trkpt>
      <trkpt lat="48.68117" lon="2.50141">
        <ele>97</ele>
        <time>2025-12-29T14:50:07.895Z</time>
      </trkpt>
      <trkpt lat="48.68122" lon="2.50134">
        <ele>97</ele>
        <time>2025-12-29T14:50:12.895Z</time>
      </trkpt>
      <trkpt lat="48.68126" lon="2.50127">
        <ele>97</ele>
        <time>2025-12-29T14:50:17.524Z</time>
      </trkpt>
      <trkpt lat="48.68129" lon="2.50121">
        <ele>96</ele>
        <time>2025-12-29T14:50:21.687Z</time>
      </trkpt>
      <trkpt lat="48.68133" lon="2.50115">
        <ele>96</ele>
        <time>2025-12-29T14:50:26.383Z</time>
      </trkpt>
      <trkpt lat="48.68136" lon="2.50109">
        <ele>96</ele>
        <time>2025-12-29T14:50:30.895Z</time>
      </trkpt>
      <trkpt lat="48.6814" lon="2.50103">
        <ele>96</ele>
        <time>2025-12-29T14:50:35.746Z</time>
      </trkpt>
      <trkpt lat="48.68144" lon="2.50097">
        <ele>96</ele>
        <time>2025-12-29T14:50:40.770Z</time>
      </trkpt>
      <trkpt lat="48.68147" lon="2.50091">
        <ele>93</ele>
        <time>2025-12-29T14:50:44.906Z</time>
      </trkpt>
      <trkpt lat="48.6815" lon="2.50085">
        <ele>93</ele>
        <time>2025-12-29T14:50:48.895Z</time>
      </trkpt>
      <trkpt lat="48.68147" lon="2.50077">
        <ele>93</ele>
        <time>2025-12-29T14:50:53.866Z</time>
      </trkpt>
      <trkpt lat="48.68143" lon="2.50071">
        <ele>93</ele>
        <time>2025-12-29T14:50:57.883Z</time>
      </trkpt>
      <trkpt lat="48.68139" lon="2.50067">
        <ele>89</ele>
        <time>2025-12-29T14:51:01.895Z</time>
      </trkpt>
      <trkpt lat="48.68135" lon="2.50061">
        <ele>89</ele>
        <time>2025-12-29T14:51:06.895Z</time>
      </trkpt>
      <trkpt lat="48.6813" lon="2.50058">
        <ele>89</ele>
        <time>2025-12-29T14:51:11.228Z</time>
      </trkpt>
      <trkpt lat="48.68126" lon="2.50056">
        <ele>89</ele>
        <time>2025-12-29T14:51:15.307Z</time>
      </trkpt>
      <trkpt lat="48.6812" lon="2.50054">
        <ele>92</ele>
        <time>2025-12-29T14:51:19.829Z</time>
      </trkpt>
      <trkpt lat="48.68116" lon="2.50051">
        <ele>92</ele>
        <time>2025-12-29T14:51:23.895Z</time>
      </trkpt>
      <trkpt lat="48.68111" lon="2.50045">
        <ele>92</ele>
        <time>2025-12-29T14:51:28.126Z</time>
      </trkpt>
      <trkpt lat="48.68108" lon="2.50038">
        <ele>90</ele>
        <time>2025-12-29T14:51:32.270Z</time>
      </trkpt>
      <trkpt lat="48.68105" lon="2.5003">
        <ele>90</ele>
        <time>2025-12-29T14:51:36.882Z</time>
      </trkpt>
      <trkpt lat="48.68101" lon="2.50023">
        <ele>90</ele>
        <time>2025-12-29T14:51:41.507Z</time>
      </trkpt>
      <trkpt lat="48.68097" lon="2.50018">
        <ele>92</ele>
        <time>2025-12-29T14:51:45.895Z</time>
      </trkpt>
      <trkpt lat="48.68093" lon="2.50015">
        <ele>92</ele>
        <time>2025-12-29T14:51:50.208Z</time>
      </trkpt>
      <trkpt lat="48.68089" lon="2.50011">
        <ele>91</ele>
        <time>2025-12-29T14:51:54.270Z</time>
      </trkpt>
      <trkpt lat="48.68083" lon="2.50009">
        <ele>91</ele>
        <time>2025-12-29T14:51:58.850Z</time>
      </trkpt>
      <trkpt lat="48.68078" lon="2.50004">
        <ele>91</ele>
        <time>2025-12-29T14:52:03.624Z</time>
      </trkpt>
      <trkpt lat="48.68073" lon="2.50003">
        <ele>91</ele>
        <time>2025-12-29T14:52:07.709Z</time>
      </trkpt>
      <trkpt lat="48.68068" lon="2.49998">
        <ele>94</ele>
        <time>2025-12-29T14:52:12.347Z</time>
      </trkpt>
      <trkpt lat="48.68064" lon="2.49992">
        <ele>94</ele>
        <time>2025-12-29T14:52:16.895Z</time>
      </trkpt>
      <trkpt lat="48.68061" lon="2.49986">
        <ele>94</ele>
        <time>2025-12-29T14:52:21.147Z</time>
      </trkpt>
      <trkpt lat="48.68058" lon="2.4998">
        <ele>90</ele>
        <time>2025-12-29T14:52:25.165Z</time>
      </trkpt>
      <trkpt lat="48.68055" lon="2.49975">
        <ele>90</ele>
        <time>2025-12-29T14:52:29.265Z</time>
      </trkpt>
      <trkpt lat="48.6805" lon="2.49969">
        <ele>90</ele>
        <time>2025-12-29T14:52:33.887Z</time>
      </trkpt>
      <trkpt lat="48.68046" lon="2.49965">
        <ele>90</ele>
        <time>2025-12-29T14:52:37.895Z</time>
      </trkpt>
      <trkpt lat="48.6804" lon="2.49961">
        <ele>95</ele>
        <time>2025-12-29T14:52:42.645Z</time>
      </trkpt>
      <trkpt lat="48.68035" lon="2.49959">
        <ele>95</ele>
        <time>2025-12-29T14:52:46.895Z</time>
      </trkpt>
      <trkpt lat="48.68029" lon="2.49955">
        <ele>91</ele>
        <time>2025-12-29T14:52:51.666Z</time>
      </trkpt>
      <trkpt lat="48.68025" lon="2.49949">
        <ele>91</ele>
        <time>2025-12-29T14:52:56.263Z</time>
      </trkpt>
      <trkpt lat="48.68022" lon="2.49943">
        <ele>91</ele>
        <time>2025-12-29T14:53:00.348Z</time>
      </trkpt>
      <trkpt lat="48.68017" lon="2.49938">
        <ele>91</ele>
        <time>2025-12-29T14:53:04.929Z</time>
      </trkpt>
      <trkpt lat="48.68014" lon="2.49933">
        <ele>94</ele>
        <time>2025-12-29T14:53:09.224Z</time>
      </trkpt>
      <trkpt lat="48.68009" lon="2.49929">
        <ele>91</ele>
        <time>2025-12-29T14:53:13.368Z</time>
      </trkpt>
      <trkpt lat="48.68004" lon="2.49927">
        <ele>91</ele>
        <time>2025-12-29T14:53:17.590Z</time>
      </trkpt>
      <trkpt lat="48.67999" lon="2.49927">
        <ele>91</ele>
        <time>2025-12-29T14:53:21.895Z</time>
      </trkpt>
      <trkpt lat="48.67994" lon="2.49927">
        <ele>91</ele>
        <time>2025-12-29T14:53:26.364Z</time>
      </trkpt>
      <trkpt lat="48.67989" lon="2.49922">
        <ele>91</ele>
        <time>2025-12-29T14:53:30.895Z</time>
      </trkpt>
      <trkpt lat="48.67985" lon="2.49917">
        <ele>92</ele>
        <time>2025-12-29T14:53:35.249Z</time>
      </trkpt>
      <trkpt lat="48.67981" lon="2.49909">
        <ele>92</ele>
        <time>2025-12-29T14:53:39.410Z</time>
      </trkpt>
      <trkpt lat="48.67977" lon="2.49903">
        <ele>92</ele>
        <time>2025-12-29T14:53:43.895Z</time>
      </trkpt>
      <trkpt lat="48.67973" lon="2.49897">
        <ele>89</ele>
        <time>2025-12-29T14:53:48.704Z</time>
      </trkpt>
      <trkpt lat="48.6797" lon="2.49891">
        <ele>89</ele>
        <time>2025-12-29T14:53:52.985Z</time>
      </trkpt>
      <trkpt lat="48.67967" lon="2.49885">
        <ele>89</ele>
        <time>2025-12-29T14:53:57.223Z</time>
      </trkpt>
      <trkpt lat="48.67963" lon="2.49881">
        <ele>89</ele>
        <time>2025-12-29T14:54:01.384Z</time>
      </trkpt>
      <trkpt lat="48.6796" lon="2.49877">
        <ele>89</ele>
        <time>2025-12-29T14:54:05.563Z</time>
      </trkpt>
      <trkpt lat="48.67957" lon="2.49869">
        <ele>90</ele>
        <time>2025-12-29T14:54:09.809Z</time>
      </trkpt>
      <trkpt lat="48.67955" lon="2.49862">
        <ele>90</ele>
        <time>2025-12-29T14:54:13.826Z</time>
      </trkpt>
      <trkpt lat="48.67952" lon="2.49856">
        <ele>90</ele>
        <time>2025-12-29T14:54:17.895Z</time>
      </trkpt>
      <trkpt lat="48.67949" lon="2.49848">
        <ele>90</ele>
        <time>2025-12-29T14:54:22.465Z</time>
      </trkpt>
      <trkpt lat="48.67945" lon="2.49842">
        <ele>88</ele>
        <time>2025-12-29T14:54:26.591Z</time>
      </trkpt>
      <trkpt lat="48.67941" lon="2.49835">
        <ele>88</ele>
        <time>2025-12-29T14:54:30.663Z</time>
      </trkpt>
      <trkpt lat="48.67937" lon="2.49829">
        <ele>88</ele>
        <time>2025-12-29T14:54:34.744Z</time>
      </trkpt>
      <trkpt lat="48.67931" lon="2.49826">
        <ele>88</ele>
        <time>2025-12-29T14:54:38.895Z</time>
      </trkpt>
      <trkpt lat="48.67926" lon="2.49819">
        <ele>86</ele>
        <time>2025-12-29T14:54:43.508Z</time>
      </trkpt>
      <trkpt lat="48.67922" lon="2.49815">
        <ele>86</ele>
        <time>2025-12-29T14:54:47.654Z</time>
      </trkpt>
      <trkpt lat="48.67918" lon="2.49808">
        <ele>86</ele>
        <time>2025-12-29T14:54:51.805Z</time>
      </trkpt>
      <trkpt lat="48.67914" lon="2.49805">
        <ele>86</ele>
        <time>2025-12-29T14:54:56.029Z</time>
      </trkpt>
      <trkpt lat="48.67909" lon="2.49804">
        <ele>86</ele>
        <time>2025-12-29T14:55:00.144Z</time>
      </trkpt>
      <trkpt lat="48.67904" lon="2.49803">
        <ele>86</ele>
        <time>2025-12-29T14:55:04.348Z</time>
      </trkpt>
      <trkpt lat="48.67899" lon="2.49801">
        <ele>89</ele>
        <time>2025-12-29T14:55:08.568Z</time>
      </trkpt>
      <trkpt lat="48.67895" lon="2.49795">
        <ele>89</ele>
        <time>2025-12-29T14:55:12.662Z</time>
      </trkpt>
      <trkpt lat="48.67891" lon="2.49789">
        <ele>87</ele>
        <time>2025-12-29T14:55:16.866Z</time>
      </trkpt>
      <trkpt lat="48.67888" lon="2.49783">
        <ele>87</ele>
        <time>2025-12-29T14:55:21.173Z</time>
      </trkpt>
      <trkpt lat="48.67885" lon="2.49776">
        <ele>87</ele>
        <time>2025-12-29T14:55:25.660Z</time>
      </trkpt>
      <trkpt lat="48.67881" lon="2.4977">
        <ele>87</ele>
        <time>2025-12-29T14:55:29.784Z</time>
      </trkpt>
      <trkpt lat="48.67878" lon="2.49768">
        <ele>87</ele>
        <time>2025-12-29T14:55:33.895Z</time>
      </trkpt>
      <trkpt lat="48.67875" lon="2.49763">
        <ele>86</ele>
        <time>2025-12-29T14:55:38.422Z</time>
      </trkpt>
      <trkpt lat="48.67872" lon="2.49757">
        <ele>90</ele>
        <time>2025-12-29T14:55:42.688Z</time>
      </trkpt>
      <trkpt lat="48.67869" lon="2.49751">
        <ele>90</ele>
        <time>2025-12-29T14:55:46.895Z</time>
      </trkpt>
      <trkpt lat="48.67865" lon="2.49746">
        <ele>90</ele>
        <time>2025-12-29T14:55:51.248Z</time>
      </trkpt>
      <trkpt lat="48.67861" lon="2.49743">
        <ele>90</ele>
        <time>2025-12-29T14:55:55.665Z</time>
      </trkpt>
      <trkpt lat="48.67857" lon="2.49739">
        <ele>90</ele>
        <time>2025-12-29T14:55:59.895Z</time>
      </trkpt>
      <trkpt lat="48.67853" lon="2.49734">
        <ele>88</ele>
        <time>2025-12-29T14:56:04.268Z</time>
      </trkpt>
      <trkpt lat="48.67849" lon="2.49728">
        <ele>88</ele>
        <time>2025-12-29T14:56:08.490Z</time>
      </trkpt>
      <trkpt lat="48.67845" lon="2.49722">
        <ele>92</ele>
        <time>2025-12-29T14:56:12.727Z</time>
      </trkpt>
      <trkpt lat="48.67841" lon="2.49718">
        <ele>92</ele>
        <time>2025-12-29T14:56:17.008Z</time>
      </trkpt>
      <trkpt lat="48.67837" lon="2.49713">
        <ele>92</ele>
        <time>2025-12-29T14:56:21.726Z</time>
      </trkpt>
      <trkpt lat="48.67832" lon="2.4971">
        <ele>92</ele>
        <time>2025-12-29T14:56:25.895Z</time>
      </trkpt>
      <trkpt lat="48.67827" lon="2.49708">
        <ele>88</ele>
        <time>2025-12-29T14:56:30.387Z</time>
      </trkpt>
      <trkpt lat="48.67824" lon="2.49703">
        <ele>88</ele>
        <time>2025-12-29T14:56:34.806Z</time>
      </trkpt>
      <trkpt lat="48.67822" lon="2.49694">
        <ele>88</ele>
        <time>2025-12-29T14:56:39.427Z</time>
      </trkpt>
      <trkpt lat="48.67821" lon="2.49687">
        <ele>88</ele>
        <time>2025-12-29T14:56:43.749Z</time>
      </trkpt>
      <trkpt lat="48.67818" lon="2.49683">
        <ele>89</ele>
        <time>2025-12-29T14:56:47.895Z</time>
      </trkpt>
      <trkpt lat="48.67815" lon="2.49681">
        <ele>89</ele>
        <time>2025-12-29T14:56:51.895Z</time>
      </trkpt>
      <trkpt lat="48.6782" lon="2.49665">
        <ele>86</ele>
        <time>2025-12-29T14:57:27.011Z</time>
      </trkpt>
      <trkpt lat="48.6782" lon="2.49664">
        <ele>86</ele>
        <time>2025-12-29T14:57:31.895Z</time>
      </trkpt>
      <trkpt lat="48.6782" lon="2.49663">
        <ele>86</ele>
        <time>2025-12-29T14:57:35.895Z</time>
      </trkpt>
      <trkpt lat="48.6782" lon="2.49662">
        <ele>86</ele>
        <time>2025-12-29T14:57:40.895Z</time>
      </trkpt>
      <trkpt lat="48.6782" lon="2.49661">
        <ele>86</ele>
        <time>2025-12-29T14:57:46.069Z</time>
      </trkpt>
      <trkpt lat="48.67824" lon="2.49654">
        <ele>86</ele>
        <time>2025-12-29T14:57:50.163Z</time>
      </trkpt>
      <trkpt lat="48.67829" lon="2.49647">
        <ele>86</ele>
        <time>2025-12-29T14:57:54.189Z</time>
      </trkpt>
      <trkpt lat="48.67836" lon="2.49641">
        <ele>86</ele>
        <time>2025-12-29T14:57:58.468Z</time>
      </trkpt>
      <trkpt lat="48.67842" lon="2.49641">
        <ele>86</ele>
        <time>2025-12-29T14:58:02.643Z</time>
      </trkpt>
      <trkpt lat="48.67843" lon="2.49643">
        <ele>86</ele>
        <time>2025-12-29T14:58:15.895Z</time>
      </trkpt>
      <trkpt lat="48.67842" lon="2.49643">
        <ele>86</ele>
        <time>2025-12-29T14:58:21.895Z</time>
      </trkpt>
      <trkpt lat="48.67842" lon="2.49642">
        <ele>86</ele>
        <time>2025-12-29T14:58:25.895Z</time>
      </trkpt>
      <trkpt lat="48.67838" lon="2.49633">
        <ele>86</ele>
        <time>2025-12-29T14:58:30.030Z</time>
      </trkpt>
      <trkpt lat="48.67838" lon="2.49623">
        <ele>87</ele>
        <time>2025-12-29T14:58:34.327Z</time>
      </trkpt>
      <trkpt lat="48.67833" lon="2.49618">
        <ele>87</ele>
        <time>2025-12-29T14:58:38.343Z</time>
      </trkpt>
      <trkpt lat="48.67827" lon="2.49619">
        <ele>87</ele>
        <time>2025-12-29T14:58:42.828Z</time>
      </trkpt>
      <trkpt lat="48.67821" lon="2.49618">
        <ele>87</ele>
        <time>2025-12-29T14:58:46.895Z</time>
      </trkpt>
      <trkpt lat="48.67816" lon="2.4962">
        <ele>90</ele>
        <time>2025-12-29T14:58:51.694Z</time>
      </trkpt>
      <trkpt lat="48.67814" lon="2.49622">
        <ele>90</ele>
        <time>2025-12-29T14:58:55.912Z</time>
      </trkpt>
      <trkpt lat="48.6781" lon="2.49623">
        <ele>90</ele>
        <time>2025-12-29T14:59:00.310Z</time>
      </trkpt>
      <trkpt lat="48.67804" lon="2.49627">
        <ele>88</ele>
        <time>2025-12-29T14:59:04.804Z</time>
      </trkpt>
      <trkpt lat="48.67799" lon="2.4963">
        <ele>88</ele>
        <time>2025-12-29T14:59:09.725Z</time>
      </trkpt>
      <trkpt lat="48.67794" lon="2.4963">
        <ele>88</ele>
        <time>2025-12-29T14:59:13.895Z</time>
      </trkpt>
      <trkpt lat="48.6779" lon="2.49627">
        <ele>91</ele>
        <time>2025-12-29T14:59:17.895Z</time>
      </trkpt>
      <trkpt lat="48.67788" lon="2.4962">
        <ele>92</ele>
        <time>2025-12-29T14:59:22.433Z</time>
      </trkpt>
      <trkpt lat="48.67786" lon="2.49613">
        <ele>92</ele>
        <time>2025-12-29T14:59:26.895Z</time>
      </trkpt>
      <trkpt lat="48.67785" lon="2.49593">
        <ele>92</ele>
        <time>2025-12-29T14:59:44.895Z</time>
      </trkpt>
      <trkpt lat="48.67785" lon="2.49586">
        <ele>92</ele>
        <time>2025-12-29T14:59:48.895Z</time>
      </trkpt>
      <trkpt lat="48.67781" lon="2.49579">
        <ele>92</ele>
        <time>2025-12-29T14:59:53.791Z</time>
      </trkpt>
      <trkpt lat="48.67779" lon="2.49571">
        <ele>92</ele>
        <time>2025-12-29T14:59:57.895Z</time>
      </trkpt>
      <trkpt lat="48.67778" lon="2.49564">
        <ele>92</ele>
        <time>2025-12-29T15:00:02.546Z</time>
      </trkpt>
      <trkpt lat="48.67771" lon="2.49559">
        <ele>92</ele>
        <time>2025-12-29T15:00:06.887Z</time>
      </trkpt>
      <trkpt lat="48.67772" lon="2.49551">
        <ele>92</ele>
        <time>2025-12-29T15:00:10.895Z</time>
      </trkpt>
      <trkpt lat="48.67771" lon="2.4954">
        <ele>92</ele>
        <time>2025-12-29T15:00:15.551Z</time>
      </trkpt>
      <trkpt lat="48.67769" lon="2.49533">
        <ele>92</ele>
        <time>2025-12-29T15:00:19.930Z</time>
      </trkpt>
      <trkpt lat="48.67769" lon="2.49527">
        <ele>92</ele>
        <time>2025-12-29T15:00:24.890Z</time>
      </trkpt>
      <trkpt lat="48.67768" lon="2.49519">
        <ele>92</ele>
        <time>2025-12-29T15:00:29.751Z</time>
      </trkpt>
      <trkpt lat="48.67766" lon="2.49511">
        <ele>91</ele>
        <time>2025-12-29T15:00:33.895Z</time>
      </trkpt>
      <trkpt lat="48.67762" lon="2.49506">
        <ele>91</ele>
        <time>2025-12-29T15:00:38.345Z</time>
      </trkpt>
      <trkpt lat="48.67761" lon="2.49498">
        <ele>91</ele>
        <time>2025-12-29T15:00:42.609Z</time>
      </trkpt>
      <trkpt lat="48.67758" lon="2.4949">
        <ele>91</ele>
        <time>2025-12-29T15:00:47.086Z</time>
      </trkpt>
      <trkpt lat="48.67752" lon="2.4948">
        <ele>90</ele>
        <time>2025-12-29T15:00:51.574Z</time>
      </trkpt>
      <trkpt lat="48.67749" lon="2.49471">
        <ele>90</ele>
        <time>2025-12-29T15:00:55.869Z</time>
      </trkpt>
      <trkpt lat="48.67747" lon="2.49461">
        <ele>90</ele>
        <time>2025-12-29T15:00:59.895Z</time>
      </trkpt>
      <trkpt lat="48.67746" lon="2.49453">
        <ele>90</ele>
        <time>2025-12-29T15:01:04.406Z</time>
      </trkpt>
      <trkpt lat="48.67745" lon="2.49446">
        <ele>90</ele>
        <time>2025-12-29T15:01:08.900Z</time>
      </trkpt>
      <trkpt lat="48.67743" lon="2.49439">
        <ele>90</ele>
        <time>2025-12-29T15:01:13.385Z</time>
      </trkpt>
      <trkpt lat="48.6774" lon="2.4943">
        <ele>90</ele>
        <time>2025-12-29T15:01:17.829Z</time>
      </trkpt>
      <trkpt lat="48.67738" lon="2.49423">
        <ele>90</ele>
        <time>2025-12-29T15:01:22.333Z</time>
      </trkpt>
      <trkpt lat="48.67736" lon="2.49415">
        <ele>90</ele>
        <time>2025-12-29T15:01:26.790Z</time>
      </trkpt>
      <trkpt lat="48.67735" lon="2.49407">
        <ele>91</ele>
        <time>2025-12-29T15:01:31.310Z</time>
      </trkpt>
      <trkpt lat="48.67732" lon="2.494">
        <ele>92</ele>
        <time>2025-12-29T15:01:35.710Z</time>
      </trkpt>
      <trkpt lat="48.67729" lon="2.49392">
        <ele>92</ele>
        <time>2025-12-29T15:01:40.229Z</time>
      </trkpt>
      <trkpt lat="48.67726" lon="2.49385">
        <ele>92</ele>
        <time>2025-12-29T15:01:44.273Z</time>
      </trkpt>
      <trkpt lat="48.67723" lon="2.49378">
        <ele>92</ele>
        <time>2025-12-29T15:01:48.690Z</time>
      </trkpt>
      <trkpt lat="48.67721" lon="2.4937">
        <ele>92</ele>
        <time>2025-12-29T15:01:52.705Z</time>
      </trkpt>
      <trkpt lat="48.67719" lon="2.49361">
        <ele>92</ele>
        <time>2025-12-29T15:01:57.208Z</time>
      </trkpt>
      <trkpt lat="48.67719" lon="2.4935">
        <ele>92</ele>
        <time>2025-12-29T15:02:01.667Z</time>
      </trkpt>
      <trkpt lat="48.67719" lon="2.4934">
        <ele>92</ele>
        <time>2025-12-29T15:02:05.898Z</time>
      </trkpt>
      <trkpt lat="48.67717" lon="2.49332">
        <ele>92</ele>
        <time>2025-12-29T15:02:10.127Z</time>
      </trkpt>
      <trkpt lat="48.67713" lon="2.49324">
        <ele>92</ele>
        <time>2025-12-29T15:02:14.587Z</time>
      </trkpt>
      <trkpt lat="48.6771" lon="2.49319">
        <ele>92</ele>
        <time>2025-12-29T15:02:18.895Z</time>
      </trkpt>
      <trkpt lat="48.67708" lon="2.49315">
        <ele>90</ele>
        <time>2025-12-29T15:02:23.370Z</time>
      </trkpt>
      <trkpt lat="48.67706" lon="2.4931">
        <ele>90</ele>
        <time>2025-12-29T15:02:27.863Z</time>
      </trkpt>
      <trkpt lat="48.67705" lon="2.49305">
        <ele>90</ele>
        <time>2025-12-29T15:02:31.895Z</time>
      </trkpt>
      <trkpt lat="48.67702" lon="2.49297">
        <ele>90</ele>
        <time>2025-12-29T15:02:36.511Z</time>
      </trkpt>
      <trkpt lat="48.677" lon="2.49289">
        <ele>90</ele>
        <time>2025-12-29T15:02:40.911Z</time>
      </trkpt>
      <trkpt lat="48.677" lon="2.49281">
        <ele>90</ele>
        <time>2025-12-29T15:02:45.464Z</time>
      </trkpt>
      <trkpt lat="48.67697" lon="2.49274">
        <ele>90</ele>
        <time>2025-12-29T15:02:49.928Z</time>
      </trkpt>
      <trkpt lat="48.67693" lon="2.49267">
        <ele>90</ele>
        <time>2025-12-29T15:02:54.332Z</time>
      </trkpt>
      <trkpt lat="48.67691" lon="2.49259">
        <ele>89</ele>
        <time>2025-12-29T15:02:58.674Z</time>
      </trkpt>
      <trkpt lat="48.67688" lon="2.49251">
        <ele>89</ele>
        <time>2025-12-29T15:03:03.092Z</time>
      </trkpt>
      <trkpt lat="48.67687" lon="2.49242">
        <ele>89</ele>
        <time>2025-12-29T15:03:07.508Z</time>
      </trkpt>
      <trkpt lat="48.67685" lon="2.49234">
        <ele>89</ele>
        <time>2025-12-29T15:03:11.908Z</time>
      </trkpt>
      <trkpt lat="48.67684" lon="2.49226">
        <ele>89</ele>
        <time>2025-12-29T15:03:16.265Z</time>
      </trkpt>
      <trkpt lat="48.67682" lon="2.49218">
        <ele>89</ele>
        <time>2025-12-29T15:03:20.674Z</time>
      </trkpt>
      <trkpt lat="48.67679" lon="2.49209">
        <ele>89</ele>
        <time>2025-12-29T15:03:25.129Z</time>
      </trkpt>
      <trkpt lat="48.67677" lon="2.49201">
        <ele>88</ele>
        <time>2025-12-29T15:03:29.569Z</time>
      </trkpt>
      <trkpt lat="48.67674" lon="2.49192">
        <ele>88</ele>
        <time>2025-12-29T15:03:33.902Z</time>
      </trkpt>
      <trkpt lat="48.67672" lon="2.49184">
        <ele>88</ele>
        <time>2025-12-29T15:03:38.344Z</time>
      </trkpt>
      <trkpt lat="48.6767" lon="2.49175">
        <ele>88</ele>
        <time>2025-12-29T15:03:42.832Z</time>
      </trkpt>
      <trkpt lat="48.67668" lon="2.49166">
        <ele>88</ele>
        <time>2025-12-29T15:03:47.264Z</time>
      </trkpt>
      <trkpt lat="48.67666" lon="2.49158">
        <ele>88</ele>
        <time>2025-12-29T15:03:51.690Z</time>
      </trkpt>
      <trkpt lat="48.67665" lon="2.49152">
        <ele>87</ele>
        <time>2025-12-29T15:03:55.895Z</time>
      </trkpt>
      <trkpt lat="48.67662" lon="2.49146">
        <ele>87</ele>
        <time>2025-12-29T15:03:59.898Z</time>
      </trkpt>
      <trkpt lat="48.67659" lon="2.49141">
        <ele>87</ele>
        <time>2025-12-29T15:04:04.453Z</time>
      </trkpt>
      <trkpt lat="48.67659" lon="2.49134">
        <ele>87</ele>
        <time>2025-12-29T15:04:08.872Z</time>
      </trkpt>
      <trkpt lat="48.67657" lon="2.49128">
        <ele>87</ele>
        <time>2025-12-29T15:04:12.895Z</time>
      </trkpt>
      <trkpt lat="48.67655" lon="2.49121">
        <ele>88</ele>
        <time>2025-12-29T15:04:17.225Z</time>
      </trkpt>
      <trkpt lat="48.67653" lon="2.49113">
        <ele>88</ele>
        <time>2025-12-29T15:04:21.730Z</time>
      </trkpt>
      <trkpt lat="48.67651" lon="2.49105">
        <ele>88</ele>
        <time>2025-12-29T15:04:26.174Z</time>
      </trkpt>
      <trkpt lat="48.67649" lon="2.49096">
        <ele>89</ele>
        <time>2025-12-29T15:04:30.693Z</time>
      </trkpt>
      <trkpt lat="48.67648" lon="2.49087">
        <ele>89</ele>
        <time>2025-12-29T15:04:35.153Z</time>
      </trkpt>
      <trkpt lat="48.67648" lon="2.49077">
        <ele>89</ele>
        <time>2025-12-29T15:04:39.553Z</time>
      </trkpt>
      <trkpt lat="48.67644" lon="2.49072">
        <ele>89</ele>
        <time>2025-12-29T15:04:43.730Z</time>
      </trkpt>
      <trkpt lat="48.67645" lon="2.49062">
        <ele>90</ele>
        <time>2025-12-29T15:04:48.089Z</time>
      </trkpt>
      <trkpt lat="48.67642" lon="2.49053">
        <ele>90</ele>
        <time>2025-12-29T15:04:52.343Z</time>
      </trkpt>
      <trkpt lat="48.67639" lon="2.49046">
        <ele>90</ele>
        <time>2025-12-29T15:04:56.548Z</time>
      </trkpt>
      <trkpt lat="48.67636" lon="2.4904">
        <ele>91</ele>
        <time>2025-12-29T15:05:00.652Z</time>
      </trkpt>
      <trkpt lat="48.67633" lon="2.49033">
        <ele>91</ele>
        <time>2025-12-29T15:05:13.688Z</time>
      </trkpt>
      <trkpt lat="48.67629" lon="2.49027">
        <ele>91</ele>
        <time>2025-12-29T15:05:17.895Z</time>
      </trkpt>
      <trkpt lat="48.67628" lon="2.49017">
        <ele>91</ele>
        <time>2025-12-29T15:05:22.830Z</time>
      </trkpt>
      <trkpt lat="48.67625" lon="2.49009">
        <ele>92</ele>
        <time>2025-12-29T15:05:27.110Z</time>
      </trkpt>
      <trkpt lat="48.67623" lon="2.49001">
        <ele>92</ele>
        <time>2025-12-29T15:05:31.409Z</time>
      </trkpt>
      <trkpt lat="48.67625" lon="2.48999">
        <ele>91</ele>
        <time>2025-12-29T15:05:36.628Z</time>
      </trkpt>
      <trkpt lat="48.67626" lon="2.48998">
        <ele>91</ele>
        <time>2025-12-29T15:05:40.823Z</time>
      </trkpt>
      <trkpt lat="48.67621" lon="2.48991">
        <ele>92</ele>
        <time>2025-12-29T15:05:44.865Z</time>
      </trkpt>
      <trkpt lat="48.67618" lon="2.4898">
        <ele>92</ele>
        <time>2025-12-29T15:05:48.895Z</time>
      </trkpt>
      <trkpt lat="48.67616" lon="2.48971">
        <ele>92</ele>
        <time>2025-12-29T15:05:53.470Z</time>
      </trkpt>
      <trkpt lat="48.67614" lon="2.48963">
        <ele>92</ele>
        <time>2025-12-29T15:05:57.752Z</time>
      </trkpt>
      <trkpt lat="48.67612" lon="2.48954">
        <ele>92</ele>
        <time>2025-12-29T15:06:01.895Z</time>
      </trkpt>
      <trkpt lat="48.67611" lon="2.48944">
        <ele>92</ele>
        <time>2025-12-29T15:06:06.885Z</time>
      </trkpt>
      <trkpt lat="48.67608" lon="2.48936">
        <ele>92</ele>
        <time>2025-12-29T15:06:11.224Z</time>
      </trkpt>
      <trkpt lat="48.67605" lon="2.48927">
        <ele>91</ele>
        <time>2025-12-29T15:06:15.895Z</time>
      </trkpt>
      <trkpt lat="48.67602" lon="2.48919">
        <ele>91</ele>
        <time>2025-12-29T15:06:20.468Z</time>
      </trkpt>
      <trkpt lat="48.676" lon="2.48912">
        <ele>91</ele>
        <time>2025-12-29T15:06:24.895Z</time>
      </trkpt>
      <trkpt lat="48.67598" lon="2.48903">
        <ele>91</ele>
        <time>2025-12-29T15:06:29.688Z</time>
      </trkpt>
      <trkpt lat="48.67596" lon="2.48895">
        <ele>90</ele>
        <time>2025-12-29T15:06:33.895Z</time>
      </trkpt>
      <trkpt lat="48.67594" lon="2.48888">
        <ele>90</ele>
        <time>2025-12-29T15:06:38.369Z</time>
      </trkpt>
      <trkpt lat="48.67592" lon="2.4888">
        <ele>90</ele>
        <time>2025-12-29T15:06:42.895Z</time>
      </trkpt>
      <trkpt lat="48.6759" lon="2.48873">
        <ele>90</ele>
        <time>2025-12-29T15:06:46.895Z</time>
      </trkpt>
      <trkpt lat="48.67588" lon="2.48865">
        <ele>90</ele>
        <time>2025-12-29T15:06:51.689Z</time>
      </trkpt>
      <trkpt lat="48.67587" lon="2.48858">
        <ele>90</ele>
        <time>2025-12-29T15:06:55.895Z</time>
      </trkpt>
      <trkpt lat="48.67584" lon="2.4885">
        <ele>90</ele>
        <time>2025-12-29T15:07:00.895Z</time>
      </trkpt>
      <trkpt lat="48.67583" lon="2.48842">
        <ele>90</ele>
        <time>2025-12-29T15:07:05.445Z</time>
      </trkpt>
      <trkpt lat="48.6758" lon="2.48835">
        <ele>90</ele>
        <time>2025-12-29T15:07:09.810Z</time>
      </trkpt>
      <trkpt lat="48.67578" lon="2.48828">
        <ele>90</ele>
        <time>2025-12-29T15:07:14.339Z</time>
      </trkpt>
      <trkpt lat="48.67577" lon="2.4882">
        <ele>90</ele>
        <time>2025-12-29T15:07:18.449Z</time>
      </trkpt>
      <trkpt lat="48.67575" lon="2.48815">
        <ele>91</ele>
        <time>2025-12-29T15:07:22.895Z</time>
      </trkpt>
      <trkpt lat="48.67574" lon="2.48808">
        <ele>91</ele>
        <time>2025-12-29T15:07:27.469Z</time>
      </trkpt>
      <trkpt lat="48.67574" lon="2.48798">
        <ele>91</ele>
        <time>2025-12-29T15:07:31.849Z</time>
      </trkpt>
      <trkpt lat="48.6757" lon="2.48791">
        <ele>90</ele>
        <time>2025-12-29T15:07:36.250Z</time>
      </trkpt>
      <trkpt lat="48.67568" lon="2.48783">
        <ele>90</ele>
        <time>2025-12-29T15:07:40.685Z</time>
      </trkpt>
      <trkpt lat="48.67566" lon="2.48775">
        <ele>90</ele>
        <time>2025-12-29T15:07:44.895Z</time>
      </trkpt>
      <trkpt lat="48.67564" lon="2.48769">
        <ele>90</ele>
        <time>2025-12-29T15:07:48.895Z</time>
      </trkpt>
      <trkpt lat="48.67561" lon="2.48761">
        <ele>90</ele>
        <time>2025-12-29T15:07:53.929Z</time>
      </trkpt>
      <trkpt lat="48.67562" lon="2.48753">
        <ele>90</ele>
        <time>2025-12-29T15:07:57.895Z</time>
      </trkpt>
      <trkpt lat="48.67561" lon="2.48744">
        <ele>90</ele>
        <time>2025-12-29T15:08:02.830Z</time>
      </trkpt>
      <trkpt lat="48.67558" lon="2.48734">
        <ele>87</ele>
        <time>2025-12-29T15:08:07.895Z</time>
      </trkpt>
      <trkpt lat="48.67557" lon="2.48726">
        <ele>87</ele>
        <time>2025-12-29T15:08:12.663Z</time>
      </trkpt>
      <trkpt lat="48.67556" lon="2.48723">
        <ele>87</ele>
        <time>2025-12-29T15:08:16.895Z</time>
      </trkpt>
      <trkpt lat="48.67552" lon="2.48716">
        <ele>87</ele>
        <time>2025-12-29T15:08:21.595Z</time>
      </trkpt>
      <trkpt lat="48.67548" lon="2.4871">
        <ele>87</ele>
        <time>2025-12-29T15:08:25.685Z</time>
      </trkpt>
      <trkpt lat="48.67544" lon="2.48699">
        <ele>85</ele>
        <time>2025-12-29T15:08:30.895Z</time>
      </trkpt>
      <trkpt lat="48.67543" lon="2.48691">
        <ele>85</ele>
        <time>2025-12-29T15:08:35.901Z</time>
      </trkpt>
      <trkpt lat="48.67538" lon="2.48685">
        <ele>86</ele>
        <time>2025-12-29T15:08:40.451Z</time>
      </trkpt>
      <trkpt lat="48.67535" lon="2.48677">
        <ele>85</ele>
        <time>2025-12-29T15:08:44.895Z</time>
      </trkpt>
      <trkpt lat="48.67534" lon="2.48668">
        <ele>85</ele>
        <time>2025-12-29T15:08:49.506Z</time>
      </trkpt>
      <trkpt lat="48.67529" lon="2.48664">
        <ele>85</ele>
        <time>2025-12-29T15:08:54.725Z</time>
      </trkpt>
      <trkpt lat="48.67527" lon="2.48653">
        <ele>85</ele>
        <time>2025-12-29T15:08:59.895Z</time>
      </trkpt>
      <trkpt lat="48.67527" lon="2.48645">
        <ele>85</ele>
        <time>2025-12-29T15:09:04.369Z</time>
      </trkpt>
      <trkpt lat="48.6753" lon="2.48641">
        <ele>85</ele>
        <time>2025-12-29T15:09:08.547Z</time>
      </trkpt>
      <trkpt lat="48.67529" lon="2.48635">
        <ele>85</ele>
        <time>2025-12-29T15:09:12.585Z</time>
      </trkpt>
      <trkpt lat="48.67527" lon="2.48627">
        <ele>85</ele>
        <time>2025-12-29T15:09:16.884Z</time>
      </trkpt>
      <trkpt lat="48.67524" lon="2.48621">
        <ele>85</ele>
        <time>2025-12-29T15:09:20.894Z</time>
      </trkpt>
      <trkpt lat="48.67522" lon="2.48614">
        <ele>85</ele>
        <time>2025-12-29T15:09:24.895Z</time>
      </trkpt>
      <trkpt lat="48.67519" lon="2.48607">
        <ele>85</ele>
        <time>2025-12-29T15:09:29.385Z</time>
      </trkpt>
      <trkpt lat="48.67518" lon="2.48599">
        <ele>85</ele>
        <time>2025-12-29T15:09:33.895Z</time>
      </trkpt>
      <trkpt lat="48.67515" lon="2.48591">
        <ele>85</ele>
        <time>2025-12-29T15:09:38.585Z</time>
      </trkpt>
      <trkpt lat="48.67514" lon="2.48582">
        <ele>85</ele>
        <time>2025-12-29T15:09:43.046Z</time>
      </trkpt>
      <trkpt lat="48.67512" lon="2.48572">
        <ele>84</ele>
        <time>2025-12-29T15:09:47.609Z</time>
      </trkpt>
      <trkpt lat="48.67509" lon="2.48562">
        <ele>84</ele>
        <time>2025-12-29T15:09:52.110Z</time>
      </trkpt>
      <trkpt lat="48.67506" lon="2.48554">
        <ele>84</ele>
        <time>2025-12-29T15:09:56.571Z</time>
      </trkpt>
      <trkpt lat="48.67503" lon="2.48546">
        <ele>84</ele>
        <time>2025-12-29T15:10:00.895Z</time>
      </trkpt>
      <trkpt lat="48.675" lon="2.48539">
        <ele>85</ele>
        <time>2025-12-29T15:10:04.969Z</time>
      </trkpt>
      <trkpt lat="48.67499" lon="2.48532">
        <ele>85</ele>
        <time>2025-12-29T15:10:09.075Z</time>
      </trkpt>
      <trkpt lat="48.67496" lon="2.48523">
        <ele>85</ele>
        <time>2025-12-29T15:10:13.598Z</time>
      </trkpt>
      <trkpt lat="48.67494" lon="2.48514">
        <ele>85</ele>
        <time>2025-12-29T15:10:18.111Z</time>
      </trkpt>
      <trkpt lat="48.67491" lon="2.48506">
        <ele>86</ele>
        <time>2025-12-29T15:10:22.529Z</time>
      </trkpt>
      <trkpt lat="48.67489" lon="2.48499">
        <ele>86</ele>
        <time>2025-12-29T15:10:26.895Z</time>
      </trkpt>
      <trkpt lat="48.67486" lon="2.48492">
        <ele>86</ele>
        <time>2025-12-29T15:10:31.568Z</time>
      </trkpt>
      <trkpt lat="48.67484" lon="2.48484">
        <ele>87</ele>
        <time>2025-12-29T15:10:36.103Z</time>
      </trkpt>
      <trkpt lat="48.67481" lon="2.48476">
        <ele>87</ele>
        <time>2025-12-29T15:10:40.726Z</time>
      </trkpt>
      <trkpt lat="48.6748" lon="2.48468">
        <ele>87</ele>
        <time>2025-12-29T15:10:45.066Z</time>
      </trkpt>
      <trkpt lat="48.6748" lon="2.48459">
        <ele>87</ele>
        <time>2025-12-29T15:10:49.895Z</time>
      </trkpt>
      <trkpt lat="48.67482" lon="2.48455">
        <ele>88</ele>
        <time>2025-12-29T15:10:54.895Z</time>
      </trkpt>
      <trkpt lat="48.67484" lon="2.48453">
        <ele>88</ele>
        <time>2025-12-29T15:11:00.668Z</time>
      </trkpt>
      <trkpt lat="48.67484" lon="2.48452">
        <ele>88</ele>
        <time>2025-12-29T15:11:04.679Z</time>
      </trkpt>
      <trkpt lat="48.67482" lon="2.48442">
        <ele>88</ele>
        <time>2025-12-29T15:11:08.850Z</time>
      </trkpt>
      <trkpt lat="48.67478" lon="2.48435">
        <ele>88</ele>
        <time>2025-12-29T15:11:12.850Z</time>
      </trkpt>
      <trkpt lat="48.67475" lon="2.48428">
        <ele>88</ele>
        <time>2025-12-29T15:11:17.343Z</time>
      </trkpt>
      <trkpt lat="48.67471" lon="2.48422">
        <ele>88</ele>
        <time>2025-12-29T15:11:21.352Z</time>
      </trkpt>
      <trkpt lat="48.67468" lon="2.48414">
        <ele>88</ele>
        <time>2025-12-29T15:11:25.890Z</time>
      </trkpt>
      <trkpt lat="48.67465" lon="2.48408">
        <ele>88</ele>
        <time>2025-12-29T15:11:30.409Z</time>
      </trkpt>
      <trkpt lat="48.67463" lon="2.484">
        <ele>89</ele>
        <time>2025-12-29T15:11:34.903Z</time>
      </trkpt>
      <trkpt lat="48.67461" lon="2.48393">
        <ele>89</ele>
        <time>2025-12-29T15:11:39.432Z</time>
      </trkpt>
      <trkpt lat="48.67459" lon="2.48384">
        <ele>89</ele>
        <time>2025-12-29T15:11:43.849Z</time>
      </trkpt>
      <trkpt lat="48.67457" lon="2.48376">
        <ele>90</ele>
        <time>2025-12-29T15:11:48.325Z</time>
      </trkpt>
      <trkpt lat="48.67455" lon="2.48368">
        <ele>90</ele>
        <time>2025-12-29T15:11:52.708Z</time>
      </trkpt>
      <trkpt lat="48.67456" lon="2.48363">
        <ele>90</ele>
        <time>2025-12-29T15:11:57.108Z</time>
      </trkpt>
      <trkpt lat="48.67451" lon="2.48357">
        <ele>90</ele>
        <time>2025-12-29T15:12:01.449Z</time>
      </trkpt>
      <trkpt lat="48.67449" lon="2.48349">
        <ele>90</ele>
        <time>2025-12-29T15:12:05.808Z</time>
      </trkpt>
      <trkpt lat="48.67447" lon="2.48341">
        <ele>89</ele>
        <time>2025-12-29T15:12:10.314Z</time>
      </trkpt>
      <trkpt lat="48.67446" lon="2.48333">
        <ele>89</ele>
        <time>2025-12-29T15:12:14.710Z</time>
      </trkpt>
      <trkpt lat="48.67443" lon="2.48326">
        <ele>89</ele>
        <time>2025-12-29T15:12:19.306Z</time>
      </trkpt>
      <trkpt lat="48.67441" lon="2.48319">
        <ele>88</ele>
        <time>2025-12-29T15:12:23.335Z</time>
      </trkpt>
      <trkpt lat="48.6744" lon="2.48312">
        <ele>88</ele>
        <time>2025-12-29T15:12:27.825Z</time>
      </trkpt>
      <trkpt lat="48.67438" lon="2.48305">
        <ele>88</ele>
        <time>2025-12-29T15:12:32.167Z</time>
      </trkpt>
      <trkpt lat="48.67437" lon="2.48297">
        <ele>88</ele>
        <time>2025-12-29T15:12:36.713Z</time>
      </trkpt>
      <trkpt lat="48.67436" lon="2.4829">
        <ele>89</ele>
        <time>2025-12-29T15:12:40.745Z</time>
      </trkpt>
      <trkpt lat="48.67434" lon="2.48283">
        <ele>89</ele>
        <time>2025-12-29T15:12:45.368Z</time>
      </trkpt>
      <trkpt lat="48.67432" lon="2.48275">
        <ele>89</ele>
        <time>2025-12-29T15:12:49.888Z</time>
      </trkpt>
      <trkpt lat="48.67431" lon="2.48267">
        <ele>89</ele>
        <time>2025-12-29T15:12:54.423Z</time>
      </trkpt>
      <trkpt lat="48.67431" lon="2.4826">
        <ele>90</ele>
        <time>2025-12-29T15:12:58.895Z</time>
      </trkpt>
      <trkpt lat="48.67432" lon="2.48252">
        <ele>90</ele>
        <time>2025-12-29T15:13:03.403Z</time>
      </trkpt>
      <trkpt lat="48.67434" lon="2.48245">
        <ele>90</ele>
        <time>2025-12-29T15:13:07.895Z</time>
      </trkpt>
      <trkpt lat="48.67437" lon="2.48237">
        <ele>90</ele>
        <time>2025-12-29T15:13:12.401Z</time>
      </trkpt>
      <trkpt lat="48.6744" lon="2.4823">
        <ele>90</ele>
        <time>2025-12-29T15:13:16.887Z</time>
      </trkpt>
      <trkpt lat="48.67445" lon="2.48223">
        <ele>90</ele>
        <time>2025-12-29T15:13:21.288Z</time>
      </trkpt>
      <trkpt lat="48.67449" lon="2.48218">
        <ele>90</ele>
        <time>2025-12-29T15:13:25.662Z</time>
      </trkpt>
      <trkpt lat="48.67454" lon="2.48213">
        <ele>90</ele>
        <time>2025-12-29T15:13:30.225Z</time>
      </trkpt>
      <trkpt lat="48.67458" lon="2.48207">
        <ele>89</ele>
        <time>2025-12-29T15:13:34.728Z</time>
      </trkpt>
      <trkpt lat="48.67462" lon="2.48204">
        <ele>89</ele>
        <time>2025-12-29T15:13:39.205Z</time>
      </trkpt>
      <trkpt lat="48.67466" lon="2.48199">
        <ele>89</ele>
        <time>2025-12-29T15:13:43.666Z</time>
      </trkpt>
      <trkpt lat="48.67469" lon="2.48196">
        <ele>89</ele>
        <time>2025-12-29T15:13:47.707Z</time>
      </trkpt>
      <trkpt lat="48.67472" lon="2.48192">
        <ele>89</ele>
        <time>2025-12-29T15:13:52.184Z</time>
      </trkpt>
      <trkpt lat="48.67476" lon="2.48186">
        <ele>89</ele>
        <time>2025-12-29T15:13:56.687Z</time>
      </trkpt>
      <trkpt lat="48.67479" lon="2.48179">
        <ele>88</ele>
        <time>2025-12-29T15:14:01.182Z</time>
      </trkpt>
      <trkpt lat="48.67484" lon="2.48174">
        <ele>88</ele>
        <time>2025-12-29T15:14:05.623Z</time>
      </trkpt>
      <trkpt lat="48.67488" lon="2.48168">
        <ele>89</ele>
        <time>2025-12-29T15:14:10.102Z</time>
      </trkpt>
      <trkpt lat="48.67493" lon="2.48163">
        <ele>89</ele>
        <time>2025-12-29T15:14:14.587Z</time>
      </trkpt>
      <trkpt lat="48.67497" lon="2.48157">
        <ele>89</ele>
        <time>2025-12-29T15:14:19.048Z</time>
      </trkpt>
      <trkpt lat="48.67501" lon="2.48151">
        <ele>88</ele>
        <time>2025-12-29T15:14:23.542Z</time>
      </trkpt>
      <trkpt lat="48.67506" lon="2.48146">
        <ele>88</ele>
        <time>2025-12-29T15:14:28.062Z</time>
      </trkpt>
      <trkpt lat="48.6751" lon="2.48141">
        <ele>88</ele>
        <time>2025-12-29T15:14:32.608Z</time>
      </trkpt>
      <trkpt lat="48.67514" lon="2.48136">
        <ele>88</ele>
        <time>2025-12-29T15:14:37.042Z</time>
      </trkpt>
      <trkpt lat="48.67518" lon="2.4813">
        <ele>89</ele>
        <time>2025-12-29T15:14:41.528Z</time>
      </trkpt>
      <trkpt lat="48.6752" lon="2.48123">
        <ele>89</ele>
        <time>2025-12-29T15:14:45.895Z</time>
      </trkpt>
      <trkpt lat="48.67523" lon="2.48116">
        <ele>89</ele>
        <time>2025-12-29T15:14:50.482Z</time>
      </trkpt>
      <trkpt lat="48.67526" lon="2.4811">
        <ele>89</ele>
        <time>2025-12-29T15:14:54.895Z</time>
      </trkpt>
      <trkpt lat="48.6753" lon="2.48104">
        <ele>89</ele>
        <time>2025-12-29T15:14:59.489Z</time>
      </trkpt>
      <trkpt lat="48.67535" lon="2.48098">
        <ele>89</ele>
        <time>2025-12-29T15:15:03.905Z</time>
      </trkpt>
      <trkpt lat="48.67539" lon="2.48093">
        <ele>90</ele>
        <time>2025-12-29T15:15:08.383Z</time>
      </trkpt>
      <trkpt lat="48.67544" lon="2.48088">
        <ele>90</ele>
        <time>2025-12-29T15:15:12.843Z</time>
      </trkpt>
      <trkpt lat="48.67548" lon="2.48082">
        <ele>90</ele>
        <time>2025-12-29T15:15:16.844Z</time>
      </trkpt>
      <trkpt lat="48.67552" lon="2.48076">
        <ele>90</ele>
        <time>2025-12-29T15:15:21.346Z</time>
      </trkpt>
      <trkpt lat="48.67557" lon="2.48071">
        <ele>90</ele>
        <time>2025-12-29T15:15:25.806Z</time>
      </trkpt>
      <trkpt lat="48.67561" lon="2.48065">
        <ele>91</ele>
        <time>2025-12-29T15:15:30.284Z</time>
      </trkpt>
      <trkpt lat="48.67565" lon="2.4806">
        <ele>91</ele>
        <time>2025-12-29T15:15:34.727Z</time>
      </trkpt>
      <trkpt lat="48.67569" lon="2.48053">
        <ele>91</ele>
        <time>2025-12-29T15:15:39.247Z</time>
      </trkpt>
      <trkpt lat="48.67574" lon="2.48049">
        <ele>90</ele>
        <time>2025-12-29T15:15:43.724Z</time>
      </trkpt>
      <trkpt lat="48.67578" lon="2.48045">
        <ele>90</ele>
        <time>2025-12-29T15:15:48.047Z</time>
      </trkpt>
      <trkpt lat="48.67584" lon="2.48041">
        <ele>92</ele>
        <time>2025-12-29T15:15:52.507Z</time>
      </trkpt>
      <trkpt lat="48.67588" lon="2.48037">
        <ele>92</ele>
        <time>2025-12-29T15:15:56.985Z</time>
      </trkpt>
      <trkpt lat="48.67593" lon="2.48033">
        <ele>92</ele>
        <time>2025-12-29T15:16:01.898Z</time>
      </trkpt>
      <trkpt lat="48.67598" lon="2.48029">
        <ele>91</ele>
        <time>2025-12-29T15:16:06.382Z</time>
      </trkpt>
      <trkpt lat="48.67602" lon="2.48023">
        <ele>91</ele>
        <time>2025-12-29T15:16:10.886Z</time>
      </trkpt>
      <trkpt lat="48.67605" lon="2.48018">
        <ele>91</ele>
        <time>2025-12-29T15:16:15.304Z</time>
      </trkpt>
      <trkpt lat="48.67609" lon="2.48011">
        <ele>91</ele>
        <time>2025-12-29T15:16:19.929Z</time>
      </trkpt>
      <trkpt lat="48.67614" lon="2.48005">
        <ele>91</ele>
        <time>2025-12-29T15:16:24.302Z</time>
      </trkpt>
      <trkpt lat="48.67617" lon="2.47998">
        <ele>91</ele>
        <time>2025-12-29T15:16:28.702Z</time>
      </trkpt>
      <trkpt lat="48.67622" lon="2.47994">
        <ele>91</ele>
        <time>2025-12-29T15:16:33.008Z</time>
      </trkpt>
      <trkpt lat="48.67626" lon="2.47989">
        <ele>90</ele>
        <time>2025-12-29T15:16:37.545Z</time>
      </trkpt>
      <trkpt lat="48.6763" lon="2.47984">
        <ele>89</ele>
        <time>2025-12-29T15:16:41.707Z</time>
      </trkpt>
      <trkpt lat="48.67634" lon="2.47979">
        <ele>89</ele>
        <time>2025-12-29T15:16:45.766Z</time>
      </trkpt>
      <trkpt lat="48.67638" lon="2.47976">
        <ele>89</ele>
        <time>2025-12-29T15:16:49.809Z</time>
      </trkpt>
      <trkpt lat="48.67642" lon="2.4797">
        <ele>89</ele>
        <time>2025-12-29T15:16:54.226Z</time>
      </trkpt>
      <trkpt lat="48.67646" lon="2.47966">
        <ele>89</ele>
        <time>2025-12-29T15:16:58.507Z</time>
      </trkpt>
      <trkpt lat="48.6765" lon="2.47961">
        <ele>89</ele>
        <time>2025-12-29T15:17:02.883Z</time>
      </trkpt>
      <trkpt lat="48.67654" lon="2.47955">
        <ele>89</ele>
        <time>2025-12-29T15:17:07.446Z</time>
      </trkpt>
      <trkpt lat="48.67658" lon="2.4795">
        <ele>89</ele>
        <time>2025-12-29T15:17:11.905Z</time>
      </trkpt>
      <trkpt lat="48.67663" lon="2.47945">
        <ele>89</ele>
        <time>2025-12-29T15:17:16.326Z</time>
      </trkpt>
      <trkpt lat="48.67667" lon="2.47938">
        <ele>89</ele>
        <time>2025-12-29T15:17:20.832Z</time>
      </trkpt>
      <trkpt lat="48.6767" lon="2.47932">
        <ele>89</ele>
        <time>2025-12-29T15:17:25.304Z</time>
      </trkpt>
      <trkpt lat="48.67675" lon="2.47929">
        <ele>88</ele>
        <time>2025-12-29T15:17:29.841Z</time>
      </trkpt>
      <trkpt lat="48.67678" lon="2.47922">
        <ele>88</ele>
        <time>2025-12-29T15:17:34.302Z</time>
      </trkpt>
      <trkpt lat="48.67683" lon="2.47916">
        <ele>89</ele>
        <time>2025-12-29T15:17:38.895Z</time>
      </trkpt>
      <trkpt lat="48.67687" lon="2.4791">
        <ele>89</ele>
        <time>2025-12-29T15:17:43.725Z</time>
      </trkpt>
      <trkpt lat="48.67692" lon="2.47907">
        <ele>89</ele>
        <time>2025-12-29T15:17:47.895Z</time>
      </trkpt>
      <trkpt lat="48.67695" lon="2.479">
        <ele>88</ele>
        <time>2025-12-29T15:17:52.371Z</time>
      </trkpt>
      <trkpt lat="48.67701" lon="2.47895">
        <ele>88</ele>
        <time>2025-12-29T15:17:56.895Z</time>
      </trkpt>
      <trkpt lat="48.67706" lon="2.47889">
        <ele>88</ele>
        <time>2025-12-29T15:18:01.802Z</time>
      </trkpt>
      <trkpt lat="48.67711" lon="2.47886">
        <ele>88</ele>
        <time>2025-12-29T15:18:05.895Z</time>
      </trkpt>
      <trkpt lat="48.67714" lon="2.4788">
        <ele>88</ele>
        <time>2025-12-29T15:18:10.126Z</time>
      </trkpt>
      <trkpt lat="48.67718" lon="2.47874">
        <ele>87</ele>
        <time>2025-12-29T15:18:14.895Z</time>
      </trkpt>
      <trkpt lat="48.67721" lon="2.47867">
        <ele>87</ele>
        <time>2025-12-29T15:18:19.224Z</time>
      </trkpt>
      <trkpt lat="48.67725" lon="2.47861">
        <ele>87</ele>
        <time>2025-12-29T15:18:23.762Z</time>
      </trkpt>
      <trkpt lat="48.6773" lon="2.47857">
        <ele>87</ele>
        <time>2025-12-29T15:18:27.895Z</time>
      </trkpt>
      <trkpt lat="48.67735" lon="2.47851">
        <ele>87</ele>
        <time>2025-12-29T15:18:32.768Z</time>
      </trkpt>
      <trkpt lat="48.6774" lon="2.47849">
        <ele>88</ele>
        <time>2025-12-29T15:18:36.895Z</time>
      </trkpt>
      <trkpt lat="48.67745" lon="2.47842">
        <ele>87</ele>
        <time>2025-12-29T15:18:41.895Z</time>
      </trkpt>
      <trkpt lat="48.67748" lon="2.47836">
        <ele>87</ele>
        <time>2025-12-29T15:18:46.421Z</time>
      </trkpt>
      <trkpt lat="48.67752" lon="2.47829">
        <ele>87</ele>
        <time>2025-12-29T15:18:50.907Z</time>
      </trkpt>
      <trkpt lat="48.67756" lon="2.47824">
        <ele>87</ele>
        <time>2025-12-29T15:18:54.895Z</time>
      </trkpt>
      <trkpt lat="48.67761" lon="2.47819">
        <ele>86</ele>
        <time>2025-12-29T15:18:59.845Z</time>
      </trkpt>
      <trkpt lat="48.67765" lon="2.47814">
        <ele>87</ele>
        <time>2025-12-29T15:19:03.895Z</time>
      </trkpt>
      <trkpt lat="48.67769" lon="2.4781">
        <ele>87</ele>
        <time>2025-12-29T15:19:08.347Z</time>
      </trkpt>
      <trkpt lat="48.67773" lon="2.47807">
        <ele>87</ele>
        <time>2025-12-29T15:19:12.458Z</time>
      </trkpt>
      <trkpt lat="48.67778" lon="2.47801">
        <ele>87</ele>
        <time>2025-12-29T15:19:17.644Z</time>
      </trkpt>
      <trkpt lat="48.67782" lon="2.47796">
        <ele>87</ele>
        <time>2025-12-29T15:19:21.728Z</time>
      </trkpt>
      <trkpt lat="48.67786" lon="2.47794">
        <ele>87</ele>
        <time>2025-12-29T15:19:25.728Z</time>
      </trkpt>
      <trkpt lat="48.67792" lon="2.47786">
        <ele>86</ele>
        <time>2025-12-29T15:19:30.895Z</time>
      </trkpt>
      <trkpt lat="48.67796" lon="2.47779">
        <ele>86</ele>
        <time>2025-12-29T15:19:35.527Z</time>
      </trkpt>
      <trkpt lat="48.67799" lon="2.47772">
        <ele>86</ele>
        <time>2025-12-29T15:19:39.901Z</time>
      </trkpt>
      <trkpt lat="48.67803" lon="2.47766">
        <ele>86</ele>
        <time>2025-12-29T15:19:43.895Z</time>
      </trkpt>
      <trkpt lat="48.67807" lon="2.47761">
        <ele>84</ele>
        <time>2025-12-29T15:19:48.583Z</time>
      </trkpt>
      <trkpt lat="48.67811" lon="2.47755">
        <ele>84</ele>
        <time>2025-12-29T15:19:52.895Z</time>
      </trkpt>
      <trkpt lat="48.67816" lon="2.47749">
        <ele>84</ele>
        <time>2025-12-29T15:19:57.930Z</time>
      </trkpt>
      <trkpt lat="48.67821" lon="2.47746">
        <ele>81</ele>
        <time>2025-12-29T15:20:01.895Z</time>
      </trkpt>
      <trkpt lat="48.67825" lon="2.4774">
        <ele>81</ele>
        <time>2025-12-29T15:20:06.422Z</time>
      </trkpt>
      <trkpt lat="48.67829" lon="2.47735">
        <ele>80</ele>
        <time>2025-12-29T15:20:10.895Z</time>
      </trkpt>
      <trkpt lat="48.67833" lon="2.47729">
        <ele>80</ele>
        <time>2025-12-29T15:20:15.462Z</time>
      </trkpt>
      <trkpt lat="48.67837" lon="2.47724">
        <ele>80</ele>
        <time>2025-12-29T15:20:19.693Z</time>
      </trkpt>
      <trkpt lat="48.67843" lon="2.47719">
        <ele>80</ele>
        <time>2025-12-29T15:20:24.928Z</time>
      </trkpt>
      <trkpt lat="48.67847" lon="2.47713">
        <ele>80</ele>
        <time>2025-12-29T15:20:29.389Z</time>
      </trkpt>
      <trkpt lat="48.6785" lon="2.47706">
        <ele>82</ele>
        <time>2025-12-29T15:20:33.764Z</time>
      </trkpt>
      <trkpt lat="48.67854" lon="2.477">
        <ele>82</ele>
        <time>2025-12-29T15:20:37.865Z</time>
      </trkpt>
      <trkpt lat="48.67858" lon="2.47695">
        <ele>82</ele>
        <time>2025-12-29T15:20:41.899Z</time>
      </trkpt>
      <trkpt lat="48.67862" lon="2.47689">
        <ele>82</ele>
        <time>2025-12-29T15:20:46.228Z</time>
      </trkpt>
      <trkpt lat="48.67866" lon="2.47684">
        <ele>82</ele>
        <time>2025-12-29T15:20:50.546Z</time>
      </trkpt>
      <trkpt lat="48.6787" lon="2.47679">
        <ele>83</ele>
        <time>2025-12-29T15:20:54.725Z</time>
      </trkpt>
      <trkpt lat="48.67874" lon="2.47674">
        <ele>83</ele>
        <time>2025-12-29T15:20:58.895Z</time>
      </trkpt>
      <trkpt lat="48.67879" lon="2.47667">
        <ele>84</ele>
        <time>2025-12-29T15:21:03.901Z</time>
      </trkpt>
      <trkpt lat="48.67884" lon="2.47663">
        <ele>84</ele>
        <time>2025-12-29T15:21:08.863Z</time>
      </trkpt>
      <trkpt lat="48.67889" lon="2.47657">
        <ele>84</ele>
        <time>2025-12-29T15:21:13.263Z</time>
      </trkpt>
      <trkpt lat="48.67892" lon="2.47652">
        <ele>83</ele>
        <time>2025-12-29T15:21:17.622Z</time>
      </trkpt>
      <trkpt lat="48.67896" lon="2.47646">
        <ele>83</ele>
        <time>2025-12-29T15:21:21.661Z</time>
      </trkpt>
      <trkpt lat="48.679" lon="2.47641">
        <ele>83</ele>
        <time>2025-12-29T15:21:26.124Z</time>
      </trkpt>
      <trkpt lat="48.67904" lon="2.47637">
        <ele>85</ele>
        <time>2025-12-29T15:21:30.895Z</time>
      </trkpt>
      <trkpt lat="48.67908" lon="2.47629">
        <ele>85</ele>
        <time>2025-12-29T15:21:35.466Z</time>
      </trkpt>
      <trkpt lat="48.67912" lon="2.47623">
        <ele>84</ele>
        <time>2025-12-29T15:21:39.852Z</time>
      </trkpt>
      <trkpt lat="48.67916" lon="2.47618">
        <ele>84</ele>
        <time>2025-12-29T15:21:43.865Z</time>
      </trkpt>
      <trkpt lat="48.67919" lon="2.47612">
        <ele>84</ele>
        <time>2025-12-29T15:21:48.436Z</time>
      </trkpt>
      <trkpt lat="48.67923" lon="2.47606">
        <ele>84</ele>
        <time>2025-12-29T15:21:52.895Z</time>
      </trkpt>
      <trkpt lat="48.67927" lon="2.47602">
        <ele>84</ele>
        <time>2025-12-29T15:21:56.895Z</time>
      </trkpt>
      <trkpt lat="48.67931" lon="2.47597">
        <ele>83</ele>
        <time>2025-12-29T15:22:01.790Z</time>
      </trkpt>
      <trkpt lat="48.67936" lon="2.47593">
        <ele>83</ele>
        <time>2025-12-29T15:22:05.895Z</time>
      </trkpt>
      <trkpt lat="48.6794" lon="2.47586">
        <ele>83</ele>
        <time>2025-12-29T15:22:10.813Z</time>
      </trkpt>
      <trkpt lat="48.67942" lon="2.47579">
        <ele>83</ele>
        <time>2025-12-29T15:22:15.274Z</time>
      </trkpt>
      <trkpt lat="48.67943" lon="2.47572">
        <ele>83</ele>
        <time>2025-12-29T15:22:19.357Z</time>
      </trkpt>
      <trkpt lat="48.67937" lon="2.47564">
        <ele>83</ele>
        <time>2025-12-29T15:22:23.734Z</time>
      </trkpt>
      <trkpt lat="48.67932" lon="2.47556">
        <ele>83</ele>
        <time>2025-12-29T15:22:28.038Z</time>
      </trkpt>
      <trkpt lat="48.6793" lon="2.47549">
        <ele>85</ele>
        <time>2025-12-29T15:22:32.438Z</time>
      </trkpt>
      <trkpt lat="48.67928" lon="2.47545">
        <ele>85</ele>
        <time>2025-12-29T15:22:35.797Z</time>
      </trkpt>
      <trkpt lat="48.67929" lon="2.4753">
        <ele>86</ele>
        <time>2025-12-29T15:22:44.774Z</time>
      </trkpt>
      <trkpt lat="48.67925" lon="2.47525">
        <ele>86</ele>
        <time>2025-12-29T15:22:49.399Z</time>
      </trkpt>
      <trkpt lat="48.67923" lon="2.47519">
        <ele>86</ele>
        <time>2025-12-29T15:22:53.895Z</time>
      </trkpt>
      <trkpt lat="48.67922" lon="2.47511">
        <ele>87</ele>
        <time>2025-12-29T15:22:58.416Z</time>
      </trkpt>
      <trkpt lat="48.67919" lon="2.47505">
        <ele>87</ele>
        <time>2025-12-29T15:23:02.895Z</time>
      </trkpt>
      <trkpt lat="48.67916" lon="2.47497">
        <ele>87</ele>
        <time>2025-12-29T15:23:07.395Z</time>
      </trkpt>
      <trkpt lat="48.67914" lon="2.4749">
        <ele>87</ele>
        <time>2025-12-29T15:23:11.412Z</time>
      </trkpt>
      <trkpt lat="48.67914" lon="2.47484">
        <ele>88</ele>
        <time>2025-12-29T15:23:15.436Z</time>
      </trkpt>
      <trkpt lat="48.67913" lon="2.47476">
        <ele>88</ele>
        <time>2025-12-29T15:23:19.513Z</time>
      </trkpt>
      <trkpt lat="48.67913" lon="2.47469">
        <ele>88</ele>
        <time>2025-12-29T15:23:23.678Z</time>
      </trkpt>
      <trkpt lat="48.67911" lon="2.47466">
        <ele>88</ele>
        <time>2025-12-29T15:23:28.895Z</time>
      </trkpt>
      <trkpt lat="48.67909" lon="2.47461">
        <ele>88</ele>
        <time>2025-12-29T15:23:33.174Z</time>
      </trkpt>
      <trkpt lat="48.67905" lon="2.47453">
        <ele>88</ele>
        <time>2025-12-29T15:23:37.217Z</time>
      </trkpt>
      <trkpt lat="48.67903" lon="2.47446">
        <ele>88</ele>
        <time>2025-12-29T15:23:41.396Z</time>
      </trkpt>
      <trkpt lat="48.67902" lon="2.47438">
        <ele>86</ele>
        <time>2025-12-29T15:23:45.915Z</time>
      </trkpt>
      <trkpt lat="48.67901" lon="2.47431">
        <ele>86</ele>
        <time>2025-12-29T15:23:50.574Z</time>
      </trkpt>
      <trkpt lat="48.679" lon="2.47422">
        <ele>86</ele>
        <time>2025-12-29T15:23:55.357Z</time>
      </trkpt>
      <trkpt lat="48.67899" lon="2.47416">
        <ele>86</ele>
        <time>2025-12-29T15:23:59.577Z</time>
      </trkpt>
      <trkpt lat="48.67897" lon="2.4741">
        <ele>86</ele>
        <time>2025-12-29T15:24:03.613Z</time>
      </trkpt>
      <trkpt lat="48.67895" lon="2.47405">
        <ele>86</ele>
        <time>2025-12-29T15:24:07.670Z</time>
      </trkpt>
      <trkpt lat="48.67892" lon="2.47399">
        <ele>86</ele>
        <time>2025-12-29T15:24:11.697Z</time>
      </trkpt>
      <trkpt lat="48.67888" lon="2.47393">
        <ele>86</ele>
        <time>2025-12-29T15:24:15.798Z</time>
      </trkpt>
      <trkpt lat="48.67886" lon="2.47385">
        <ele>86</ele>
        <time>2025-12-29T15:24:19.873Z</time>
      </trkpt>
      <trkpt lat="48.67884" lon="2.47377">
        <ele>86</ele>
        <time>2025-12-29T15:24:24.393Z</time>
      </trkpt>
      <trkpt lat="48.67883" lon="2.4737">
        <ele>86</ele>
        <time>2025-12-29T15:24:28.600Z</time>
      </trkpt>
      <trkpt lat="48.6788" lon="2.47364">
        <ele>86</ele>
        <time>2025-12-29T15:24:32.614Z</time>
      </trkpt>
      <trkpt lat="48.67878" lon="2.47357">
        <ele>86</ele>
        <time>2025-12-29T15:24:37.075Z</time>
      </trkpt>
      <trkpt lat="48.67876" lon="2.4735">
        <ele>86</ele>
        <time>2025-12-29T15:24:41.116Z</time>
      </trkpt>
      <trkpt lat="48.67874" lon="2.47342">
        <ele>86</ele>
        <time>2025-12-29T15:24:45.667Z</time>
      </trkpt>
      <trkpt lat="48.67872" lon="2.47334">
        <ele>86</ele>
        <time>2025-12-29T15:24:50.174Z</time>
      </trkpt>
      <trkpt lat="48.67869" lon="2.47326">
        <ele>86</ele>
        <time>2025-12-29T15:24:54.651Z</time>
      </trkpt>
      <trkpt lat="48.67866" lon="2.47319">
        <ele>86</ele>
        <time>2025-12-29T15:24:59.359Z</time>
      </trkpt>
      <trkpt lat="48.67864" lon="2.47312">
        <ele>86</ele>
        <time>2025-12-29T15:25:03.854Z</time>
      </trkpt>
      <trkpt lat="48.67862" lon="2.47305">
        <ele>86</ele>
        <time>2025-12-29T15:25:07.895Z</time>
      </trkpt>
      <trkpt lat="48.67861" lon="2.47297">
        <ele>86</ele>
        <time>2025-12-29T15:25:12.354Z</time>
      </trkpt>
      <trkpt lat="48.67859" lon="2.47289">
        <ele>86</ele>
        <time>2025-12-29T15:25:16.798Z</time>
      </trkpt>
      <trkpt lat="48.67856" lon="2.47281">
        <ele>86</ele>
        <time>2025-12-29T15:25:21.320Z</time>
      </trkpt>
      <trkpt lat="48.67854" lon="2.47274">
        <ele>86</ele>
        <time>2025-12-29T15:25:25.753Z</time>
      </trkpt>
      <trkpt lat="48.67852" lon="2.47268">
        <ele>86</ele>
        <time>2025-12-29T15:25:29.895Z</time>
      </trkpt>
      <trkpt lat="48.6785" lon="2.47262">
        <ele>87</ele>
        <time>2025-12-29T15:25:33.990Z</time>
      </trkpt>
      <trkpt lat="48.67848" lon="2.47255">
        <ele>87</ele>
        <time>2025-12-29T15:25:38.016Z</time>
      </trkpt>
      <trkpt lat="48.67847" lon="2.47246">
        <ele>89</ele>
        <time>2025-12-29T15:25:42.313Z</time>
      </trkpt>
      <trkpt lat="48.67845" lon="2.47239">
        <ele>89</ele>
        <time>2025-12-29T15:25:46.374Z</time>
      </trkpt>
      <trkpt lat="48.67844" lon="2.47231">
        <ele>90</ele>
        <time>2025-12-29T15:25:50.876Z</time>
      </trkpt>
      <trkpt lat="48.67841" lon="2.47223">
        <ele>90</ele>
        <time>2025-12-29T15:25:55.895Z</time>
      </trkpt>
      <trkpt lat="48.6784" lon="2.47216">
        <ele>90</ele>
        <time>2025-12-29T15:26:00.897Z</time>
      </trkpt>
      <trkpt lat="48.67837" lon="2.47208">
        <ele>90</ele>
        <time>2025-12-29T15:26:05.093Z</time>
      </trkpt>
      <trkpt lat="48.67835" lon="2.47199">
        <ele>90</ele>
        <time>2025-12-29T15:26:09.902Z</time>
      </trkpt>
      <trkpt lat="48.67833" lon="2.47191">
        <ele>90</ele>
        <time>2025-12-29T15:26:14.396Z</time>
      </trkpt>
      <trkpt lat="48.67831" lon="2.47183">
        <ele>90</ele>
        <time>2025-12-29T15:26:18.515Z</time>
      </trkpt>
      <trkpt lat="48.6783" lon="2.47175">
        <ele>90</ele>
        <time>2025-12-29T15:26:23.615Z</time>
      </trkpt>
      <trkpt lat="48.67829" lon="2.47165">
        <ele>90</ele>
        <time>2025-12-29T15:26:28.895Z</time>
      </trkpt>
      <trkpt lat="48.67827" lon="2.47156">
        <ele>90</ele>
        <time>2025-12-29T15:26:33.372Z</time>
      </trkpt>
      <trkpt lat="48.67826" lon="2.47149">
        <ele>89</ele>
        <time>2025-12-29T15:26:37.474Z</time>
      </trkpt>
      <trkpt lat="48.67823" lon="2.47141">
        <ele>89</ele>
        <time>2025-12-29T15:26:41.874Z</time>
      </trkpt>
      <trkpt lat="48.67822" lon="2.47134">
        <ele>89</ele>
        <time>2025-12-29T15:26:45.890Z</time>
      </trkpt>
      <trkpt lat="48.67822" lon="2.47127">
        <ele>89</ele>
        <time>2025-12-29T15:26:49.895Z</time>
      </trkpt>
      <trkpt lat="48.6782" lon="2.4712">
        <ele>88</ele>
        <time>2025-12-29T15:26:54.555Z</time>
      </trkpt>
      <trkpt lat="48.67817" lon="2.47114">
        <ele>88</ele>
        <time>2025-12-29T15:26:58.597Z</time>
      </trkpt>
      <trkpt lat="48.67814" lon="2.47109">
        <ele>88</ele>
        <time>2025-12-29T15:27:02.895Z</time>
      </trkpt>
      <trkpt lat="48.6781" lon="2.47103">
        <ele>88</ele>
        <time>2025-12-29T15:27:07.756Z</time>
      </trkpt>
      <trkpt lat="48.67809" lon="2.47096">
        <ele>89</ele>
        <time>2025-12-29T15:27:11.790Z</time>
      </trkpt>
      <trkpt lat="48.6781" lon="2.4709">
        <ele>89</ele>
        <time>2025-12-29T15:27:15.894Z</time>
      </trkpt>
      <trkpt lat="48.67808" lon="2.47083">
        <ele>89</ele>
        <time>2025-12-29T15:27:20.319Z</time>
      </trkpt>
      <trkpt lat="48.67805" lon="2.47076">
        <ele>89</ele>
        <time>2025-12-29T15:27:24.591Z</time>
      </trkpt>
      <trkpt lat="48.67803" lon="2.4707">
        <ele>89</ele>
        <time>2025-12-29T15:27:28.895Z</time>
      </trkpt>
      <trkpt lat="48.67801" lon="2.47063">
        <ele>90</ele>
        <time>2025-12-29T15:27:33.794Z</time>
      </trkpt>
      <trkpt lat="48.67799" lon="2.47057">
        <ele>90</ele>
        <time>2025-12-29T15:27:37.913Z</time>
      </trkpt>
      <trkpt lat="48.67797" lon="2.47049">
        <ele>90</ele>
        <time>2025-12-29T15:27:42.194Z</time>
      </trkpt>
      <trkpt lat="48.67798" lon="2.47041">
        <ele>91</ele>
        <time>2025-12-29T15:27:46.490Z</time>
      </trkpt>
      <trkpt lat="48.67798" lon="2.47034">
        <ele>91</ele>
        <time>2025-12-29T15:27:50.890Z</time>
      </trkpt>
      <trkpt lat="48.67797" lon="2.47027">
        <ele>91</ele>
        <time>2025-12-29T15:27:55.453Z</time>
      </trkpt>
      <trkpt lat="48.67798" lon="2.4702">
        <ele>91</ele>
        <time>2025-12-29T15:27:59.546Z</time>
      </trkpt>
      <trkpt lat="48.67798" lon="2.47014">
        <ele>92</ele>
        <time>2025-12-29T15:28:03.614Z</time>
      </trkpt>
      <trkpt lat="48.67794" lon="2.47007">
        <ele>92</ele>
        <time>2025-12-29T15:28:07.912Z</time>
      </trkpt>
      <trkpt lat="48.6779" lon="2.47001">
        <ele>92</ele>
        <time>2025-12-29T15:28:12.236Z</time>
      </trkpt>
      <trkpt lat="48.67788" lon="2.46994">
        <ele>92</ele>
        <time>2025-12-29T15:28:16.533Z</time>
      </trkpt>
      <trkpt lat="48.67784" lon="2.46988">
        <ele>92</ele>
        <time>2025-12-29T15:28:20.895Z</time>
      </trkpt>
      <trkpt lat="48.67783" lon="2.46982">
        <ele>92</ele>
        <time>2025-12-29T15:29:13.899Z</time>
      </trkpt>
      <trkpt lat="48.67782" lon="2.46976">
        <ele>92</ele>
        <time>2025-12-29T15:29:18.137Z</time>
      </trkpt>
      <trkpt lat="48.6778" lon="2.46968">
        <ele>92</ele>
        <time>2025-12-29T15:29:22.424Z</time>
      </trkpt>
      <trkpt lat="48.67778" lon="2.46962">
        <ele>92</ele>
        <time>2025-12-29T15:29:26.663Z</time>
      </trkpt>
      <trkpt lat="48.67776" lon="2.46955">
        <ele>92</ele>
        <time>2025-12-29T15:29:30.775Z</time>
      </trkpt>
      <trkpt lat="48.67773" lon="2.46948">
        <ele>92</ele>
        <time>2025-12-29T15:29:34.790Z</time>
      </trkpt>
      <trkpt lat="48.6777" lon="2.46942">
        <ele>92</ele>
        <time>2025-12-29T15:29:38.896Z</time>
      </trkpt>
      <trkpt lat="48.67768" lon="2.46935">
        <ele>92</ele>
        <time>2025-12-29T15:29:42.895Z</time>
      </trkpt>
      <trkpt lat="48.67766" lon="2.46926">
        <ele>92</ele>
        <time>2025-12-29T15:29:46.993Z</time>
      </trkpt>
      <trkpt lat="48.67763" lon="2.46918">
        <ele>91</ele>
        <time>2025-12-29T15:29:51.095Z</time>
      </trkpt>
      <trkpt lat="48.67761" lon="2.46909">
        <ele>91</ele>
        <time>2025-12-29T15:29:55.138Z</time>
      </trkpt>
      <trkpt lat="48.67759" lon="2.469">
        <ele>91</ele>
        <time>2025-12-29T15:29:59.230Z</time>
      </trkpt>
      <trkpt lat="48.67756" lon="2.46891">
        <ele>91</ele>
        <time>2025-12-29T15:30:03.896Z</time>
      </trkpt>
      <trkpt lat="48.67754" lon="2.46883">
        <ele>91</ele>
        <time>2025-12-29T15:30:07.895Z</time>
      </trkpt>
      <trkpt lat="48.67751" lon="2.46873">
        <ele>91</ele>
        <time>2025-12-29T15:30:12.637Z</time>
      </trkpt>
      <trkpt lat="48.67749" lon="2.46865">
        <ele>91</ele>
        <time>2025-12-29T15:30:16.678Z</time>
      </trkpt>
      <trkpt lat="48.67747" lon="2.46857">
        <ele>91</ele>
        <time>2025-12-29T15:30:21.275Z</time>
      </trkpt>
      <trkpt lat="48.67745" lon="2.46849">
        <ele>91</ele>
        <time>2025-12-29T15:30:25.735Z</time>
      </trkpt>
      <trkpt lat="48.67743" lon="2.46841">
        <ele>90</ele>
        <time>2025-12-29T15:30:29.895Z</time>
      </trkpt>
      <trkpt lat="48.67741" lon="2.46833">
        <ele>90</ele>
        <time>2025-12-29T15:30:34.553Z</time>
      </trkpt>
      <trkpt lat="48.67739" lon="2.46826">
        <ele>90</ele>
        <time>2025-12-29T15:30:38.655Z</time>
      </trkpt>
      <trkpt lat="48.67739" lon="2.46818">
        <ele>90</ele>
        <time>2025-12-29T15:30:43.192Z</time>
      </trkpt>
      <trkpt lat="48.67738" lon="2.46812">
        <ele>90</ele>
        <time>2025-12-29T15:30:47.200Z</time>
      </trkpt>
      <trkpt lat="48.67736" lon="2.46804">
        <ele>90</ele>
        <time>2025-12-29T15:30:51.915Z</time>
      </trkpt>
      <trkpt lat="48.67734" lon="2.46797">
        <ele>89</ele>
        <time>2025-12-29T15:30:55.993Z</time>
      </trkpt>
      <trkpt lat="48.67734" lon="2.46789">
        <ele>89</ele>
        <time>2025-12-29T15:31:00.580Z</time>
      </trkpt>
      <trkpt lat="48.67732" lon="2.46783">
        <ele>89</ele>
        <time>2025-12-29T15:31:04.895Z</time>
      </trkpt>
      <trkpt lat="48.67728" lon="2.46775">
        <ele>89</ele>
        <time>2025-12-29T15:31:09.575Z</time>
      </trkpt>
      <trkpt lat="48.67726" lon="2.46768">
        <ele>89</ele>
        <time>2025-12-29T15:31:14.095Z</time>
      </trkpt>
      <trkpt lat="48.67724" lon="2.4676">
        <ele>89</ele>
        <time>2025-12-29T15:31:18.718Z</time>
      </trkpt>
      <trkpt lat="48.67723" lon="2.46753">
        <ele>89</ele>
        <time>2025-12-29T15:31:22.895Z</time>
      </trkpt>
      <trkpt lat="48.67721" lon="2.46747">
        <ele>89</ele>
        <time>2025-12-29T15:31:26.895Z</time>
      </trkpt>
      <trkpt lat="48.67719" lon="2.46738">
        <ele>89</ele>
        <time>2025-12-29T15:31:31.895Z</time>
      </trkpt>
      <trkpt lat="48.67718" lon="2.4673">
        <ele>89</ele>
        <time>2025-12-29T15:31:36.396Z</time>
      </trkpt>
      <trkpt lat="48.67715" lon="2.46722">
        <ele>89</ele>
        <time>2025-12-29T15:31:40.895Z</time>
      </trkpt>
      <trkpt lat="48.67711" lon="2.46715">
        <ele>89</ele>
        <time>2025-12-29T15:31:45.240Z</time>
      </trkpt>
      <trkpt lat="48.67709" lon="2.46707">
        <ele>88</ele>
        <time>2025-12-29T15:31:49.273Z</time>
      </trkpt>
      <trkpt lat="48.67707" lon="2.467">
        <ele>87</ele>
        <time>2025-12-29T15:31:53.480Z</time>
      </trkpt>
      <trkpt lat="48.67707" lon="2.46692">
        <ele>87</ele>
        <time>2025-12-29T15:31:57.894Z</time>
      </trkpt>
      <trkpt lat="48.67712" lon="2.46686">
        <ele>88</ele>
        <time>2025-12-29T15:32:01.895Z</time>
      </trkpt>
      <trkpt lat="48.67716" lon="2.46682">
        <ele>88</ele>
        <time>2025-12-29T15:32:06.293Z</time>
      </trkpt>
      <trkpt lat="48.67719" lon="2.46678">
        <ele>87</ele>
        <time>2025-12-29T15:32:10.710Z</time>
      </trkpt>
      <trkpt lat="48.67724" lon="2.46674">
        <ele>87</ele>
        <time>2025-12-29T15:32:14.898Z</time>
      </trkpt>
      <trkpt lat="48.67729" lon="2.46671">
        <ele>87</ele>
        <time>2025-12-29T15:32:18.895Z</time>
      </trkpt>
      <trkpt lat="48.67734" lon="2.46668">
        <ele>87</ele>
        <time>2025-12-29T15:32:23.614Z</time>
      </trkpt>
      <trkpt lat="48.67739" lon="2.46667">
        <ele>87</ele>
        <time>2025-12-29T15:32:28.457Z</time>
      </trkpt>
      <trkpt lat="48.67744" lon="2.46666">
        <ele>87</ele>
        <time>2025-12-29T15:32:32.695Z</time>
      </trkpt>
      <trkpt lat="48.67747" lon="2.46655">
        <ele>87</ele>
        <time>2025-12-29T15:32:36.895Z</time>
      </trkpt>
      <trkpt lat="48.6775" lon="2.4665">
        <ele>87</ele>
        <time>2025-12-29T15:32:40.895Z</time>
      </trkpt>
      <trkpt lat="48.67755" lon="2.46644">
        <ele>87</ele>
        <time>2025-12-29T15:32:45.895Z</time>
      </trkpt>
      <trkpt lat="48.67759" lon="2.4664">
        <ele>87</ele>
        <time>2025-12-29T15:32:50.177Z</time>
      </trkpt>
      <trkpt lat="48.67759" lon="2.46639">
        <ele>87</ele>
        <time>2025-12-29T15:32:50.634Z</time>
      </trkpt>
      <trkpt lat="48.67767" lon="2.46632">
        <ele>89</ele>
        <time>2025-12-29T15:32:58.717Z</time>
      </trkpt>
      <trkpt lat="48.67768" lon="2.4663">
        <ele>89</ele>
        <time>2025-12-29T15:33:01.172Z</time>
      </trkpt>
      <trkpt lat="48.67773" lon="2.46618">
        <ele>89</ele>
        <time>2025-12-29T15:33:10.379Z</time>
      </trkpt>
      <trkpt lat="48.67776" lon="2.46615">
        <ele>89</ele>
        <time>2025-12-29T15:33:14.895Z</time>
      </trkpt>
      <trkpt lat="48.67778" lon="2.46609">
        <ele>89</ele>
        <time>2025-12-29T15:33:19.180Z</time>
      </trkpt>
      <trkpt lat="48.67783" lon="2.46604">
        <ele>89</ele>
        <time>2025-12-29T15:33:23.179Z</time>
      </trkpt>
      <trkpt lat="48.67787" lon="2.46603">
        <ele>89</ele>
        <time>2025-12-29T15:33:27.375Z</time>
      </trkpt>
      <trkpt lat="48.67792" lon="2.46598">
        <ele>89</ele>
        <time>2025-12-29T15:33:31.536Z</time>
      </trkpt>
      <trkpt lat="48.67796" lon="2.46594">
        <ele>91</ele>
        <time>2025-12-29T15:33:35.895Z</time>
      </trkpt>
      <trkpt lat="48.678" lon="2.46591">
        <ele>91</ele>
        <time>2025-12-29T15:33:40.575Z</time>
      </trkpt>
      <trkpt lat="48.67804" lon="2.46588">
        <ele>91</ele>
        <time>2025-12-29T15:33:44.895Z</time>
      </trkpt>
      <trkpt lat="48.6781" lon="2.46582">
        <ele>91</ele>
        <time>2025-12-29T15:33:49.455Z</time>
      </trkpt>
      <trkpt lat="48.67815" lon="2.46579">
        <ele>91</ele>
        <time>2025-12-29T15:33:53.854Z</time>
      </trkpt>
      <trkpt lat="48.6782" lon="2.46574">
        <ele>91</ele>
        <time>2025-12-29T15:33:57.879Z</time>
      </trkpt>
      <trkpt lat="48.67824" lon="2.46566">
        <ele>91</ele>
        <time>2025-12-29T15:34:02.858Z</time>
      </trkpt>
      <trkpt lat="48.67827" lon="2.46562">
        <ele>91</ele>
        <time>2025-12-29T15:34:06.875Z</time>
      </trkpt>
      <trkpt lat="48.67833" lon="2.4656">
        <ele>91</ele>
        <time>2025-12-29T15:34:11.440Z</time>
      </trkpt>
      <trkpt lat="48.67838" lon="2.46558">
        <ele>91</ele>
        <time>2025-12-29T15:34:15.839Z</time>
      </trkpt>
      <trkpt lat="48.67842" lon="2.46555">
        <ele>91</ele>
        <time>2025-12-29T15:34:19.895Z</time>
      </trkpt>
      <trkpt lat="48.67847" lon="2.46549">
        <ele>91</ele>
        <time>2025-12-29T15:34:24.634Z</time>
      </trkpt>
      <trkpt lat="48.67852" lon="2.46545">
        <ele>91</ele>
        <time>2025-12-29T15:34:28.923Z</time>
      </trkpt>
      <trkpt lat="48.67856" lon="2.46536">
        <ele>90</ele>
        <time>2025-12-29T15:34:33.895Z</time>
      </trkpt>
      <trkpt lat="48.67859" lon="2.46532">
        <ele>90</ele>
        <time>2025-12-29T15:34:38.594Z</time>
      </trkpt>
      <trkpt lat="48.67863" lon="2.46527">
        <ele>90</ele>
        <time>2025-12-29T15:34:43.773Z</time>
      </trkpt>
      <trkpt lat="48.67867" lon="2.46522">
        <ele>90</ele>
        <time>2025-12-29T15:34:48.113Z</time>
      </trkpt>
      <trkpt lat="48.67871" lon="2.46519">
        <ele>90</ele>
        <time>2025-12-29T15:34:52.574Z</time>
      </trkpt>
      <trkpt lat="48.67876" lon="2.46514">
        <ele>88</ele>
        <time>2025-12-29T15:34:56.840Z</time>
      </trkpt>
      <trkpt lat="48.6788" lon="2.46508">
        <ele>87</ele>
        <time>2025-12-29T15:35:00.895Z</time>
      </trkpt>
      <trkpt lat="48.67888" lon="2.46502">
        <ele>87</ele>
        <time>2025-12-29T15:35:05.895Z</time>
      </trkpt>
      <trkpt lat="48.67892" lon="2.46498">
        <ele>87</ele>
        <time>2025-12-29T15:35:10.356Z</time>
      </trkpt>
      <trkpt lat="48.67895" lon="2.46492">
        <ele>87</ele>
        <time>2025-12-29T15:35:14.894Z</time>
      </trkpt>
      <trkpt lat="48.67899" lon="2.46489">
        <ele>87</ele>
        <time>2025-12-29T15:35:19.335Z</time>
      </trkpt>
      <trkpt lat="48.67903" lon="2.46485">
        <ele>88</ele>
        <time>2025-12-29T15:35:23.671Z</time>
      </trkpt>
      <trkpt lat="48.67908" lon="2.46482">
        <ele>88</ele>
        <time>2025-12-29T15:35:27.718Z</time>
      </trkpt>
      <trkpt lat="48.67912" lon="2.46478">
        <ele>88</ele>
        <time>2025-12-29T15:35:31.895Z</time>
      </trkpt>
      <trkpt lat="48.67917" lon="2.46473">
        <ele>88</ele>
        <time>2025-12-29T15:35:36.134Z</time>
      </trkpt>
      <trkpt lat="48.67922" lon="2.46468">
        <ele>88</ele>
        <time>2025-12-29T15:35:40.860Z</time>
      </trkpt>
      <trkpt lat="48.67928" lon="2.46455">
        <ele>88</ele>
        <time>2025-12-29T15:35:49.134Z</time>
      </trkpt>
      <trkpt lat="48.67929" lon="2.46447">
        <ele>88</ele>
        <time>2025-12-29T15:35:53.254Z</time>
      </trkpt>
      <trkpt lat="48.67932" lon="2.46443">
        <ele>89</ele>
        <time>2025-12-29T15:35:57.593Z</time>
      </trkpt>
      <trkpt lat="48.67932" lon="2.46442">
        <ele>89</ele>
        <time>2025-12-29T15:36:01.895Z</time>
      </trkpt>
      <trkpt lat="48.67929" lon="2.46442">
        <ele>88</ele>
        <time>2025-12-29T15:36:14.914Z</time>
      </trkpt>
      <trkpt lat="48.67928" lon="2.46437">
        <ele>88</ele>
        <time>2025-12-29T15:36:19.895Z</time>
      </trkpt>
      <trkpt lat="48.67928" lon="2.46434">
        <ele>88</ele>
        <time>2025-12-29T15:36:23.895Z</time>
      </trkpt>
      <trkpt lat="48.67929" lon="2.46428">
        <ele>88</ele>
        <time>2025-12-29T15:36:28.895Z</time>
      </trkpt>
      <trkpt lat="48.67928" lon="2.4642">
        <ele>88</ele>
        <time>2025-12-29T15:36:33.197Z</time>
      </trkpt>
      <trkpt lat="48.67927" lon="2.46415">
        <ele>88</ele>
        <time>2025-12-29T15:36:37.257Z</time>
      </trkpt>
      <trkpt lat="48.67925" lon="2.46408">
        <ele>88</ele>
        <time>2025-12-29T15:36:41.539Z</time>
      </trkpt>
      <trkpt lat="48.67923" lon="2.46401">
        <ele>87</ele>
        <time>2025-12-29T15:36:45.981Z</time>
      </trkpt>
      <trkpt lat="48.67921" lon="2.46395">
        <ele>87</ele>
        <time>2025-12-29T15:36:50.073Z</time>
      </trkpt>
      <trkpt lat="48.67919" lon="2.46387">
        <ele>87</ele>
        <time>2025-12-29T15:36:54.593Z</time>
      </trkpt>
      <trkpt lat="48.67917" lon="2.4638">
        <ele>87</ele>
        <time>2025-12-29T15:36:58.895Z</time>
      </trkpt>
      <trkpt lat="48.67915" lon="2.46372">
        <ele>87</ele>
        <time>2025-12-29T15:37:03.138Z</time>
      </trkpt>
      <trkpt lat="48.67914" lon="2.46364">
        <ele>87</ele>
        <time>2025-12-29T15:37:07.694Z</time>
      </trkpt>
      <trkpt lat="48.67913" lon="2.46356">
        <ele>87</ele>
        <time>2025-12-29T15:37:12.356Z</time>
      </trkpt>
      <trkpt lat="48.67911" lon="2.46348">
        <ele>87</ele>
        <time>2025-12-29T15:37:16.595Z</time>
      </trkpt>
      <trkpt lat="48.67908" lon="2.46339">
        <ele>88</ele>
        <time>2025-12-29T15:37:21.653Z</time>
      </trkpt>
      <trkpt lat="48.67906" lon="2.46333">
        <ele>88</ele>
        <time>2025-12-29T15:37:25.898Z</time>
      </trkpt>
      <trkpt lat="48.67902" lon="2.46326">
        <ele>87</ele>
        <time>2025-12-29T15:37:30.358Z</time>
      </trkpt>
      <trkpt lat="48.679" lon="2.46319">
        <ele>87</ele>
        <time>2025-12-29T15:37:34.895Z</time>
      </trkpt>
      <trkpt lat="48.679" lon="2.4631">
        <ele>87</ele>
        <time>2025-12-29T15:37:39.313Z</time>
      </trkpt>
      <trkpt lat="48.67898" lon="2.46304">
        <ele>87</ele>
        <time>2025-12-29T15:37:43.440Z</time>
      </trkpt>
      <trkpt lat="48.67896" lon="2.46297">
        <ele>87</ele>
        <time>2025-12-29T15:37:47.899Z</time>
      </trkpt>
      <trkpt lat="48.67894" lon="2.4629">
        <ele>87</ele>
        <time>2025-12-29T15:37:52.615Z</time>
      </trkpt>
      <trkpt lat="48.67892" lon="2.46284">
        <ele>87</ele>
        <time>2025-12-29T15:37:56.699Z</time>
      </trkpt>
      <trkpt lat="48.6789" lon="2.46277">
        <ele>87</ele>
        <time>2025-12-29T15:38:00.895Z</time>
      </trkpt>
      <trkpt lat="48.67888" lon="2.46271">
        <ele>87</ele>
        <time>2025-12-29T15:38:04.895Z</time>
      </trkpt>
      <trkpt lat="48.67886" lon="2.46264">
        <ele>87</ele>
        <time>2025-12-29T15:38:09.056Z</time>
      </trkpt>
      <trkpt lat="48.67883" lon="2.46257">
        <ele>86</ele>
        <time>2025-12-29T15:38:13.101Z</time>
      </trkpt>
      <trkpt lat="48.67882" lon="2.4625">
        <ele>86</ele>
        <time>2025-12-29T15:38:17.618Z</time>
      </trkpt>
      <trkpt lat="48.67879" lon="2.46241">
        <ele>86</ele>
        <time>2025-12-29T15:38:21.855Z</time>
      </trkpt>
      <trkpt lat="48.67877" lon="2.46235">
        <ele>87</ele>
        <time>2025-12-29T15:38:26.607Z</time>
      </trkpt>
      <trkpt lat="48.67875" lon="2.46227">
        <ele>87</ele>
        <time>2025-12-29T15:38:30.895Z</time>
      </trkpt>
      <trkpt lat="48.67872" lon="2.46219">
        <ele>86</ele>
        <time>2025-12-29T15:38:35.618Z</time>
      </trkpt>
      <trkpt lat="48.6787" lon="2.46212">
        <ele>86</ele>
        <time>2025-12-29T15:38:39.771Z</time>
      </trkpt>
      <trkpt lat="48.67867" lon="2.46204">
        <ele>87</ele>
        <time>2025-12-29T15:38:44.418Z</time>
      </trkpt>
      <trkpt lat="48.67864" lon="2.46197">
        <ele>87</ele>
        <time>2025-12-29T15:38:48.895Z</time>
      </trkpt>
      <trkpt lat="48.67862" lon="2.46189">
        <ele>87</ele>
        <time>2025-12-29T15:38:53.354Z</time>
      </trkpt>
      <trkpt lat="48.6786" lon="2.46182">
        <ele>87</ele>
        <time>2025-12-29T15:38:57.636Z</time>
      </trkpt>
      <trkpt lat="48.67859" lon="2.46174">
        <ele>89</ele>
        <time>2025-12-29T15:39:01.669Z</time>
      </trkpt>
      <trkpt lat="48.67857" lon="2.46167">
        <ele>89</ele>
        <time>2025-12-29T15:39:05.895Z</time>
      </trkpt>
      <trkpt lat="48.67855" lon="2.4616">
        <ele>89</ele>
        <time>2025-12-29T15:39:10.538Z</time>
      </trkpt>
      <trkpt lat="48.67853" lon="2.46155">
        <ele>89</ele>
        <time>2025-12-29T15:39:14.580Z</time>
      </trkpt>
      <trkpt lat="48.67852" lon="2.46148">
        <ele>90</ele>
        <time>2025-12-29T15:39:18.673Z</time>
      </trkpt>
      <trkpt lat="48.67849" lon="2.4614">
        <ele>90</ele>
        <time>2025-12-29T15:39:23.278Z</time>
      </trkpt>
      <trkpt lat="48.67848" lon="2.46133">
        <ele>90</ele>
        <time>2025-12-29T15:39:27.799Z</time>
      </trkpt>
      <trkpt lat="48.67845" lon="2.46126">
        <ele>89</ele>
        <time>2025-12-29T15:39:32.213Z</time>
      </trkpt>
      <trkpt lat="48.67843" lon="2.46118">
        <ele>90</ele>
        <time>2025-12-29T15:39:36.678Z</time>
      </trkpt>
      <trkpt lat="48.67841" lon="2.46111">
        <ele>90</ele>
        <time>2025-12-29T15:39:40.758Z</time>
      </trkpt>
      <trkpt lat="48.6784" lon="2.46105">
        <ele>90</ele>
        <time>2025-12-29T15:39:44.860Z</time>
      </trkpt>
      <trkpt lat="48.67838" lon="2.46098">
        <ele>90</ele>
        <time>2025-12-29T15:39:48.938Z</time>
      </trkpt>
      <trkpt lat="48.67837" lon="2.46091">
        <ele>90</ele>
        <time>2025-12-29T15:39:53.607Z</time>
      </trkpt>
      <trkpt lat="48.67834" lon="2.46085">
        <ele>90</ele>
        <time>2025-12-29T15:39:57.781Z</time>
      </trkpt>
      <trkpt lat="48.67832" lon="2.46079">
        <ele>90</ele>
        <time>2025-12-29T15:40:01.871Z</time>
      </trkpt>
      <trkpt lat="48.67829" lon="2.46072">
        <ele>90</ele>
        <time>2025-12-29T15:40:05.895Z</time>
      </trkpt>
      <trkpt lat="48.67828" lon="2.46065">
        <ele>89</ele>
        <time>2025-12-29T15:40:09.895Z</time>
      </trkpt>
      <trkpt lat="48.67826" lon="2.46057">
        <ele>89</ele>
        <time>2025-12-29T15:40:14.236Z</time>
      </trkpt>
      <trkpt lat="48.67824" lon="2.4605">
        <ele>89</ele>
        <time>2025-12-29T15:40:18.277Z</time>
      </trkpt>
      <trkpt lat="48.67822" lon="2.46044">
        <ele>89</ele>
        <time>2025-12-29T15:40:22.618Z</time>
      </trkpt>
      <trkpt lat="48.6782" lon="2.46037">
        <ele>89</ele>
        <time>2025-12-29T15:40:26.897Z</time>
      </trkpt>
      <trkpt lat="48.67819" lon="2.46031">
        <ele>89</ele>
        <time>2025-12-29T15:40:30.906Z</time>
      </trkpt>
      <trkpt lat="48.67822" lon="2.46026">
        <ele>89</ele>
        <time>2025-12-29T15:40:35.178Z</time>
      </trkpt>
      <trkpt lat="48.67826" lon="2.46023">
        <ele>89</ele>
        <time>2025-12-29T15:40:39.697Z</time>
      </trkpt>
      <trkpt lat="48.67831" lon="2.46022">
        <ele>89</ele>
        <time>2025-12-29T15:40:44.315Z</time>
      </trkpt>
      <trkpt lat="48.67835" lon="2.46019">
        <ele>89</ele>
        <time>2025-12-29T15:40:48.416Z</time>
      </trkpt>
      <trkpt lat="48.6784" lon="2.46015">
        <ele>89</ele>
        <time>2025-12-29T15:40:52.875Z</time>
      </trkpt>
      <trkpt lat="48.67845" lon="2.46014">
        <ele>88</ele>
        <time>2025-12-29T15:40:57.660Z</time>
      </trkpt>
      <trkpt lat="48.6785" lon="2.46014">
        <ele>87</ele>
        <time>2025-12-29T15:41:02.317Z</time>
      </trkpt>
      <trkpt lat="48.67856" lon="2.46021">
        <ele>87</ele>
        <time>2025-12-29T15:41:06.895Z</time>
      </trkpt>
      <trkpt lat="48.67863" lon="2.4602">
        <ele>87</ele>
        <time>2025-12-29T15:41:11.379Z</time>
      </trkpt>
      <trkpt lat="48.67868" lon="2.46019">
        <ele>87</ele>
        <time>2025-12-29T15:41:15.618Z</time>
      </trkpt>
      <trkpt lat="48.67872" lon="2.46023">
        <ele>87</ele>
        <time>2025-12-29T15:41:20.615Z</time>
      </trkpt>
      <trkpt lat="48.67875" lon="2.46025">
        <ele>86</ele>
        <time>2025-12-29T15:41:24.938Z</time>
      </trkpt>
      <trkpt lat="48.67879" lon="2.46027">
        <ele>86</ele>
        <time>2025-12-29T15:41:29.354Z</time>
      </trkpt>
      <trkpt lat="48.67883" lon="2.46029">
        <ele>86</ele>
        <time>2025-12-29T15:41:33.439Z</time>
      </trkpt>
      <trkpt lat="48.67887" lon="2.4603">
        <ele>86</ele>
        <time>2025-12-29T15:41:37.455Z</time>
      </trkpt>
      <trkpt lat="48.67892" lon="2.46029">
        <ele>86</ele>
        <time>2025-12-29T15:41:42.033Z</time>
      </trkpt>
      <trkpt lat="48.67897" lon="2.46027">
        <ele>86</ele>
        <time>2025-12-29T15:41:46.179Z</time>
      </trkpt>
      <trkpt lat="48.67902" lon="2.46025">
        <ele>86</ele>
        <time>2025-12-29T15:41:50.877Z</time>
      </trkpt>
      <trkpt lat="48.67907" lon="2.46021">
        <ele>86</ele>
        <time>2025-12-29T15:41:55.396Z</time>
      </trkpt>
      <trkpt lat="48.67912" lon="2.46019">
        <ele>86</ele>
        <time>2025-12-29T15:41:59.667Z</time>
      </trkpt>
      <trkpt lat="48.67917" lon="2.46018">
        <ele>86</ele>
        <time>2025-12-29T15:42:04.094Z</time>
      </trkpt>
      <trkpt lat="48.67922" lon="2.46017">
        <ele>86</ele>
        <time>2025-12-29T15:42:08.237Z</time>
      </trkpt>
      <trkpt lat="48.67927" lon="2.46015">
        <ele>86</ele>
        <time>2025-12-29T15:42:12.714Z</time>
      </trkpt>
      <trkpt lat="48.67932" lon="2.46011">
        <ele>86</ele>
        <time>2025-12-29T15:42:16.757Z</time>
      </trkpt>
      <trkpt lat="48.67936" lon="2.46008">
        <ele>86</ele>
        <time>2025-12-29T15:42:20.814Z</time>
      </trkpt>
      <trkpt lat="48.67941" lon="2.46006">
        <ele>86</ele>
        <time>2025-12-29T15:42:24.899Z</time>
      </trkpt>
      <trkpt lat="48.67945" lon="2.46004">
        <ele>86</ele>
        <time>2025-12-29T15:42:29.137Z</time>
      </trkpt>
      <trkpt lat="48.6795" lon="2.46001">
        <ele>86</ele>
        <time>2025-12-29T15:42:33.672Z</time>
      </trkpt>
      <trkpt lat="48.67955" lon="2.45997">
        <ele>86</ele>
        <time>2025-12-29T15:42:38.158Z</time>
      </trkpt>
      <trkpt lat="48.67959" lon="2.45992">
        <ele>87</ele>
        <time>2025-12-29T15:42:42.254Z</time>
      </trkpt>
      <trkpt lat="48.67964" lon="2.45988">
        <ele>87</ele>
        <time>2025-12-29T15:42:46.839Z</time>
      </trkpt>
      <trkpt lat="48.67969" lon="2.45985">
        <ele>87</ele>
        <time>2025-12-29T15:42:50.902Z</time>
      </trkpt>
      <trkpt lat="48.67974" lon="2.45982">
        <ele>87</ele>
        <time>2025-12-29T15:42:54.895Z</time>
      </trkpt>
      <trkpt lat="48.67978" lon="2.45978">
        <ele>87</ele>
        <time>2025-12-29T15:42:59.075Z</time>
      </trkpt>
      <trkpt lat="48.67983" lon="2.45976">
        <ele>87</ele>
        <time>2025-12-29T15:43:03.236Z</time>
      </trkpt>
      <trkpt lat="48.67988" lon="2.45973">
        <ele>88</ele>
        <time>2025-12-29T15:43:07.278Z</time>
      </trkpt>
      <trkpt lat="48.67993" lon="2.45972">
        <ele>88</ele>
        <time>2025-12-29T15:43:11.422Z</time>
      </trkpt>
      <trkpt lat="48.67998" lon="2.45971">
        <ele>88</ele>
        <time>2025-12-29T15:43:15.464Z</time>
      </trkpt>
      <trkpt lat="48.68003" lon="2.45967">
        <ele>88</ele>
        <time>2025-12-29T15:43:19.659Z</time>
      </trkpt>
      <trkpt lat="48.68007" lon="2.45965">
        <ele>88</ele>
        <time>2025-12-29T15:43:23.898Z</time>
      </trkpt>
      <trkpt lat="48.68013" lon="2.45962">
        <ele>88</ele>
        <time>2025-12-29T15:43:28.102Z</time>
      </trkpt>
      <trkpt lat="48.68017" lon="2.4596">
        <ele>89</ele>
        <time>2025-12-29T15:43:32.262Z</time>
      </trkpt>
      <trkpt lat="48.68022" lon="2.45958">
        <ele>89</ele>
        <time>2025-12-29T15:43:36.485Z</time>
      </trkpt>
      <trkpt lat="48.68026" lon="2.45957">
        <ele>89</ele>
        <time>2025-12-29T15:43:40.603Z</time>
      </trkpt>
      <trkpt lat="48.68031" lon="2.45957">
        <ele>89</ele>
        <time>2025-12-29T15:43:44.895Z</time>
      </trkpt>
      <trkpt lat="48.68035" lon="2.45957">
        <ele>89</ele>
        <time>2025-12-29T15:43:49.122Z</time>
      </trkpt>
      <trkpt lat="48.6804" lon="2.45959">
        <ele>89</ele>
        <time>2025-12-29T15:43:53.402Z</time>
      </trkpt>
      <trkpt lat="48.68044" lon="2.45962">
        <ele>90</ele>
        <time>2025-12-29T15:43:57.861Z</time>
      </trkpt>
      <trkpt lat="48.68049" lon="2.45964">
        <ele>90</ele>
        <time>2025-12-29T15:44:02.040Z</time>
      </trkpt>
      <trkpt lat="48.68053" lon="2.45966">
        <ele>90</ele>
        <time>2025-12-29T15:44:06.321Z</time>
      </trkpt>
      <trkpt lat="48.68058" lon="2.45967">
        <ele>90</ele>
        <time>2025-12-29T15:44:10.405Z</time>
      </trkpt>
      <trkpt lat="48.68064" lon="2.45967">
        <ele>90</ele>
        <time>2025-12-29T15:44:14.618Z</time>
      </trkpt>
      <trkpt lat="48.6807" lon="2.45969">
        <ele>91</ele>
        <time>2025-12-29T15:44:19.895Z</time>
      </trkpt>
      <trkpt lat="48.68074" lon="2.45974">
        <ele>91</ele>
        <time>2025-12-29T15:44:23.904Z</time>
      </trkpt>
      <trkpt lat="48.68079" lon="2.45977">
        <ele>91</ele>
        <time>2025-12-29T15:44:28.082Z</time>
      </trkpt>
      <trkpt lat="48.68083" lon="2.4598">
        <ele>91</ele>
        <time>2025-12-29T15:44:32.303Z</time>
      </trkpt>
      <trkpt lat="48.68088" lon="2.45982">
        <ele>91</ele>
        <time>2025-12-29T15:44:36.559Z</time>
      </trkpt>
      <trkpt lat="48.68092" lon="2.45983">
        <ele>91</ele>
        <time>2025-12-29T15:44:40.763Z</time>
      </trkpt>
      <trkpt lat="48.68097" lon="2.45983">
        <ele>91</ele>
        <time>2025-12-29T15:44:44.895Z</time>
      </trkpt>
      <trkpt lat="48.68101" lon="2.45984">
        <ele>90</ele>
        <time>2025-12-29T15:44:48.895Z</time>
      </trkpt>
      <trkpt lat="48.68106" lon="2.45984">
        <ele>90</ele>
        <time>2025-12-29T15:44:52.895Z</time>
      </trkpt>
      <trkpt lat="48.6811" lon="2.45984">
        <ele>90</ele>
        <time>2025-12-29T15:44:57.059Z</time>
      </trkpt>
      <trkpt lat="48.68116" lon="2.45984">
        <ele>90</ele>
        <time>2025-12-29T15:45:01.281Z</time>
      </trkpt>
      <trkpt lat="48.68121" lon="2.45985">
        <ele>90</ele>
        <time>2025-12-29T15:45:05.422Z</time>
      </trkpt>
      <trkpt lat="48.68125" lon="2.45986">
        <ele>89</ele>
        <time>2025-12-29T15:45:09.559Z</time>
      </trkpt>
      <trkpt lat="48.6813" lon="2.45986">
        <ele>89</ele>
        <time>2025-12-29T15:45:13.737Z</time>
      </trkpt>
      <trkpt lat="48.68135" lon="2.45985">
        <ele>89</ele>
        <time>2025-12-29T15:45:17.895Z</time>
      </trkpt>
      <trkpt lat="48.68141" lon="2.45983">
        <ele>89</ele>
        <time>2025-12-29T15:45:22.879Z</time>
      </trkpt>
      <trkpt lat="48.68146" lon="2.4598">
        <ele>89</ele>
        <time>2025-12-29T15:45:26.895Z</time>
      </trkpt>
      <trkpt lat="48.68151" lon="2.45978">
        <ele>89</ele>
        <time>2025-12-29T15:45:31.261Z</time>
      </trkpt>
      <trkpt lat="48.68157" lon="2.45975">
        <ele>90</ele>
        <time>2025-12-29T15:45:35.798Z</time>
      </trkpt>
      <trkpt lat="48.68163" lon="2.45972">
        <ele>90</ele>
        <time>2025-12-29T15:45:39.895Z</time>
      </trkpt>
      <trkpt lat="48.68168" lon="2.45968">
        <ele>90</ele>
        <time>2025-12-29T15:45:44.503Z</time>
      </trkpt>
      <trkpt lat="48.68173" lon="2.45965">
        <ele>90</ele>
        <time>2025-12-29T15:45:48.563Z</time>
      </trkpt>
      <trkpt lat="48.68177" lon="2.45962">
        <ele>90</ele>
        <time>2025-12-29T15:45:52.747Z</time>
      </trkpt>
      <trkpt lat="48.68183" lon="2.45962">
        <ele>89</ele>
        <time>2025-12-29T15:45:57.219Z</time>
      </trkpt>
      <trkpt lat="48.68188" lon="2.45959">
        <ele>89</ele>
        <time>2025-12-29T15:46:01.895Z</time>
      </trkpt>
      <trkpt lat="48.68193" lon="2.45957">
        <ele>89</ele>
        <time>2025-12-29T15:46:06.783Z</time>
      </trkpt>
      <trkpt lat="48.68198" lon="2.45955">
        <ele>89</ele>
        <time>2025-12-29T15:46:10.782Z</time>
      </trkpt>
      <trkpt lat="48.68201" lon="2.45954">
        <ele>89</ele>
        <time>2025-12-29T15:46:14.824Z</time>
      </trkpt>
      <trkpt lat="48.68205" lon="2.45954">
        <ele>89</ele>
        <time>2025-12-29T15:46:18.864Z</time>
      </trkpt>
      <trkpt lat="48.6821" lon="2.45953">
        <ele>89</ele>
        <time>2025-12-29T15:46:22.895Z</time>
      </trkpt>
      <trkpt lat="48.68214" lon="2.4595">
        <ele>89</ele>
        <time>2025-12-29T15:46:26.895Z</time>
      </trkpt>
      <trkpt lat="48.68219" lon="2.45949">
        <ele>89</ele>
        <time>2025-12-29T15:46:31.422Z</time>
      </trkpt>
      <trkpt lat="48.68224" lon="2.4595">
        <ele>89</ele>
        <time>2025-12-29T15:46:35.895Z</time>
      </trkpt>
      <trkpt lat="48.68229" lon="2.45951">
        <ele>89</ele>
        <time>2025-12-29T15:46:40.642Z</time>
      </trkpt>
      <trkpt lat="48.68235" lon="2.45952">
        <ele>89</ele>
        <time>2025-12-29T15:46:45.058Z</time>
      </trkpt>
      <trkpt lat="48.68241" lon="2.45953">
        <ele>90</ele>
        <time>2025-12-29T15:46:49.203Z</time>
      </trkpt>
      <trkpt lat="48.68246" lon="2.45956">
        <ele>90</ele>
        <time>2025-12-29T15:46:53.782Z</time>
      </trkpt>
      <trkpt lat="48.68252" lon="2.45958">
        <ele>89</ele>
        <time>2025-12-29T15:46:58.665Z</time>
      </trkpt>
      <trkpt lat="48.68257" lon="2.4596">
        <ele>89</ele>
        <time>2025-12-29T15:47:02.895Z</time>
      </trkpt>
      <trkpt lat="48.68263" lon="2.45963">
        <ele>89</ele>
        <time>2025-12-29T15:47:07.895Z</time>
      </trkpt>
      <trkpt lat="48.68269" lon="2.45964">
        <ele>91</ele>
        <time>2025-12-29T15:47:12.619Z</time>
      </trkpt>
      <trkpt lat="48.68274" lon="2.45963">
        <ele>91</ele>
        <time>2025-12-29T15:47:16.895Z</time>
      </trkpt>
      <trkpt lat="48.68279" lon="2.45964">
        <ele>91</ele>
        <time>2025-12-29T15:47:21.895Z</time>
      </trkpt>
      <trkpt lat="48.68285" lon="2.45966">
        <ele>91</ele>
        <time>2025-12-29T15:47:26.698Z</time>
      </trkpt>
      <trkpt lat="48.68291" lon="2.45967">
        <ele>91</ele>
        <time>2025-12-29T15:47:30.774Z</time>
      </trkpt>
      <trkpt lat="48.68298" lon="2.45965">
        <ele>92</ele>
        <time>2025-12-29T15:47:35.037Z</time>
      </trkpt>
      <trkpt lat="48.68303" lon="2.4596">
        <ele>92</ele>
        <time>2025-12-29T15:47:39.405Z</time>
      </trkpt>
      <trkpt lat="48.68307" lon="2.45957">
        <ele>92</ele>
        <time>2025-12-29T15:47:43.403Z</time>
      </trkpt>
      <trkpt lat="48.6831" lon="2.45954">
        <ele>92</ele>
        <time>2025-12-29T15:47:47.351Z</time>
      </trkpt>
      <trkpt lat="48.68315" lon="2.45952">
        <ele>92</ele>
        <time>2025-12-29T15:47:51.478Z</time>
      </trkpt>
      <trkpt lat="48.68319" lon="2.45949">
        <ele>92</ele>
        <time>2025-12-29T15:47:55.566Z</time>
      </trkpt>
      <trkpt lat="48.68325" lon="2.45947">
        <ele>92</ele>
        <time>2025-12-29T15:47:59.725Z</time>
      </trkpt>
      <trkpt lat="48.68331" lon="2.45945">
        <ele>92</ele>
        <time>2025-12-29T15:48:04.781Z</time>
      </trkpt>
      <trkpt lat="48.68336" lon="2.45942">
        <ele>92</ele>
        <time>2025-12-29T15:48:08.895Z</time>
      </trkpt>
      <trkpt lat="48.68341" lon="2.45941">
        <ele>92</ele>
        <time>2025-12-29T15:48:12.895Z</time>
      </trkpt>
      <trkpt lat="48.68346" lon="2.45937">
        <ele>92</ele>
        <time>2025-12-29T15:48:17.820Z</time>
      </trkpt>
      <trkpt lat="48.68351" lon="2.45938">
        <ele>90</ele>
        <time>2025-12-29T15:48:21.921Z</time>
      </trkpt>
      <trkpt lat="48.68355" lon="2.45936">
        <ele>90</ele>
        <time>2025-12-29T15:48:25.895Z</time>
      </trkpt>
      <trkpt lat="48.6836" lon="2.45935">
        <ele>90</ele>
        <time>2025-12-29T15:48:30.098Z</time>
      </trkpt>
      <trkpt lat="48.68366" lon="2.45935">
        <ele>90</ele>
        <time>2025-12-29T15:48:34.405Z</time>
      </trkpt>
      <trkpt lat="48.6837" lon="2.45935">
        <ele>90</ele>
        <time>2025-12-29T15:48:38.675Z</time>
      </trkpt>
      <trkpt lat="48.68375" lon="2.45936">
        <ele>89</ele>
        <time>2025-12-29T15:48:42.897Z</time>
      </trkpt>
      <trkpt lat="48.68379" lon="2.45936">
        <ele>89</ele>
        <time>2025-12-29T15:48:47.085Z</time>
      </trkpt>
      <trkpt lat="48.68384" lon="2.45935">
        <ele>89</ele>
        <time>2025-12-29T15:48:51.280Z</time>
      </trkpt>
      <trkpt lat="48.68389" lon="2.45934">
        <ele>89</ele>
        <time>2025-12-29T15:48:55.620Z</time>
      </trkpt>
      <trkpt lat="48.68393" lon="2.45936">
        <ele>89</ele>
        <time>2025-12-29T15:48:59.884Z</time>
      </trkpt>
      <trkpt lat="48.68399" lon="2.45934">
        <ele>89</ele>
        <time>2025-12-29T15:49:04.079Z</time>
      </trkpt>
      <trkpt lat="48.68403" lon="2.45936">
        <ele>88</ele>
        <time>2025-12-29T15:49:08.717Z</time>
      </trkpt>
      <trkpt lat="48.68408" lon="2.45939">
        <ele>88</ele>
        <time>2025-12-29T15:49:13.246Z</time>
      </trkpt>
      <trkpt lat="48.68412" lon="2.45939">
        <ele>88</ele>
        <time>2025-12-29T15:49:17.399Z</time>
      </trkpt>
      <trkpt lat="48.68417" lon="2.45942">
        <ele>88</ele>
        <time>2025-12-29T15:49:21.604Z</time>
      </trkpt>
      <trkpt lat="48.68418" lon="2.45944">
        <ele>88</ele>
        <time>2025-12-29T15:49:25.704Z</time>
      </trkpt>
      <trkpt lat="48.68424" lon="2.45951">
        <ele>88</ele>
        <time>2025-12-29T15:49:29.745Z</time>
      </trkpt>
      <trkpt lat="48.68427" lon="2.45959">
        <ele>88</ele>
        <time>2025-12-29T15:49:33.895Z</time>
      </trkpt>
      <trkpt lat="48.6843" lon="2.45966">
        <ele>88</ele>
        <time>2025-12-29T15:49:38.043Z</time>
      </trkpt>
      <trkpt lat="48.68433" lon="2.45973">
        <ele>87</ele>
        <time>2025-12-29T15:49:42.122Z</time>
      </trkpt>
      <trkpt lat="48.68435" lon="2.45979">
        <ele>87</ele>
        <time>2025-12-29T15:49:46.237Z</time>
      </trkpt>
      <trkpt lat="48.68437" lon="2.45986">
        <ele>87</ele>
        <time>2025-12-29T15:49:50.382Z</time>
      </trkpt>
      <trkpt lat="48.68438" lon="2.45993">
        <ele>87</ele>
        <time>2025-12-29T15:49:54.399Z</time>
      </trkpt>
      <trkpt lat="48.68441" lon="2.46">
        <ele>87</ele>
        <time>2025-12-29T15:49:58.422Z</time>
      </trkpt>
      <trkpt lat="48.68443" lon="2.46006">
        <ele>87</ele>
        <time>2025-12-29T15:50:02.541Z</time>
      </trkpt>
      <trkpt lat="48.68445" lon="2.46013">
        <ele>87</ele>
        <time>2025-12-29T15:50:06.763Z</time>
      </trkpt>
      <trkpt lat="48.68448" lon="2.4602">
        <ele>88</ele>
        <time>2025-12-29T15:50:11.359Z</time>
      </trkpt>
      <trkpt lat="48.6845" lon="2.46027">
        <ele>88</ele>
        <time>2025-12-29T15:50:15.485Z</time>
      </trkpt>
      <trkpt lat="48.68452" lon="2.46035">
        <ele>88</ele>
        <time>2025-12-29T15:50:20.022Z</time>
      </trkpt>
      <trkpt lat="48.68454" lon="2.46043">
        <ele>89</ele>
        <time>2025-12-29T15:50:24.064Z</time>
      </trkpt>
      <trkpt lat="48.68455" lon="2.46051">
        <ele>89</ele>
        <time>2025-12-29T15:50:28.166Z</time>
      </trkpt>
      <trkpt lat="48.68457" lon="2.46058">
        <ele>89</ele>
        <time>2025-12-29T15:50:32.319Z</time>
      </trkpt>
      <trkpt lat="48.68459" lon="2.46065">
        <ele>88</ele>
        <time>2025-12-29T15:50:36.376Z</time>
      </trkpt>
      <trkpt lat="48.68462" lon="2.4607">
        <ele>89</ele>
        <time>2025-12-29T15:50:40.402Z</time>
      </trkpt>
      <trkpt lat="48.68465" lon="2.46076">
        <ele>89</ele>
        <time>2025-12-29T15:50:44.445Z</time>
      </trkpt>
      <trkpt lat="48.68467" lon="2.46082">
        <ele>89</ele>
        <time>2025-12-29T15:50:48.503Z</time>
      </trkpt>
      <trkpt lat="48.6847" lon="2.46089">
        <ele>89</ele>
        <time>2025-12-29T15:50:53.103Z</time>
      </trkpt>
      <trkpt lat="48.68473" lon="2.46095">
        <ele>89</ele>
        <time>2025-12-29T15:50:57.125Z</time>
      </trkpt>
      <trkpt lat="48.68476" lon="2.46103">
        <ele>89</ele>
        <time>2025-12-29T15:51:01.703Z</time>
      </trkpt>
      <trkpt lat="48.68477" lon="2.4611">
        <ele>89</ele>
        <time>2025-12-29T15:51:05.895Z</time>
      </trkpt>
      <trkpt lat="48.68479" lon="2.46119">
        <ele>89</ele>
        <time>2025-12-29T15:51:10.622Z</time>
      </trkpt>
      <trkpt lat="48.68482" lon="2.46127">
        <ele>89</ele>
        <time>2025-12-29T15:51:14.784Z</time>
      </trkpt>
      <trkpt lat="48.68484" lon="2.46135">
        <ele>89</ele>
        <time>2025-12-29T15:51:19.218Z</time>
      </trkpt>
      <trkpt lat="48.68487" lon="2.46143">
        <ele>89</ele>
        <time>2025-12-29T15:51:23.738Z</time>
      </trkpt>
      <trkpt lat="48.6849" lon="2.46149">
        <ele>89</ele>
        <time>2025-12-29T15:51:27.797Z</time>
      </trkpt>
      <trkpt lat="48.68492" lon="2.46155">
        <ele>89</ele>
        <time>2025-12-29T15:51:31.805Z</time>
      </trkpt>
      <trkpt lat="48.68494" lon="2.46163">
        <ele>89</ele>
        <time>2025-12-29T15:51:36.359Z</time>
      </trkpt>
      <trkpt lat="48.68497" lon="2.46169">
        <ele>89</ele>
        <time>2025-12-29T15:51:40.383Z</time>
      </trkpt>
      <trkpt lat="48.685" lon="2.46176">
        <ele>89</ele>
        <time>2025-12-29T15:51:44.903Z</time>
      </trkpt>
      <trkpt lat="48.68503" lon="2.46181">
        <ele>89</ele>
        <time>2025-12-29T15:51:48.895Z</time>
      </trkpt>
      <trkpt lat="48.68506" lon="2.46188">
        <ele>89</ele>
        <time>2025-12-29T15:51:53.601Z</time>
      </trkpt>
      <trkpt lat="48.68509" lon="2.46194">
        <ele>89</ele>
        <time>2025-12-29T15:51:57.895Z</time>
      </trkpt>
      <trkpt lat="48.68509" lon="2.46202">
        <ele>89</ele>
        <time>2025-12-29T15:52:02.325Z</time>
      </trkpt>
      <trkpt lat="48.68511" lon="2.46209">
        <ele>89</ele>
        <time>2025-12-29T15:52:06.623Z</time>
      </trkpt>
      <trkpt lat="48.68513" lon="2.46215">
        <ele>89</ele>
        <time>2025-12-29T15:52:10.682Z</time>
      </trkpt>
      <trkpt lat="48.68515" lon="2.46221">
        <ele>88</ele>
        <time>2025-12-29T15:52:14.698Z</time>
      </trkpt>
      <trkpt lat="48.68517" lon="2.46228">
        <ele>88</ele>
        <time>2025-12-29T15:52:18.783Z</time>
      </trkpt>
      <trkpt lat="48.6852" lon="2.46234">
        <ele>88</ele>
        <time>2025-12-29T15:52:22.885Z</time>
      </trkpt>
      <trkpt lat="48.68523" lon="2.46241">
        <ele>90</ele>
        <time>2025-12-29T15:52:26.895Z</time>
      </trkpt>
      <trkpt lat="48.68525" lon="2.46248">
        <ele>90</ele>
        <time>2025-12-29T15:52:31.181Z</time>
      </trkpt>
      <trkpt lat="48.68527" lon="2.46254">
        <ele>90</ele>
        <time>2025-12-29T15:52:35.241Z</time>
      </trkpt>
      <trkpt lat="48.68529" lon="2.4626">
        <ele>90</ele>
        <time>2025-12-29T15:52:39.403Z</time>
      </trkpt>
      <trkpt lat="48.68532" lon="2.46266">
        <ele>91</ele>
        <time>2025-12-29T15:52:43.538Z</time>
      </trkpt>
      <trkpt lat="48.68534" lon="2.46273">
        <ele>91</ele>
        <time>2025-12-29T15:52:47.845Z</time>
      </trkpt>
      <trkpt lat="48.68535" lon="2.4628">
        <ele>91</ele>
        <time>2025-12-29T15:52:51.861Z</time>
      </trkpt>
      <trkpt lat="48.68537" lon="2.46286">
        <ele>91</ele>
        <time>2025-12-29T15:52:55.895Z</time>
      </trkpt>
      <trkpt lat="48.6854" lon="2.46293">
        <ele>93</ele>
        <time>2025-12-29T15:53:00.159Z</time>
      </trkpt>
      <trkpt lat="48.68543" lon="2.46299">
        <ele>91</ele>
        <time>2025-12-29T15:53:04.321Z</time>
      </trkpt>
      <trkpt lat="48.68545" lon="2.46305">
        <ele>91</ele>
        <time>2025-12-29T15:53:08.405Z</time>
      </trkpt>
      <trkpt lat="48.68547" lon="2.46312">
        <ele>91</ele>
        <time>2025-12-29T15:53:12.498Z</time>
      </trkpt>
      <trkpt lat="48.68549" lon="2.46319">
        <ele>91</ele>
        <time>2025-12-29T15:53:16.661Z</time>
      </trkpt>
      <trkpt lat="48.68551" lon="2.46325">
        <ele>92</ele>
        <time>2025-12-29T15:53:20.820Z</time>
      </trkpt>
      <trkpt lat="48.68553" lon="2.46332">
        <ele>92</ele>
        <time>2025-12-29T15:53:24.924Z</time>
      </trkpt>
      <trkpt lat="48.68556" lon="2.46338">
        <ele>92</ele>
        <time>2025-12-29T15:53:28.895Z</time>
      </trkpt>
      <trkpt lat="48.68559" lon="2.46344">
        <ele>92</ele>
        <time>2025-12-29T15:53:33.118Z</time>
      </trkpt>
      <trkpt lat="48.68562" lon="2.4635">
        <ele>92</ele>
        <time>2025-12-29T15:53:37.305Z</time>
      </trkpt>
      <trkpt lat="48.68564" lon="2.46357">
        <ele>92</ele>
        <time>2025-12-29T15:53:41.441Z</time>
      </trkpt>
      <trkpt lat="48.68566" lon="2.46364">
        <ele>92</ele>
        <time>2025-12-29T15:53:45.585Z</time>
      </trkpt>
      <trkpt lat="48.68567" lon="2.46371">
        <ele>92</ele>
        <time>2025-12-29T15:53:49.679Z</time>
      </trkpt>
      <trkpt lat="48.6857" lon="2.46378">
        <ele>89</ele>
        <time>2025-12-29T15:53:53.895Z</time>
      </trkpt>
      <trkpt lat="48.68573" lon="2.46386">
        <ele>89</ele>
        <time>2025-12-29T15:53:58.598Z</time>
      </trkpt>
      <trkpt lat="48.68576" lon="2.46392">
        <ele>89</ele>
        <time>2025-12-29T15:54:02.743Z</time>
      </trkpt>
      <trkpt lat="48.68578" lon="2.46399">
        <ele>89</ele>
        <time>2025-12-29T15:54:06.922Z</time>
      </trkpt>
      <trkpt lat="48.68581" lon="2.46406">
        <ele>90</ele>
        <time>2025-12-29T15:54:11.622Z</time>
      </trkpt>
      <trkpt lat="48.68584" lon="2.46412">
        <ele>90</ele>
        <time>2025-12-29T15:54:15.765Z</time>
      </trkpt>
      <trkpt lat="48.68585" lon="2.46419">
        <ele>90</ele>
        <time>2025-12-29T15:54:19.901Z</time>
      </trkpt>
      <trkpt lat="48.68588" lon="2.46425">
        <ele>90</ele>
        <time>2025-12-29T15:54:23.895Z</time>
      </trkpt>
      <trkpt lat="48.68591" lon="2.46433">
        <ele>89</ele>
        <time>2025-12-29T15:54:28.582Z</time>
      </trkpt>
      <trkpt lat="48.68593" lon="2.46439">
        <ele>89</ele>
        <time>2025-12-29T15:54:32.607Z</time>
      </trkpt>
      <trkpt lat="48.68596" lon="2.46446">
        <ele>89</ele>
        <time>2025-12-29T15:54:36.761Z</time>
      </trkpt>
      <trkpt lat="48.68598" lon="2.46452">
        <ele>90</ele>
        <time>2025-12-29T15:54:40.941Z</time>
      </trkpt>
      <trkpt lat="48.68601" lon="2.46459">
        <ele>90</ele>
        <time>2025-12-29T15:54:45.040Z</time>
      </trkpt>
      <trkpt lat="48.68604" lon="2.46465">
        <ele>90</ele>
        <time>2025-12-29T15:54:49.185Z</time>
      </trkpt>
      <trkpt lat="48.68606" lon="2.46473">
        <ele>90</ele>
        <time>2025-12-29T15:54:53.278Z</time>
      </trkpt>
      <trkpt lat="48.68608" lon="2.4648">
        <ele>90</ele>
        <time>2025-12-29T15:54:57.499Z</time>
      </trkpt>
      <trkpt lat="48.6861" lon="2.46485">
        <ele>90</ele>
        <time>2025-12-29T15:55:01.534Z</time>
      </trkpt>
      <trkpt lat="48.68613" lon="2.46494">
        <ele>89</ele>
        <time>2025-12-29T15:55:06.079Z</time>
      </trkpt>
      <trkpt lat="48.68615" lon="2.46501">
        <ele>89</ele>
        <time>2025-12-29T15:55:10.164Z</time>
      </trkpt>
      <trkpt lat="48.68617" lon="2.46508">
        <ele>89</ele>
        <time>2025-12-29T15:55:14.240Z</time>
      </trkpt>
      <trkpt lat="48.68619" lon="2.46514">
        <ele>89</ele>
        <time>2025-12-29T15:55:18.417Z</time>
      </trkpt>
      <trkpt lat="48.6862" lon="2.4652">
        <ele>89</ele>
        <time>2025-12-29T15:55:22.598Z</time>
      </trkpt>
      <trkpt lat="48.68623" lon="2.46526">
        <ele>89</ele>
        <time>2025-12-29T15:55:27.084Z</time>
      </trkpt>
      <trkpt lat="48.68625" lon="2.46535">
        <ele>89</ele>
        <time>2025-12-29T15:55:31.501Z</time>
      </trkpt>
      <trkpt lat="48.68626" lon="2.46541">
        <ele>89</ele>
        <time>2025-12-29T15:55:35.407Z</time>
      </trkpt>
      <trkpt lat="48.68629" lon="2.46547">
        <ele>88</ele>
        <time>2025-12-29T15:55:39.765Z</time>
      </trkpt>
      <trkpt lat="48.68631" lon="2.46552">
        <ele>88</ele>
        <time>2025-12-29T15:55:44.343Z</time>
      </trkpt>
      <trkpt lat="48.68634" lon="2.46558">
        <ele>88</ele>
        <time>2025-12-29T15:55:48.719Z</time>
      </trkpt>
      <trkpt lat="48.68636" lon="2.46565">
        <ele>88</ele>
        <time>2025-12-29T15:55:52.744Z</time>
      </trkpt>
      <trkpt lat="48.68638" lon="2.46571">
        <ele>87</ele>
        <time>2025-12-29T15:55:56.863Z</time>
      </trkpt>
      <trkpt lat="48.68641" lon="2.46578">
        <ele>87</ele>
        <time>2025-12-29T15:56:01.042Z</time>
      </trkpt>
      <trkpt lat="48.68643" lon="2.46584">
        <ele>87</ele>
        <time>2025-12-29T15:56:05.281Z</time>
      </trkpt>
      <trkpt lat="48.68646" lon="2.46587">
        <ele>87</ele>
        <time>2025-12-29T15:56:09.280Z</time>
      </trkpt>
      <trkpt lat="48.68648" lon="2.46591">
        <ele>87</ele>
        <time>2025-12-29T15:56:13.543Z</time>
      </trkpt>
      <trkpt lat="48.6865" lon="2.46598">
        <ele>87</ele>
        <time>2025-12-29T15:56:17.782Z</time>
      </trkpt>
      <trkpt lat="48.68652" lon="2.46605">
        <ele>87</ele>
        <time>2025-12-29T15:56:21.858Z</time>
      </trkpt>
      <trkpt lat="48.68654" lon="2.4661">
        <ele>88</ele>
        <time>2025-12-29T15:56:26.165Z</time>
      </trkpt>
      <trkpt lat="48.68657" lon="2.46614">
        <ele>88</ele>
        <time>2025-12-29T15:56:30.540Z</time>
      </trkpt>
      <trkpt lat="48.68657" lon="2.46621">
        <ele>88</ele>
        <time>2025-12-29T15:56:34.882Z</time>
      </trkpt>
      <trkpt lat="48.68656" lon="2.4663">
        <ele>88</ele>
        <time>2025-12-29T15:56:39.025Z</time>
      </trkpt>
      <trkpt lat="48.68656" lon="2.46639">
        <ele>88</ele>
        <time>2025-12-29T15:56:43.144Z</time>
      </trkpt>
      <trkpt lat="48.68657" lon="2.46648">
        <ele>88</ele>
        <time>2025-12-29T15:56:47.221Z</time>
      </trkpt>
      <trkpt lat="48.68659" lon="2.46656">
        <ele>89</ele>
        <time>2025-12-29T15:56:51.298Z</time>
      </trkpt>
      <trkpt lat="48.68663" lon="2.46661">
        <ele>89</ele>
        <time>2025-12-29T15:56:55.382Z</time>
      </trkpt>
      <trkpt lat="48.68667" lon="2.46662">
        <ele>89</ele>
        <time>2025-12-29T15:56:59.666Z</time>
      </trkpt>
      <trkpt lat="48.68671" lon="2.46665">
        <ele>89</ele>
        <time>2025-12-29T15:57:03.723Z</time>
      </trkpt>
      <trkpt lat="48.68675" lon="2.4667">
        <ele>89</ele>
        <time>2025-12-29T15:57:07.884Z</time>
      </trkpt>
      <trkpt lat="48.68676" lon="2.46677">
        <ele>89</ele>
        <time>2025-12-29T15:57:11.895Z</time>
      </trkpt>
      <trkpt lat="48.68679" lon="2.46684">
        <ele>89</ele>
        <time>2025-12-29T15:57:16.123Z</time>
      </trkpt>
      <trkpt lat="48.68681" lon="2.46691">
        <ele>90</ele>
        <time>2025-12-29T15:57:20.227Z</time>
      </trkpt>
      <trkpt lat="48.68683" lon="2.46698">
        <ele>90</ele>
        <time>2025-12-29T15:57:24.285Z</time>
      </trkpt>
      <trkpt lat="48.68685" lon="2.46705">
        <ele>90</ele>
        <time>2025-12-29T15:57:28.522Z</time>
      </trkpt>
      <trkpt lat="48.68687" lon="2.46711">
        <ele>90</ele>
        <time>2025-12-29T15:57:32.648Z</time>
      </trkpt>
      <trkpt lat="48.68689" lon="2.46718">
        <ele>90</ele>
        <time>2025-12-29T15:57:36.742Z</time>
      </trkpt>
      <trkpt lat="48.68691" lon="2.46724">
        <ele>90</ele>
        <time>2025-12-29T15:57:40.846Z</time>
      </trkpt>
      <trkpt lat="48.68691" lon="2.4673">
        <ele>90</ele>
        <time>2025-12-29T15:57:44.895Z</time>
      </trkpt>
      <trkpt lat="48.68694" lon="2.46737">
        <ele>90</ele>
        <time>2025-12-29T15:57:49.340Z</time>
      </trkpt>
      <trkpt lat="48.68696" lon="2.46742">
        <ele>90</ele>
        <time>2025-12-29T15:57:53.356Z</time>
      </trkpt>
    </trkseg>
  </trk>
</gpx>